GFSWCAN_925_thetae_000.txt.gz
Theta_e
310 311 313 315 314 314 313 313 314 314 314 315 315 315 315 314 316 316 315 316 316 312 316 312 313 317 315 316 319 315 316 314 312 315 316 316 316 318 317 317 320 319 319 317 318 320 321 313 308 315 315 317 315 315
307 309 311 312 314 314 314 314 313 312 312 314 315 315 314 314 314 314 314 315 315 312 314 314 314 314 314 314 315 314 316 315 316 318 314 315 313 311 316 317 314 317 317 321 317 319 317 314 313 313 316 315 315 314
304 305 307 309 310 313 314 314 314 314 312 312 314 314 313 314 312 312 312 313 313 304 311 312 315 314 313 313 313 316 308 313 311 312 314 309 313 312 316 316 316 314 314 315 316 315 315 314 315 315 315 314 313 313
302 303 305 306 308 310 312 313 313 313 313 312 313 313 314 314 312 311 311 312 313 307 304 312 313 314 313 313 312 313 314 314 313 315 306 307 312 311 314 314 314 314 312 313 315 315 315 314 314 314 313 313 313 310
301 302 304 305 306 308 309 310 312 313 313 313 313 313 313 313 313 312 310 311 311 312 307 309 308 311 313 313 313 313 313 315 315 306 305 311 310 311 312 313 314 312 313 314 317 315 316 316 313 312 312 312 311 310
300 302 302 303 305 306 307 309 310 311 313 313 313 313 313 312 310 308 305 307 309 310 304 306 305 306 310 311 312 312 313 313 313 310 307 308 308 309 309 314 314 313 312 312 314 313 312 312 311 311 311 311 311 310
300 301 302 302 302 303 304 304 304 305 305 307 306 307 308 309 307 306 305 304 305 307 299 303 305 302 301 306 309 311 311 312 311 308 305 310 310 310 308 313 313 312 311 310 311 311 312 311 311 310 310 307 305 305
300 301 301 302 302 302 301 301 301 302 302 303 303 303 303 304 304 304 304 305 305 306 300 303 306 306 302 306 308 303 310 308 308 311 311 312 313 309 312 311 310 309 309 309 309 310 310 309 307 304 302 301 301 302
300 301 302 300 301 300 300 301 301 301 301 301 301 301 301 301 300 300 302 302 303 303 301 301 306 309 302 305 304 305 305 308 309 307 311 311 312 312 310 309 308 308 309 309 309 307 305 301 300 300 300 300 301 302
300 300 301 301 300 299 299 299 298 299 299 299 299 299 300 300 300 301 301 302 301 298 298 302 303 308 306 305 306 307 303 306 309 308 308 307 310 308 309 309 309 309 308 305 303 301 300 300 300 300 300 300 298 297
300 299 298 298 297 297 297 297 297 297 297 297 298 301 299 300 301 300 303 301 303 303 301 303 304 306 303 305 307 306 308 305 308 308 309 310 308 307 305 304 302 300 299 299 298 299 299 299 299 299 297 296 295 294
296 296 296 296 296 295 295 296 295 295 297 297 298 298 299 300 302 302 303 303 302 304 303 304 302 301 303 301 306 305 307 307 308 300 303 305 306 301 300 299 298 298 298 298 297 298 298 298 299 298 296 294 293 291
294 294 294 294 294 294 294 294 294 296 297 297 296 298 299 300 300 300 300 304 305 304 299 300 304 299 299 297 300 302 305 306 299 303 305 305 301 299 298 298 298 298 295 293 296 296 296 297 296 293 294 291 290 289
293 293 293 293 294 293 293 293 294 295 296 296 297 298 298 299 299 300 302 302 299 299 298 300 302 302 301 302 303 305 304 301 304 303 305 302 299 298 298 298 297 298 295 293 293 294 294 292 292 288 288 287 287 288
292 292 292 292 292 292 292 292 293 294 294 297 297 297 298 297 296 296 294 296 298 297 299 299 298 297 300 299 301 302 302 302 302 304 303 301 298 297 297 297 297 296 294 292 293 293 292 290 289 289 286 286 286 286
291 291 292 291 291 291 291 292 292 293 292 293 295 295 295 295 297 294 293 296 296 295 295 295 296 296 298 300 300 301 302 300 302 302 302 298 298 297 297 297 295 295 293 293 292 291 291 289 289 290 287 287 286 286
291 292 291 291 291 291 291 292 293 293 293 292 293 294 295 294 294 295 294 296 295 295 296 295 296 296 297 298 298 299 300 302 303 301 299 298 297 296 296 296 294 293 293 293 291 290 289 288 287 287 290 288 286 285
292 291 290 291 292 292 292 291 292 292 292 292 292 294 292 292 294 294 293 293 293 295 294 294 296 296 297 296 298 300 300 300 299 299 299 297 297 296 295 296 296 296 295 292 291 289 287 287 288 289 288 286 286 286
291 290 290 291 292 291 291 291 291 292 291 291 292 292 292 294 293 293 295 293 293 294 294 295 295 295 297 297 299 300 299 299 298 298 298 296 295 295 294 294 294 294 293 292 289 288 288 288 289 289 288 287 290 288
291 291 291 292 291 292 291 291 289 291 291 292 292 293 293 293 293 295 295 294 294 293 293 294 294 296 297 297 296 296 297 297 298 297 297 296 295 296 296 294 293 293 291 290 289 288 288 287 287 287 288 289 289 289
292 291 291 291 291 291 292 291 291 291 291 292 292 292 293 291 292 293 294 294 294 294 294 295 295 295 294 294 294 294 295 295 296 297 297 296 295 294 293 293 291 290 291 291 292 291 288 289 289 286 286 287 286 286
292 292 292 291 291 291 292 291 292 292 291 292 291 292 293 293 293 292 292 293 293 295 295 295 295 295 294 294 294 293 293 293 294 294 293 293 293 293 293 292 291 292 292 292 292 291 289 287 286 285 286 286 284 284
291 291 291 290 293 293 293 290 291 292 292 292 291 292 291 291 292 289 292 292 293 294 293 293 293 292 293 292 292 292 292 292 294 294 293 293 292 292 291 291 291 291 292 290 288 288 287 285 285 286 285 284 285 285
290 291 293 293 292 292 290 291 291 291 292 290 290 291 291 291 289 291 291 293 293 293 293 292 292 292 292 292 293 293 292 292 292 291 291 291 292 293 292 292 290 289 289 289 286 287 285 286 286 285 285 285 285 285
293 292 292 292 293 291 290 290 291 290 291 290 291 291 292 289 291 291 292 293 294 294 294 293 291 291 291 292 293 292 292 291 291 291 291 291 292 289 288 287 287 287 286 287 287 287 287 286 286 285 284 285 285 285
292 293 293 293 292 291 291 290 289 290 291 290 290 291 288 291 291 291 292 294 296 294 295 294 294 293 293 292 292 292 291 288 288 292 293 291 291 291 292 290 290 288 286 287 287 287 287 286 286 285 285 285 285 284
292 292 292 291 291 290 290 286 288 291 290 290 291 289 290 291 292 292 293 291 292 292 291 292 292 292 292 291 289 288 287 286 286 289 287 287 288 288 290 292 292 291 288 286 287 287 287 286 286 286 286 286 285 284
292 293 292 291 289 290 291 289 289 290 291 291 290 290 291 292 292 293 293 291 290 291 289 289 289 290 290 289 287 284 285 284 284 285 285 286 286 287 287 288 288 289 287 287 287 286 286 286 286 285 285 285 284 281
293 292 292 289 289 289 291 292 293 292 292 289 292 292 292 292 293 292 289 286 285 286 287 288 289 288 288 287 285 284 285 285 287 289 291 292 290 287 286 287 287 287 284 285 285 285 285 284 283 282 281 281 280 278
292 290 292 292 290 291 293 291 292 293 290 291 291 292 292 291 286 282 283 283 284 286 285 284 284 285 288 289 289 288 285 285 286 288 291 292 292 287 285 285 284 283 283 283 281 281 280 280 279 279 278 278 278 279
290 289 290 291 291 292 293 286 285 286 287 289 289 290 292 291 283 278 279 278 279 279 283 285 286 286 286 287 288 288 288 285 284 285 286 286 286 285 285 284 283 283 283 282 282 282 281 280 280 278 278 278 277 277
288 290 290 290 291 286 284 287 289 288 289 288 289 289 287 289 291 283 276 277 280 282 280 280 284 286 283 283 283 284 285 284 284 284 284 284 284 284 284 283 283 282 282 282 281 281 280 280 279 279 278 277 276 276
289 289 289 289 290 290 288 288 289 290 287 288 288 287 288 290 291 279 275 274 275 276 276 277 279 281 281 281 281 282 283 283 283 283 284 284 284 283 282 282 282 281 281 281 281 280 279 279 278 278 277 276 275 273

GFSWCAN_925_thetae_003.txt.gz
Theta_e
310 311 312 314 314 314 314 314 315 315 316 316 315 316 315 315 314 317 319 319 319 321 319 318 318 320 319 319 322 319 318 319 318 319 316 317 319 318 318 317 319 319 320 319 319 321 323 315 315 318 318 318 317 316
309 310 311 311 313 314 314 314 313 313 314 315 315 315 315 315 315 315 317 319 318 317 319 318 317 316 316 316 318 318 318 317 319 320 316 317 316 314 316 317 315 317 318 322 319 320 319 319 317 317 317 317 315 315
303 305 307 309 310 312 313 314 314 314 313 313 313 314 315 315 314 313 315 315 315 307 313 315 318 316 316 316 315 321 318 316 317 316 320 314 314 316 316 316 316 315 315 319 319 316 317 315 316 317 315 313 313 313
302 303 304 305 307 309 310 312 313 314 314 314 313 312 313 314 314 313 312 314 315 308 304 312 314 315 315 315 315 315 315 315 315 318 308 307 310 312 315 314 315 314 314 315 317 317 315 315 315 314 313 312 312 312
301 302 303 304 305 306 308 310 311 312 313 314 314 313 313 313 313 313 312 312 313 314 308 308 309 313 314 314 315 314 314 316 319 312 306 312 313 313 312 313 314 313 315 315 315 315 317 316 313 311 312 311 311 310
300 301 302 303 304 305 306 307 309 310 312 313 313 313 313 313 313 309 306 308 310 312 306 308 306 309 311 312 314 315 315 317 317 315 307 311 312 312 311 314 312 313 313 314 315 314 314 312 311 311 311 310 306 304
300 301 302 302 303 303 304 306 307 308 310 311 311 312 313 313 311 307 305 306 307 309 299 306 305 304 303 308 313 314 314 316 314 313 309 311 311 311 309 313 314 311 312 312 313 313 311 310 311 310 306 304 303 302
300 301 301 301 301 301 301 301 302 303 304 305 306 307 308 306 304 304 303 304 306 305 301 305 305 306 304 309 312 309 312 308 308 311 310 312 313 309 312 312 310 310 309 309 308 309 311 310 308 304 303 302 302 302
300 300 301 301 300 300 301 301 301 301 301 303 303 302 302 301 300 301 301 302 302 302 300 300 308 310 305 308 306 307 306 307 309 309 313 311 313 314 311 309 309 309 309 309 309 308 306 304 303 303 302 302 302 301
300 301 301 300 301 300 300 300 300 301 301 300 301 301 301 300 299 301 301 302 299 297 297 302 304 308 308 306 305 306 305 305 308 309 309 312 311 309 308 309 309 308 307 305 304 304 303 302 302 301 301 301 299 297
300 300 300 300 300 299 299 299 299 299 299 301 301 303 300 300 302 302 304 302 303 302 299 302 305 307 304 307 306 304 306 308 310 307 311 311 309 308 306 306 305 303 302 302 301 301 301 301 301 301 301 299 297 295
300 300 299 299 298 298 298 297 298 299 300 301 301 300 300 301 303 303 303 303 303 305 305 307 304 303 305 304 307 306 306 307 307 305 305 308 305 304 303 302 301 301 301 301 300 300 300 299 299 300 299 296 296 293
298 297 297 296 296 296 296 296 296 297 299 299 298 302 301 302 302 300 302 305 307 304 301 301 302 300 301 299 301 303 306 309 303 306 307 307 305 302 300 300 300 299 299 297 299 299 298 297 298 296 296 295 292 291
295 295 295 295 295 295 295 294 295 297 298 299 301 299 301 301 300 301 302 304 300 299 301 301 301 301 302 303 303 304 305 303 305 305 307 307 301 300 299 299 299 299 298 297 298 297 296 294 294 294 290 289 288 290
293 294 294 294 294 293 293 294 296 297 296 298 297 299 299 299 300 299 299 301 299 299 300 300 300 299 299 299 300 301 301 302 303 303 306 304 301 300 299 298 298 298 297 296 297 297 295 293 293 292 290 287 288 287
292 292 293 293 293 292 292 293 295 295 293 296 297 298 298 298 299 296 295 297 299 298 297 297 298 297 297 300 300 300 300 298 303 306 303 300 299 299 298 297 297 296 296 297 297 297 295 293 291 292 291 288 287 288
292 293 292 291 291 291 293 293 294 292 296 295 296 296 298 296 299 298 298 298 297 297 297 297 296 297 296 298 298 297 299 302 303 301 300 298 299 299 299 297 295 296 297 296 297 296 295 292 290 289 290 290 289 288
293 292 291 291 292 292 293 294 293 294 293 294 294 296 294 295 297 296 295 297 296 295 295 295 295 295 296 294 298 300 300 300 300 300 299 298 299 298 297 297 296 296 296 296 295 295 292 290 290 289 290 290 289 288
293 292 290 292 292 293 292 292 293 294 293 293 293 293 295 296 296 295 296 295 295 294 295 295 295 295 297 297 299 299 299 300 299 298 298 297 296 296 296 296 296 296 296 294 294 292 291 290 290 290 291 290 291 291
291 291 290 291 292 292 293 293 292 293 293 293 293 294 295 295 296 295 294 293 294 294 294 294 294 296 297 297 297 297 297 297 297 297 297 297 295 295 296 296 296 295 294 293 291 290 290 290 289 289 290 291 291 291
291 291 290 291 292 293 292 291 291 291 293 293 294 294 294 295 294 295 295 295 295 294 294 295 296 296 296 296 295 295 295 295 296 296 296 296 295 295 295 295 294 293 292 292 292 291 291 292 291 290 288 289 289 288
292 291 292 291 291 291 292 292 293 293 293 293 293 293 295 295 296 295 294 294 294 296 296 296 296 296 296 295 295 294 294 294 294 294 294 294 296 297 297 295 293 293 292 292 292 293 292 291 290 288 288 288 287 287
292 291 290 291 293 294 294 292 293 292 293 293 293 293 293 293 293 293 294 294 295 295 294 294 294 294 294 293 293 293 292 293 294 294 294 294 294 293 293 292 292 292 293 292 292 292 291 290 287 287 288 287 286 286
291 291 294 294 293 294 293 293 293 293 293 293 293 292 292 293 294 293 292 295 295 295 295 294 293 294 294 293 294 295 294 294 294 293 293 292 292 292 292 292 292 292 292 292 292 290 289 287 286 287 287 287 286 286
292 292 293 293 293 293 291 292 292 292 292 292 292 292 293 294 293 292 293 295 296 296 296 295 294 293 294 295 296 295 294 294 293 294 292 292 292 291 292 292 292 292 291 289 289 289 288 287 287 287 287 286 286 286
293 293 292 293 293 293 293 292 292 292 292 292 292 292 294 293 292 292 292 296 299 296 296 295 296 295 294 294 295 296 294 292 290 290 289 291 292 292 293 293 292 291 288 289 289 289 289 287 287 287 286 286 285 285
293 293 293 293 293 292 293 293 293 293 292 291 292 292 292 292 291 292 293 294 294 295 294 295 294 295 295 294 293 293 291 288 288 287 288 289 289 291 292 293 293 292 289 289 288 288 288 288 287 287 286 286 286 286
292 294 293 294 292 293 293 292 292 291 292 292 293 292 293 293 292 294 294 294 294 294 294 294 293 292 292 291 291 290 288 287 286 286 286 287 288 288 288 289 289 289 289 288 288 288 288 288 287 287 286 286 286 284
292 294 294 293 293 293 292 292 293 293 293 293 294 294 294 294 295 295 293 291 289 289 290 291 291 290 289 288 288 288 287 287 288 289 290 291 293 290 288 287 287 288 289 287 286 287 287 287 286 286 285 285 284 282
293 294 293 293 292 292 294 294 295 296 295 295 294 294 294 294 293 291 288 288 288 289 289 288 287 286 287 288 289 289 289 287 286 288 290 292 291 291 290 288 287 286 286 285 284 283 284 284 283 282 282 281 281 281
294 294 293 294 294 294 294 296 292 291 291 292 293 293 294 294 292 286 284 284 284 284 285 286 287 287 287 287 288 289 289 287 285 285 284 285 286 287 287 286 285 285 284 284 283 283 283 283 283 282 281 281 281 280
292 293 293 293 294 294 289 291 293 293 293 293 292 293 292 290 291 288 280 280 283 285 284 283 284 285 285 285 284 284 284 284 284 284 284 285 286 285 285 285 284 284 284 284 283 283 282 282 282 281 281 280 279 279
292 293 293 293 293 293 293 291 292 292 292 291 291 292 291 291 292 283 278 277 279 279 279 280 280 282 281 281 282 281 281 280 281 283 283 283 284 284 284 284 283 283 283 283 283 282 281 281 281 281 280 279 278 277

GFSWCAN_925_thetae_006.txt.gz
Theta_e
311 312 314 315 315 314 314 316 316 316 316 316 316 316 316 315 315 315 319 321 320 320 320 319 320 321 320 321 325 321 321 323 318 317 316 319 317 319 318 316 318 317 319 318 316 319 321 316 318 318 317 317 316 315
310 311 312 313 314 314 314 314 315 315 315 315 316 316 315 315 315 314 317 319 319 319 320 320 320 319 318 318 320 320 319 319 319 320 315 316 315 316 312 317 313 316 316 318 317 318 316 316 316 316 314 316 315 314
306 308 309 310 311 312 313 313 314 313 313 314 314 315 315 315 315 314 315 317 317 306 316 317 319 317 317 317 318 321 322 318 318 319 319 311 313 316 316 316 316 315 314 316 315 314 315 315 315 314 314 313 312 312
303 304 305 307 309 310 311 313 313 314 314 313 313 313 313 313 314 314 313 314 315 308 304 313 314 316 316 316 317 317 318 317 317 318 313 309 310 312 314 314 315 314 314 314 313 314 314 314 314 314 313 312 311 310
301 302 303 304 305 307 309 310 311 312 313 313 314 314 313 312 313 313 313 313 314 314 309 308 309 313 314 315 316 316 317 318 318 314 308 311 314 312 314 313 313 313 313 314 315 314 314 314 314 313 311 311 308 307
300 301 302 303 304 305 306 307 309 310 311 312 313 314 314 314 312 310 307 310 311 314 307 307 308 309 312 313 314 315 317 318 318 317 310 313 313 309 310 314 313 313 312 313 314 313 313 313 311 310 309 308 305 303
300 301 302 303 303 303 304 306 307 308 309 310 311 312 313 313 311 308 306 307 309 310 300 309 310 305 307 309 312 314 314 316 316 314 310 308 308 311 306 314 313 313 312 311 311 311 310 309 311 308 306 304 302 302
300 301 302 302 302 301 302 303 305 306 307 308 310 311 311 308 305 304 304 306 308 307 301 308 305 305 305 310 311 308 310 307 306 308 305 307 309 306 310 312 311 311 310 310 309 309 308 306 305 303 302 302 302 301
300 300 301 301 301 301 301 301 302 303 304 305 306 305 304 302 301 301 302 303 303 303 303 300 306 310 306 307 303 303 303 305 305 306 309 309 311 312 311 311 310 310 309 308 307 304 303 303 302 302 302 301 301 300
300 300 301 301 300 300 301 301 301 302 302 301 302 301 299 300 300 301 300 298 296 295 296 301 304 310 308 305 305 305 302 304 308 308 309 311 311 310 310 309 308 306 304 303 304 303 302 302 301 301 301 301 300 297
299 300 300 300 300 299 300 301 301 300 301 302 302 300 301 300 302 301 301 300 299 302 299 302 304 308 306 306 305 302 304 305 309 308 311 311 310 308 307 306 304 302 302 301 301 300 300 301 300 300 300 300 297 295
299 299 300 300 300 299 299 300 299 300 301 302 302 300 300 302 303 303 303 303 303 305 305 305 305 304 303 305 306 303 305 305 305 306 306 307 307 305 304 303 301 301 300 300 299 299 298 298 299 299 299 299 297 295
300 300 300 299 298 298 298 299 298 299 300 301 299 301 301 302 302 302 304 306 306 305 301 303 304 302 302 300 302 301 305 304 303 306 306 307 306 305 302 301 300 299 298 298 297 296 297 298 298 295 294 294 293 293
299 299 298 297 297 297 297 297 297 299 300 301 299 300 301 300 300 302 303 302 299 300 302 303 302 304 301 300 300 301 303 305 305 305 306 307 303 301 300 300 299 298 295 295 296 297 297 296 296 294 293 292 291 289
297 296 296 296 296 296 295 295 297 298 297 298 298 299 300 300 301 298 300 300 299 299 301 301 301 301 301 300 300 302 301 302 303 304 306 304 303 301 300 300 298 297 294 294 296 296 296 296 292 292 293 291 288 288
295 295 295 295 294 294 294 296 297 297 294 296 295 298 299 301 299 298 297 300 300 299 298 300 299 297 297 299 299 300 301 300 302 306 303 300 300 300 298 296 297 297 296 296 296 296 296 296 293 293 293 291 289 288
293 294 294 294 293 292 294 295 295 294 296 294 296 298 299 300 299 300 297 298 299 297 298 298 297 297 298 299 298 298 300 302 302 301 299 299 298 298 296 296 296 296 296 296 296 296 296 295 294 292 291 290 288 288
294 294 293 293 292 294 293 295 293 294 294 295 295 296 295 295 296 297 296 297 298 297 295 296 296 296 296 296 297 299 300 300 299 298 298 297 296 296 296 296 295 295 296 296 295 295 294 293 293 292 290 289 290 290
294 293 292 292 293 294 293 293 294 294 295 295 295 295 296 298 297 296 297 296 296 295 296 296 296 296 297 297 298 298 298 298 298 297 296 296 295 295 294 294 294 295 295 295 296 294 293 293 292 291 290 291 290 291
293 291 292 293 293 293 294 294 293 294 295 295 294 295 296 295 297 297 295 294 296 295 295 294 295 296 297 297 297 297 296 296 296 296 296 295 295 295 295 294 295 295 295 295 294 292 292 291 290 290 290 291 291 292
292 291 292 292 293 294 294 292 292 292 293 294 294 295 295 297 297 297 294 295 294 294 294 294 295 295 295 295 295 295 295 295 296 296 295 295 295 294 294 294 294 294 295 294 292 292 291 291 291 290 290 290 291 290
293 291 291 292 291 291 292 292 293 294 293 293 294 294 295 295 296 296 295 295 295 295 295 295 295 296 296 296 296 295 295 294 294 294 293 294 295 295 295 294 294 294 294 293 292 292 292 291 291 291 289 289 288 287
292 292 291 291 291 291 293 293 294 293 293 293 293 293 294 294 295 294 295 295 295 295 295 295 295 295 295 294 294 293 293 293 294 294 294 295 294 294 294 293 293 292 292 292 292 292 291 292 291 289 288 288 287 287
291 291 293 292 292 293 293 293 293 294 294 293 294 293 293 295 295 294 294 295 295 295 295 295 295 295 295 294 295 294 294 294 294 295 294 294 294 293 292 292 292 291 291 292 292 292 291 290 289 287 287 287 287 287
292 293 293 293 293 293 293 293 293 293 293 293 294 293 293 295 293 293 293 294 295 295 296 296 295 295 295 295 295 294 294 294 294 294 293 292 291 290 291 292 292 292 292 291 291 290 290 289 288 287 287 287 287 287
293 293 292 293 294 293 293 292 293 293 294 293 293 293 296 293 292 293 293 296 299 297 295 295 296 295 295 294 294 294 294 294 292 291 290 290 290 291 292 292 292 292 291 291 290 290 289 288 288 288 288 287 286 286
294 294 294 293 293 293 294 295 294 294 293 293 293 294 293 293 292 292 293 295 296 294 294 294 294 294 294 294 294 294 293 291 290 289 288 287 287 288 290 291 291 292 292 290 289 290 289 289 289 288 287 287 286 286
292 294 294 294 294 295 294 294 293 293 293 293 293 293 293 293 293 294 296 294 294 293 293 294 294 293 293 293 292 290 289 289 288 288 287 288 288 288 288 288 289 290 290 289 289 289 288 288 288 288 287 287 286 286
293 295 295 293 294 293 294 294 294 294 293 293 293 293 294 294 294 295 294 293 293 292 291 291 291 291 291 290 289 288 288 289 289 289 289 289 290 291 291 289 288 288 287 288 288 288 288 288 288 287 287 286 286 285
293 294 293 293 292 293 294 294 294 294 294 294 293 293 293 294 293 293 293 293 291 291 291 290 289 288 287 288 288 288 288 289 289 288 288 288 288 287 287 288 288 287 287 287 286 286 287 287 286 285 285 283 283 283
294 295 293 294 294 294 294 294 294 293 293 294 293 294 294 294 293 293 291 290 289 287 287 287 287 288 288 287 287 287 288 286 285 285 284 285 285 286 287 287 286 286 286 285 284 284 284 284 284 284 283 282 282 281
294 293 293 293 294 294 293 293 294 295 294 295 295 294 294 293 293 290 282 282 284 285 286 284 285 286 284 284 285 285 283 283 282 281 283 284 285 285 285 285 285 285 284 284 284 283 283 283 283 283 282 281 281 280
293 293 292 292 292 292 293 292 293 293 294 294 294 294 294 294 293 284 280 279 280 280 280 280 280 281 282 282 282 282 281 280 280 281 281 282 283 283 283 284 284 283 283 283 283 283 282 282 282 282 281 280 279 278

GFSWCAN_925_thetae_009.txt.gz
Theta_e
310 312 314 314 314 315 315 316 316 316 316 316 316 316 316 316 315 315 318 319 319 312 314 318 319 319 319 316 310 314 313 309 307 311 312 312 313 309 311 312 310 309 308 313 307 317 313 313 312 311 312 312 312 312
310 310 312 314 314 314 314 314 315 316 316 316 316 316 316 316 315 315 315 317 318 317 315 318 319 319 319 319 317 314 314 316 312 307 306 308 313 310 311 316 312 313 311 309 310 309 310 311 310 310 311 311 312 311
309 310 310 312 313 313 314 314 314 314 315 315 315 315 315 315 315 315 315 315 316 307 313 314 313 315 316 317 317 312 309 315 314 311 308 308 313 309 314 313 310 313 312 310 310 312 311 311 310 310 310 311 310 309
305 307 308 309 310 312 313 313 314 314 314 314 314 314 315 315 315 314 314 315 315 308 304 310 314 314 314 314 315 317 317 317 316 312 306 306 310 311 311 312 313 312 311 312 312 311 311 310 309 310 310 311 308 305
303 303 304 305 307 310 310 310 311 312 313 313 313 313 313 313 313 313 313 313 314 314 307 305 309 312 313 314 315 315 317 316 310 308 306 308 305 308 306 307 310 312 313 312 313 311 311 311 309 308 309 306 305 305
301 302 302 303 304 305 306 307 309 310 312 313 314 313 313 313 312 311 307 311 313 314 306 307 307 308 311 312 312 313 315 314 314 309 305 308 310 309 309 314 311 311 311 311 312 310 310 308 308 308 308 305 302 301
300 301 302 303 303 304 304 305 306 308 309 310 311 311 312 313 312 309 307 309 309 312 300 306 305 302 305 307 310 310 312 311 311 308 307 308 308 311 305 314 312 311 310 310 310 310 309 307 304 303 302 301 301 300
300 301 302 302 301 302 303 304 306 307 307 307 309 310 309 309 305 305 305 307 309 309 302 309 306 303 304 301 305 304 302 302 304 307 303 305 306 304 309 311 310 309 309 308 308 305 303 302 301 301 300 300 300 299
300 301 301 301 301 301 301 302 304 305 307 307 308 307 304 303 302 302 304 306 306 304 304 301 306 309 304 304 301 301 301 304 301 304 305 306 306 310 309 309 309 308 307 305 303 301 300 300 300 300 299 298 299 298
299 300 301 301 300 301 301 301 303 304 303 303 302 301 298 301 301 302 301 297 296 294 295 300 301 306 306 301 301 302 299 303 306 305 304 305 307 307 307 307 306 301 302 301 300 300 299 298 298 298 298 297 298 295
299 300 301 300 300 300 300 301 302 301 301 302 300 297 300 301 302 299 298 300 298 300 297 299 301 304 302 304 303 299 302 302 306 299 300 299 303 305 304 303 301 301 301 300 299 298 296 296 295 296 295 295 295 294
299 300 300 300 300 299 300 301 300 301 301 302 301 300 300 299 298 301 301 300 300 301 300 301 301 302 299 301 301 300 303 302 303 298 303 302 301 303 302 300 300 298 298 298 296 295 295 295 295 295 294 293 295 294
298 299 299 300 300 299 299 300 299 300 301 300 298 296 298 297 301 298 300 303 300 299 300 299 302 299 298 297 300 300 302 302 299 302 302 299 302 300 299 298 298 297 295 294 295 295 295 295 295 295 294 294 292 291
299 299 300 299 299 298 299 298 298 299 300 294 296 293 294 297 296 298 299 301 298 298 299 298 299 297 297 298 298 298 296 298 302 301 297 296 299 299 298 298 297 296 290 291 293 294 293 292 293 295 295 294 290 289
299 299 299 298 297 297 297 297 298 298 296 293 294 294 296 295 297 296 297 297 296 296 297 297 296 295 293 294 295 293 295 299 296 295 294 294 297 296 296 295 294 290 288 287 293 292 293 293 292 292 293 294 293 290
297 296 296 297 296 297 295 296 297 296 293 294 294 294 295 294 297 295 296 298 295 294 292 292 293 290 290 291 292 293 294 294 293 293 292 294 295 295 294 292 292 294 294 294 294 294 293 293 293 294 294 292 291 290
295 294 295 295 294 294 295 296 295 291 291 292 290 291 296 294 297 295 295 295 296 290 290 289 290 291 291 290 292 295 292 290 291 291 290 293 293 293 292 292 292 293 293 292 292 292 293 294 294 292 292 292 291 290
294 294 295 294 294 294 293 295 292 290 291 290 290 289 289 290 295 295 294 292 293 291 290 290 291 289 287 288 288 289 289 288 289 289 289 292 292 293 294 293 293 293 292 292 292 293 293 294 292 292 292 291 290 289
294 293 294 293 294 293 292 292 294 292 289 290 291 290 289 289 290 294 292 294 295 295 288 287 286 287 290 288 286 288 287 287 291 292 291 293 293 293 293 293 293 292 292 292 292 292 293 293 292 291 291 290 289 290
293 293 293 293 293 293 291 290 293 291 292 291 289 289 289 289 288 291 292 293 291 289 288 289 289 290 288 290 289 288 289 289 290 291 292 292 293 293 292 292 292 292 292 292 292 293 292 292 292 291 290 290 290 290
292 291 292 293 293 293 292 289 292 292 290 290 290 290 288 288 288 292 289 292 292 292 289 290 291 291 291 292 292 292 292 292 292 292 293 292 292 292 292 292 292 293 292 292 292 293 292 292 292 291 290 290 290 291
292 292 292 291 291 290 290 292 289 289 288 288 288 289 287 286 286 287 288 291 291 289 290 291 290 290 291 291 292 293 294 294 294 293 292 292 290 291 292 293 292 292 292 292 292 292 292 291 291 290 289 289 289 289
291 291 290 290 290 290 287 292 288 290 288 286 287 288 285 286 287 289 286 290 290 291 292 291 292 293 292 293 293 293 293 293 291 291 291 293 293 293 293 292 292 291 291 291 291 291 291 291 290 290 290 289 288 287
291 290 290 290 285 285 288 291 291 289 287 287 286 286 288 287 287 286 287 286 291 291 290 291 292 291 291 292 290 291 293 293 293 293 293 293 290 291 291 290 290 290 291 291 290 291 291 290 290 289 288 288 287 287
291 291 291 290 288 289 290 288 289 287 285 285 286 284 286 286 285 284 284 289 285 286 289 290 291 289 289 287 289 293 293 293 293 289 293 292 290 290 289 290 290 291 290 291 291 290 290 289 289 288 287 287 287 287
292 291 290 288 290 290 287 284 285 285 284 285 286 286 285 285 285 286 289 285 285 287 286 286 286 286 288 292 289 289 293 293 292 290 290 290 289 288 288 288 289 290 290 291 290 289 289 289 289 288 287 287 287 287
293 290 289 289 291 290 287 287 288 287 284 286 284 285 287 289 285 287 287 287 288 294 294 294 294 293 291 293 293 293 293 291 290 289 289 288 287 287 287 287 287 289 289 289 291 289 288 288 289 288 288 287 287 286
288 288 289 288 289 288 287 286 285 286 286 288 287 286 286 286 287 288 289 294 293 293 292 293 292 292 292 292 293 292 290 289 288 288 288 288 288 288 289 289 289 288 288 288 290 289 288 288 289 289 288 287 286 286
288 288 288 285 286 287 286 287 287 288 288 288 287 285 286 287 286 286 293 293 293 293 292 292 292 292 291 290 289 288 288 288 288 288 288 287 281 287 287 286 286 287 287 287 287 287 288 288 288 288 288 287 286 286
286 289 287 284 284 286 287 288 286 285 288 291 291 290 290 291 291 292 292 292 291 291 292 291 290 289 288 287 287 287 287 288 288 287 285 281 282 285 286 286 287 287 287 287 287 286 286 286 287 287 286 285 285 284
288 288 287 288 288 290 290 290 291 289 286 289 291 292 292 291 292 292 291 288 288 288 287 287 287 287 287 287 287 286 286 284 284 284 284 284 285 285 285 284 285 285 285 285 284 284 284 284 284 284 283 283 282 282
287 287 290 290 289 289 290 289 287 288 288 289 292 292 292 292 292 285 280 282 284 285 283 283 284 283 283 283 284 284 283 282 282 281 282 282 283 284 284 284 284 284 284 283 283 283 283 283 283 282 282 281 281 280
287 289 290 291 290 286 284 287 286 286 288 290 290 290 290 290 291 281 279 278 279 278 278 278 279 280 282 282 282 281 280 279 278 279 279 280 280 281 281 282 282 282 282 282 282 282 281 281 281 281 280 279 277 275

GFSWCAN_925_thetae_012.txt.gz
Theta_e
309 312 314 314 314 315 314 315 315 316 315 315 315 315 316 316 315 315 317 319 317 309 312 317 318 317 317 312 309 311 312 306 307 311 310 306 311 307 310 310 308 308 307 311 306 311 313 310 311 312 309 308 309 309
306 310 311 313 314 314 315 315 315 315 316 316 316 316 316 316 315 315 316 317 318 315 313 318 317 318 319 317 313 311 313 311 308 307 307 303 308 308 307 315 310 313 310 308 308 308 307 309 310 308 309 309 308 310
306 309 310 312 313 313 314 314 315 315 316 315 315 315 316 316 315 315 315 315 316 305 309 312 312 315 315 317 318 310 303 313 311 307 304 306 311 307 315 313 313 310 310 307 310 310 309 309 309 309 308 309 308 306
307 308 309 310 311 313 313 314 314 314 314 315 315 315 315 315 315 315 314 315 315 308 304 309 312 313 314 314 314 316 316 315 314 309 305 307 309 310 311 314 313 312 312 312 312 311 310 310 308 309 310 306 305 304
304 305 307 308 309 310 312 313 313 313 314 314 314 314 314 314 315 314 313 314 315 314 307 304 309 312 313 314 315 316 315 314 309 307 307 308 305 308 304 305 310 311 312 312 314 311 311 311 309 308 305 304 304 301
302 303 303 304 306 308 308 310 312 312 313 313 313 313 313 313 312 311 308 312 312 314 306 308 308 308 312 312 312 312 313 312 311 307 305 306 308 309 310 312 310 310 311 312 313 311 310 308 305 303 302 301 301 301
301 301 302 302 303 304 305 306 308 309 310 311 311 312 312 312 311 310 308 310 310 312 301 306 305 302 304 306 307 308 309 308 310 308 306 308 308 311 305 315 313 310 310 311 309 310 308 306 304 302 300 300 299 300
300 302 302 302 302 303 304 304 305 306 307 308 310 310 310 309 307 306 307 310 310 312 302 307 306 303 304 299 301 301 301 301 304 307 302 305 305 303 311 312 310 309 309 308 305 304 304 300 300 300 300 299 298 297
301 301 301 302 302 301 302 303 305 305 305 305 306 306 305 304 303 303 306 307 308 306 305 302 306 309 304 303 299 298 297 305 300 303 304 306 305 310 310 309 309 307 307 304 301 300 300 299 298 297 297 296 297 297
300 301 301 300 300 301 301 303 304 306 305 304 303 301 297 301 302 303 302 298 297 295 295 301 300 305 305 300 301 301 299 303 306 304 304 305 309 307 307 307 306 300 300 299 298 297 296 295 295 294 294 294 294 293
299 300 301 300 300 301 301 302 302 301 302 301 299 297 301 301 301 298 298 301 298 300 297 298 300 303 301 304 303 299 303 301 304 299 305 301 303 302 300 298 298 299 299 298 297 296 295 294 294 293 292 293 293 292
299 300 300 300 299 300 301 302 301 301 301 301 300 300 301 298 297 301 301 298 300 300 298 299 300 301 298 300 300 299 302 301 301 293 299 302 297 298 297 297 297 296 296 296 295 295 295 294 294 293 292 292 293 293
298 300 300 300 299 300 301 300 301 300 300 298 298 296 296 297 297 295 301 301 300 299 299 299 301 298 298 297 299 293 297 295 296 301 301 296 298 299 299 299 297 295 294 294 295 295 294 294 294 293 291 293 294 291
298 298 299 299 299 299 299 299 300 300 300 293 292 295 294 295 295 295 296 300 297 297 298 298 298 296 294 292 298 298 295 296 299 301 296 294 297 297 295 294 294 293 289 289 291 292 292 292 291 292 291 292 292 290
298 298 299 299 298 299 298 298 298 298 296 289 291 293 295 295 294 295 296 296 295 295 295 292 292 292 291 291 296 294 292 299 298 293 292 292 295 294 294 294 293 289 288 289 292 292 291 290 289 289 291 292 293 292
299 299 298 298 297 297 297 297 297 295 293 288 290 293 291 294 295 295 296 297 293 289 289 290 289 288 289 288 289 291 291 292 291 287 290 292 293 293 292 291 292 292 291 291 292 291 291 290 290 290 291 292 293 292
297 296 297 297 296 295 296 296 294 290 285 288 287 289 293 290 290 295 292 294 295 293 288 285 288 291 289 286 289 292 289 288 289 289 290 290 291 291 291 291 291 291 291 291 291 291 290 291 291 289 287 292 292 291
295 296 296 295 295 295 294 294 290 286 289 287 287 285 285 285 290 287 292 293 294 291 288 289 289 288 287 287 287 287 286 287 288 288 288 288 290 291 292 291 292 291 291 291 291 290 290 290 288 289 291 291 291 290
295 295 294 294 294 293 291 292 292 287 287 285 286 285 285 283 285 289 288 291 293 291 285 284 283 284 285 285 281 282 282 283 289 291 291 291 291 291 292 292 291 291 290 290 290 290 291 291 291 291 292 291 290 289
293 294 295 293 293 292 289 286 292 288 289 289 285 285 285 285 283 281 290 292 292 292 294 293 287 286 286 288 286 286 287 287 286 288 291 291 291 292 292 291 290 290 290 290 290 290 290 291 291 291 291 290 288 289
293 293 293 293 292 292 288 285 286 287 288 288 287 288 286 281 283 285 292 288 291 292 291 290 289 290 289 289 290 290 289 290 289 289 291 291 292 291 290 290 291 291 289 289 290 291 291 290 290 291 290 289 289 290
292 292 292 291 289 289 284 290 287 286 286 285 285 285 282 282 280 287 284 292 292 290 289 289 290 289 289 289 290 290 291 292 291 291 291 290 288 289 289 291 291 290 290 290 290 290 291 291 290 290 290 289 289 289
292 291 290 289 285 284 283 290 286 287 286 283 282 284 280 280 283 286 284 287 288 288 291 290 290 291 290 291 291 291 292 291 290 290 290 290 290 291 291 291 290 289 289 289 290 290 290 290 290 290 290 288 287 288
291 289 287 288 283 280 282 290 285 285 279 283 281 282 284 282 282 281 283 282 289 289 287 290 290 290 289 289 289 290 291 292 291 291 292 290 287 290 290 289 288 288 288 289 290 289 290 291 290 289 289 289 287 287
285 287 288 289 285 286 286 282 286 281 282 278 280 279 282 280 282 278 282 288 284 284 287 288 288 288 289 289 287 290 292 291 291 286 292 292 290 289 288 288 288 287 287 288 289 290 290 290 289 289 288 288 288 287
286 286 289 288 282 284 284 280 279 282 277 279 280 281 275 278 281 284 286 283 280 282 279 281 284 283 286 289 287 288 292 292 292 290 290 290 289 288 287 287 287 287 288 289 288 288 289 289 288 288 288 287 287 287
287 285 285 286 288 286 280 277 280 279 279 281 279 279 281 287 283 285 285 285 285 290 293 293 292 291 290 292 292 292 291 292 291 290 289 288 287 288 287 287 287 287 287 287 287 287 288 288 288 287 287 287 287 287
285 280 288 284 285 285 284 279 279 282 282 283 280 282 286 285 285 285 286 292 293 293 293 293 292 292 292 292 292 292 291 289 288 288 288 287 287 288 287 286 285 285 286 286 287 287 287 287 287 288 288 288 288 287
289 283 285 286 284 287 289 286 283 284 285 284 282 280 282 284 283 284 291 291 292 291 291 291 291 291 291 291 290 289 288 288 287 287 287 287 283 285 285 285 285 285 286 286 286 286 286 286 286 287 287 288 288 287
285 286 288 281 284 285 284 283 281 280 280 288 286 285 285 285 291 291 291 291 290 289 290 290 291 290 289 288 287 287 287 287 287 286 283 279 281 284 285 284 284 284 284 285 285 284 284 285 285 285 285 285 286 285
277 276 280 277 280 281 284 279 282 282 277 282 286 287 290 289 289 285 284 283 285 286 287 286 286 285 285 284 285 285 284 283 283 283 282 282 283 284 284 284 283 284 284 284 284 283 284 284 284 283 283 282 282 282
275 280 280 285 288 282 280 283 283 283 282 278 288 278 278 281 285 278 278 280 280 279 278 279 279 280 281 282 283 283 282 281 280 280 280 281 281 282 282 283 283 283 283 283 282 282 282 282 282 282 282 281 280 279
277 275 276 276 277 279 279 282 281 280 275 283 287 287 286 283 287 277 276 276 276 275 275 276 277 279 279 281 281 279 279 278 278 277 278 278 278 278 279 280 280 281 281 281 280 280 280 279 278 277 277 276 274 273

GFSWCAN_925_thetae_015.txt.gz
Theta_e
308 311 314 314 313 313 313 314 315 314 315 315 315 315 315 315 315 317 318 318 316 307 311 315 317 315 314 310 309 310 311 305 306 306 303 303 298 306 309 308 307 307 306 305 306 309 310 307 310 311 309 307 308 307
307 308 312 314 314 314 313 314 314 315 315 315 315 315 315 315 315 315 316 317 317 314 312 317 318 318 318 314 310 308 312 308 307 308 306 302 308 302 304 314 308 313 309 307 307 309 307 306 309 307 307 307 307 309
307 307 309 313 314 314 314 314 314 314 315 315 315 315 315 315 315 315 316 316 315 302 308 311 312 315 315 317 317 311 301 310 307 305 304 305 311 305 310 312 311 311 310 309 310 310 309 309 310 309 308 308 307 305
305 307 308 310 313 313 313 314 315 315 315 315 315 315 315 315 315 315 315 315 314 306 304 308 311 313 314 315 316 317 315 312 311 304 302 305 309 309 310 313 312 312 311 312 312 312 311 310 309 308 309 306 303 301
304 305 307 308 310 313 313 313 314 315 315 315 315 315 315 315 315 314 314 314 315 314 307 305 309 312 312 313 314 314 314 311 308 304 304 308 305 307 305 305 309 311 311 312 314 312 312 311 309 308 303 302 301 300
303 303 304 306 308 309 312 313 313 313 314 313 314 314 314 314 314 313 308 313 314 314 305 308 307 308 310 310 312 312 313 311 310 307 304 304 306 309 309 311 311 310 310 311 312 310 311 308 304 302 301 301 300 300
301 302 302 304 305 307 308 309 312 312 312 312 313 313 312 312 312 311 309 309 312 313 301 306 305 301 303 305 305 306 307 306 308 306 305 308 308 310 305 315 312 311 309 309 309 309 308 302 301 300 300 300 300 299
301 302 302 302 303 304 304 306 307 309 310 311 312 311 311 310 309 308 310 309 309 312 303 306 306 304 303 298 301 301 300 300 300 307 301 304 304 303 310 312 310 308 308 307 304 303 302 301 299 297 295 295 295 296
300 301 301 301 301 302 303 304 305 306 306 307 307 307 305 305 304 304 306 309 309 307 304 301 307 309 303 302 299 298 299 305 299 303 304 305 305 310 310 308 307 306 306 302 297 296 295 295 295 295 294 293 293 294
300 300 301 300 301 302 303 304 304 304 305 306 305 302 298 301 303 304 304 299 298 295 296 302 299 305 306 300 301 302 299 303 307 304 303 304 307 304 298 299 298 297 297 297 297 297 295 294 294 294 293 292 291 291
300 301 301 300 301 302 303 304 304 304 303 301 299 296 301 301 301 297 299 301 299 301 297 298 299 303 300 304 304 299 303 301 303 297 304 300 298 298 295 296 296 296 296 297 297 297 295 293 292 292 292 292 291 291
299 300 300 299 301 302 302 301 301 301 301 301 301 301 300 298 297 302 302 299 300 300 298 299 300 301 298 299 301 298 302 300 296 293 300 301 298 297 297 296 296 297 296 296 295 294 295 295 294 294 293 292 291 292
299 300 300 299 300 301 302 301 301 301 301 299 298 297 297 296 299 296 301 299 300 297 299 299 300 297 297 297 299 297 299 298 296 299 298 296 297 297 297 297 296 295 294 291 292 292 293 293 293 292 291 291 290 289
299 300 300 299 300 300 300 300 300 300 297 291 293 296 291 292 296 293 292 296 297 297 299 298 298 296 295 290 297 298 293 296 300 297 295 295 296 296 295 294 293 292 290 289 290 291 291 290 290 291 289 289 288 288
298 299 299 299 300 298 300 300 299 298 294 290 287 290 293 292 295 296 296 297 295 295 294 292 294 292 294 289 295 294 294 298 298 293 291 292 294 293 293 292 291 289 288 288 290 290 290 290 288 288 290 290 290 290
298 299 299 298 299 298 298 299 298 294 291 286 286 290 293 295 294 295 297 297 293 292 288 288 286 285 287 286 291 293 290 291 290 286 288 292 293 292 291 290 291 291 290 290 290 290 290 289 288 289 289 289 290 289
298 297 298 298 297 297 297 297 295 288 284 284 285 289 284 289 285 289 293 292 294 292 287 285 288 290 287 283 286 291 288 287 287 288 287 291 291 291 290 290 290 290 290 290 290 290 289 290 289 288 286 289 290 290
297 297 297 296 296 296 295 293 288 285 287 285 286 282 285 281 292 293 289 288 292 292 287 288 288 285 283 286 286 286 286 285 285 286 287 288 290 290 290 289 290 291 291 290 290 290 289 289 287 288 289 290 290 290
296 296 296 296 296 293 291 292 291 286 285 283 284 283 282 281 283 287 285 292 292 291 289 283 281 283 285 285 282 280 279 281 287 289 288 289 290 290 290 291 291 290 290 290 289 289 290 289 289 289 289 289 289 290
296 295 295 294 294 292 286 287 291 288 288 288 284 284 284 284 282 284 283 282 291 293 294 293 286 285 285 286 285 285 286 286 285 287 289 289 290 291 290 290 290 290 289 289 289 289 289 289 290 290 290 290 290 289
294 293 293 293 292 292 287 284 285 286 287 288 285 286 284 279 284 281 289 291 292 292 293 290 287 288 288 289 289 289 288 288 287 287 289 290 291 291 290 289 289 289 288 287 289 289 289 290 289 290 290 290 289 288
292 293 292 291 289 287 284 288 286 284 284 284 283 283 279 279 279 288 283 291 292 289 289 288 289 289 288 288 289 289 290 290 289 289 289 289 287 288 288 289 288 288 288 288 288 288 288 290 289 290 290 290 289 288
292 292 290 288 282 280 282 287 283 286 284 282 280 283 279 278 281 285 286 288 287 288 290 289 290 290 289 290 290 290 290 290 289 289 289 289 289 289 288 289 290 288 287 288 288 288 288 289 289 290 289 289 288 287
291 289 282 283 279 281 278 290 284 282 278 282 280 282 282 279 279 279 283 281 287 287 287 289 289 289 288 288 287 289 290 290 290 290 290 289 286 288 291 290 289 288 288 288 287 287 288 289 290 288 289 288 287 287
284 286 281 287 286 285 282 281 281 282 283 276 279 277 280 277 281 277 281 285 280 282 285 286 287 287 287 286 286 289 291 291 289 286 292 291 290 290 289 288 287 287 287 287 286 287 288 287 288 289 288 288 287 287
282 282 288 284 286 281 282 281 283 280 274 277 277 278 272 275 279 283 284 282 279 281 279 279 281 281 284 287 286 288 292 292 291 288 290 291 290 289 288 287 287 286 286 287 286 286 287 286 287 288 288 288 287 287
282 285 285 285 286 283 278 274 278 276 276 280 277 276 277 282 281 284 283 284 284 290 290 292 290 290 290 291 292 292 291 291 290 290 289 289 288 288 287 287 286 286 285 285 285 285 286 286 287 287 288 287 287 287
283 281 287 283 283 280 278 275 277 280 281 282 277 280 284 283 285 284 285 290 291 292 292 292 292 292 291 291 291 291 291 291 289 288 287 287 287 287 286 285 285 285 284 285 285 285 285 285 286 286 287 287 287 287
288 284 280 280 280 281 285 284 282 283 284 283 281 279 282 282 282 285 290 290 290 291 291 290 290 290 291 291 290 289 289 288 287 282 286 286 284 286 285 285 284 283 283 283 284 284 284 284 285 285 285 285 286 286
283 284 289 287 288 289 286 285 280 279 279 285 284 284 285 283 290 288 288 287 287 286 287 288 289 289 288 288 288 287 285 286 286 285 280 277 280 282 283 283 283 282 283 283 283 283 283 284 284 284 283 283 283 283
274 274 277 274 278 278 280 278 278 277 273 279 279 286 288 283 281 279 279 281 282 283 283 281 282 281 281 281 282 283 281 282 282 282 281 281 280 281 282 282 282 282 283 283 283 282 282 282 282 282 282 281 280 280
278 278 279 279 280 279 271 276 277 280 283 274 287 275 274 277 279 273 274 276 276 274 275 276 276 277 279 280 281 281 280 279 279 278 278 279 279 279 280 280 281 281 281 281 282 281 281 280 280 279 279 277 276 275
271 267 267 269 274 278 274 276 275 275 271 274 283 281 278 279 279 274 274 273 273 273 273 274 276 276 277 279 278 277 277 277 276 276 276 276 276 277 277 277 277 278 279 279 278 278 277 277 275 274 273 272 271 271

GFSWCAN_925_thetae_018.txt.gz
Theta_e
307 310 313 313 312 311 312 313 313 314 314 315 315 315 315 315 316 318 317 317 315 305 309 313 315 313 311 308 308 309 310 304 305 306 305 302 297 305 308 308 306 307 305 304 305 309 309 305 309 311 308 307 308 307
306 307 310 313 313 312 311 313 314 314 314 314 315 315 315 315 315 316 317 317 317 312 310 315 317 317 315 312 309 306 310 307 306 306 305 300 301 298 303 312 307 310 309 309 309 307 306 306 309 307 307 308 306 307
305 306 307 311 313 314 312 312 313 314 314 314 314 314 315 315 315 315 316 315 315 301 307 310 312 314 316 317 316 309 300 307 306 304 301 302 305 302 311 308 309 309 308 308 310 310 308 310 309 308 307 307 306 305
304 305 307 308 312 313 314 313 313 314 314 315 315 315 315 315 315 315 315 315 314 305 303 307 310 311 313 314 316 316 313 310 305 301 301 304 309 308 309 312 312 310 311 311 311 312 311 309 308 308 307 303 301 301
304 304 306 307 308 312 314 314 314 314 314 314 315 315 315 315 315 315 315 314 315 313 306 304 310 311 311 313 314 315 313 308 306 305 304 308 303 307 304 305 309 311 312 313 313 311 311 311 306 303 300 298 297 299
303 303 303 305 307 309 312 313 313 314 314 315 315 315 315 314 314 314 310 314 315 314 305 309 307 307 307 308 310 311 311 308 307 307 304 305 307 308 308 310 311 310 311 311 312 311 306 303 299 297 296 297 298 299
301 302 302 303 305 306 310 313 313 313 314 315 315 315 314 314 314 312 309 309 313 314 302 306 306 299 303 303 304 305 307 308 309 305 303 306 306 309 305 314 311 310 309 308 308 305 304 302 301 298 298 297 294 293
301 301 301 302 304 305 306 309 312 312 313 313 313 312 313 311 311 309 309 310 312 312 305 306 306 303 303 298 301 300 300 300 302 306 301 304 304 302 310 309 307 307 307 301 297 298 300 298 296 293 294 293 292 292
301 301 301 301 302 303 304 305 307 309 311 312 311 310 306 307 305 305 308 309 311 308 303 301 307 310 303 302 299 299 298 305 299 303 303 304 304 310 302 300 300 298 302 296 296 295 295 295 294 294 293 293 291 290
300 301 301 301 301 302 303 304 305 305 306 305 306 303 298 301 304 305 305 300 298 296 296 302 300 306 305 299 301 302 299 303 305 303 300 304 306 298 297 297 297 295 295 296 296 296 295 295 294 294 292 291 290 290
300 300 300 300 301 303 304 304 304 305 304 303 298 297 301 301 302 298 300 301 299 302 297 299 299 303 300 304 304 299 304 302 303 296 303 303 303 297 295 295 295 295 295 296 296 295 295 295 292 291 291 292 292 291
300 301 300 300 301 301 302 303 303 302 301 302 301 301 301 298 298 303 302 299 300 302 298 299 300 300 298 298 301 298 302 300 300 293 298 295 296 295 296 295 295 295 294 294 293 292 292 292 292 291 291 291 291 291
300 300 299 300 301 302 302 302 301 301 301 300 299 297 297 296 302 303 300 299 300 297 298 298 300 297 297 297 298 299 299 295 295 295 296 294 295 297 296 295 294 294 293 292 291 291 291 291 291 291 289 289 289 288
299 300 299 300 301 301 301 301 300 299 296 293 295 299 296 297 296 293 294 295 294 297 298 297 297 297 294 296 296 298 294 294 297 295 294 292 296 296 294 292 291 291 290 288 289 290 290 289 289 289 289 289 288 286
299 300 299 300 300 300 299 299 300 296 293 291 289 293 292 290 293 295 295 297 295 295 295 295 294 291 294 291 294 293 295 296 293 291 288 292 294 292 292 292 290 288 288 287 290 289 289 289 287 287 289 289 289 288
299 299 299 300 298 300 300 299 298 294 290 286 285 290 291 295 294 294 296 297 293 293 291 290 285 286 289 289 293 294 292 290 288 284 289 291 292 291 291 290 290 290 289 289 289 289 289 289 288 288 289 288 288 289
299 298 299 299 297 298 298 298 295 288 286 285 286 289 286 285 288 285 295 295 293 292 293 282 286 288 286 284 288 288 286 285 286 286 286 289 291 290 290 290 289 290 289 289 289 290 289 289 289 287 286 288 289 289
297 298 298 298 298 297 296 293 288 286 289 286 287 283 289 284 287 284 289 286 289 287 286 289 286 283 282 284 283 283 285 284 284 285 287 288 289 289 289 289 289 289 289 289 290 289 288 288 288 288 288 288 288 289
297 297 297 297 297 295 291 291 290 288 286 285 284 284 283 281 283 285 284 289 292 291 289 286 280 284 284 284 282 279 278 280 287 288 287 289 289 289 289 290 290 289 289 289 289 288 288 288 288 288 288 288 289 289
296 296 296 297 295 291 286 290 289 288 288 288 284 285 283 284 285 285 284 281 286 289 292 292 286 284 285 285 285 284 285 285 284 286 288 286 289 289 289 290 289 289 289 288 288 289 287 287 288 288 289 288 289 290
294 293 293 293 292 291 286 283 284 285 287 287 285 285 283 284 287 287 283 285 286 287 288 289 285 286 288 288 289 289 288 287 287 286 287 288 289 290 289 289 289 288 287 286 285 286 287 287 287 287 288 289 289 289
292 293 292 291 288 286 283 286 285 284 283 283 282 282 278 279 282 287 282 290 290 287 288 288 290 288 288 288 289 289 289 289 289 288 288 288 285 286 287 289 288 286 286 287 287 286 287 287 287 287 288 288 288 289
293 292 289 287 281 279 282 286 282 285 283 282 279 282 279 277 279 285 289 290 287 287 289 289 290 291 289 290 290 290 290 289 287 288 288 288 288 289 288 288 287 285 284 287 287 287 287 287 287 287 288 288 288 288
291 288 280 280 278 282 277 288 283 280 277 279 279 281 281 278 280 286 285 281 285 286 287 289 289 287 288 288 286 288 289 289 289 289 289 288 285 288 290 289 290 288 287 287 286 286 286 286 287 287 287 287 287 287
286 285 280 285 285 283 283 288 286 281 281 273 279 277 278 275 280 278 280 283 278 279 283 285 286 286 285 284 285 288 290 290 289 286 291 291 289 287 288 289 288 288 287 286 286 285 285 285 285 285 286 287 287 287
281 283 281 278 286 280 279 277 283 281 273 276 279 275 269 273 279 283 283 281 277 280 276 278 279 279 282 285 284 287 291 291 290 287 289 289 289 287 286 287 287 287 286 286 285 285 285 285 285 285 285 286 287 287
282 285 287 283 284 281 276 273 276 274 274 279 276 274 275 281 280 283 282 283 283 289 291 290 290 287 288 291 291 291 290 290 290 291 289 289 288 288 288 287 285 285 284 284 284 283 284 284 284 284 285 285 286 286
280 281 285 286 285 278 277 273 275 278 279 280 276 280 282 282 284 283 283 290 290 290 290 291 292 291 290 290 290 290 290 290 290 289 288 287 287 287 286 285 285 284 283 283 283 283 284 283 283 283 282 283 283 284
288 282 279 282 278 276 279 282 280 281 283 283 283 281 281 282 283 284 287 287 287 287 288 288 289 289 289 289 290 289 288 287 286 285 282 277 283 285 284 283 283 283 282 282 283 283 282 283 283 282 282 282 282 282
284 277 279 275 280 283 283 283 280 277 278 282 279 282 284 283 282 279 280 280 280 282 283 284 284 284 284 284 285 285 283 283 283 283 279 277 279 280 281 281 282 282 282 281 282 282 282 282 281 281 281 281 280 279
272 274 278 276 278 277 277 274 277 275 270 274 275 282 286 280 276 274 274 274 275 276 276 275 276 277 277 277 278 279 280 279 279 279 279 279 278 278 279 279 279 280 280 280 280 281 280 280 279 279 277 276 275 275
280 275 276 277 278 274 267 271 270 271 273 271 282 272 271 274 275 274 272 272 272 272 272 272 273 273 275 276 277 277 277 276 276 276 276 276 276 276 277 277 277 277 278 279 278 278 278 277 276 274 273 271 270 270
266 265 263 267 272 275 269 272 271 271 268 267 268 267 267 272 272 272 271 271 271 270 270 271 272 274 275 275 275 275 275 275 275 275 275 275 275 274 274 274 275 275 276 276 276 275 275 274 272 271 270 269 268 267

GFSWCAN_925_thetae_021.txt.gz
Theta_e
307 311 313 312 312 311 311 311 312 313 313 314 314 314 315 314 317 317 316 315 313 305 309 312 312 311 311 310 313 310 312 308 307 310 313 310 309 310 311 309 308 310 310 309 308 312 314 306 309 312 312 309 310 309
305 307 311 313 312 311 311 311 312 313 314 314 314 314 315 315 315 316 317 316 316 311 310 314 316 315 313 311 310 307 311 309 309 308 306 304 308 302 306 316 306 313 311 313 311 313 308 306 309 309 308 308 307 307
304 305 306 311 312 312 311 311 313 313 313 314 314 314 315 315 315 315 315 315 314 301 307 310 312 313 316 316 314 313 304 308 307 305 305 305 311 306 313 309 311 309 307 311 310 312 311 310 311 309 307 304 302 301
305 304 305 308 311 312 312 311 312 313 314 314 314 314 314 315 315 315 315 314 313 304 304 309 309 310 313 314 316 315 311 307 303 303 302 305 310 309 309 313 312 312 311 312 312 312 312 310 309 305 301 299 298 297
304 303 304 307 308 311 313 313 312 312 314 314 314 314 315 315 315 315 315 314 314 312 306 305 308 309 310 312 314 314 311 308 308 305 304 309 305 308 307 307 310 311 313 313 314 312 313 308 303 300 298 297 297 298
302 302 303 306 307 308 311 313 313 313 313 314 314 314 315 315 314 315 310 314 314 314 304 306 305 305 306 308 310 310 310 308 308 307 305 306 308 309 309 310 310 310 311 311 313 310 305 302 299 298 297 298 296 296
301 301 301 304 305 307 309 312 313 313 313 313 314 314 315 315 314 313 312 310 313 314 303 308 306 300 302 303 303 304 307 310 310 306 304 306 306 309 305 312 311 308 306 302 303 304 303 301 300 298 295 294 294 293
301 301 301 303 304 304 306 310 312 313 314 314 314 314 314 313 313 311 311 311 313 312 304 306 307 303 302 301 303 300 302 302 303 306 301 305 304 303 310 305 300 301 297 296 296 297 297 296 295 296 295 295 294 294
301 301 301 302 302 303 303 305 309 312 313 313 313 312 308 309 306 307 310 312 311 308 304 302 308 310 302 302 300 300 300 305 300 303 303 305 305 309 301 299 298 298 299 296 296 296 296 295 295 295 295 294 294 294
300 301 301 301 302 302 303 304 304 308 312 311 309 305 299 301 304 306 305 301 298 296 296 303 300 307 306 300 301 303 299 304 307 304 301 304 306 297 297 297 296 296 297 297 296 295 295 294 294 294 293 292 292 292
300 300 300 300 301 302 302 302 303 303 305 305 298 297 300 302 302 298 301 302 299 301 297 299 299 304 300 305 305 300 304 302 305 300 305 306 305 298 296 296 295 295 295 296 296 295 294 293 292 292 292 291 291 290
300 300 300 300 301 303 303 302 303 303 302 302 300 300 300 298 298 301 302 299 301 304 299 300 300 300 298 299 302 299 304 301 303 296 301 301 298 297 296 296 295 294 294 293 292 291 291 290 291 290 290 290 289 289
299 300 300 301 301 301 302 302 303 303 302 302 299 296 297 296 304 304 304 300 301 298 298 299 300 297 297 297 299 301 301 300 295 297 299 297 296 297 297 296 293 292 292 290 291 290 290 290 291 290 288 289 288 287
299 300 299 301 301 301 302 301 300 298 297 295 300 301 299 300 297 296 296 297 296 297 298 298 297 298 294 298 296 299 296 295 299 297 297 296 297 297 295 292 292 292 289 288 289 290 290 289 289 289 288 288 287 286
299 299 300 300 300 300 300 299 298 294 293 291 293 297 295 293 294 295 296 297 295 295 296 296 294 293 294 295 295 295 297 297 297 296 294 296 294 293 292 292 292 289 288 287 290 289 289 289 288 287 289 289 287 287
299 299 299 300 299 299 299 300 300 294 289 289 289 292 292 295 295 296 297 297 294 293 292 291 290 294 294 293 295 296 295 294 293 290 291 292 292 292 291 291 290 290 289 289 289 289 289 289 288 288 288 287 288 288
299 299 299 299 299 299 299 298 295 288 289 288 289 288 288 288 293 291 295 295 293 295 293 289 290 292 288 290 292 292 291 291 290 290 289 290 291 291 290 289 289 289 289 289 289 289 289 289 288 287 286 288 288 287
298 298 299 298 298 298 296 293 288 289 290 288 289 289 290 289 286 285 290 290 294 290 289 291 288 287 289 290 289 287 288 288 287 288 290 290 290 290 289 289 289 289 289 289 289 289 288 288 287 288 288 288 287 287
298 298 298 298 298 296 291 291 289 289 287 287 286 285 285 286 284 285 287 288 291 290 287 286 285 289 288 287 287 285 284 286 289 290 289 289 289 288 288 289 289 288 289 289 289 288 288 288 287 287 287 287 287 287
298 298 297 297 296 292 288 290 289 288 289 289 286 287 286 287 287 287 288 288 292 290 293 292 290 288 288 287 287 287 287 286 286 288 289 288 288 288 288 289 289 289 288 289 288 287 287 287 287 287 287 286 287 288
295 294 295 295 292 291 286 284 285 286 287 288 286 286 285 287 288 289 287 286 293 293 293 290 289 289 288 288 288 289 287 288 288 288 289 289 288 288 288 288 288 288 287 286 285 286 285 286 287 287 287 286 287 288
292 293 292 291 287 286 284 285 286 284 284 284 283 282 279 280 285 287 287 291 291 290 289 288 289 289 289 289 289 289 289 289 288 288 288 287 287 287 287 287 287 287 286 286 286 286 286 286 286 286 286 287 288 287
292 292 289 287 283 281 285 284 283 284 284 282 279 283 280 278 280 285 288 289 288 287 289 288 289 290 289 290 289 289 289 288 287 287 287 287 287 288 287 288 287 285 284 286 287 286 285 285 285 285 286 287 286 286
292 287 281 279 278 282 277 280 283 281 278 279 280 282 282 280 283 286 287 284 285 285 287 289 289 288 288 288 287 288 289 288 288 288 289 287 286 287 289 288 287 288 288 288 287 286 286 285 284 284 284 284 285 285
287 284 280 285 284 281 278 287 287 287 281 278 283 281 278 278 280 284 285 284 282 282 284 284 285 286 286 286 285 287 288 288 288 287 290 289 288 287 287 287 287 288 288 287 286 285 285 284 284 284 285 285 285 285
281 284 281 276 284 280 280 282 283 284 281 278 281 275 270 275 280 284 284 283 281 282 280 281 283 282 283 285 285 286 291 290 289 286 289 289 289 287 285 286 287 286 286 285 284 284 284 284 284 284 284 284 283 283
284 286 286 282 283 279 275 273 276 274 280 280 276 274 275 282 281 284 283 283 284 288 289 289 289 287 287 289 289 289 289 289 289 289 289 288 289 288 287 286 286 285 284 283 283 282 282 283 282 282 282 282 282 282
278 283 284 286 283 278 276 272 276 281 279 279 277 280 282 282 284 284 283 283 284 286 287 288 287 286 286 287 288 288 289 289 289 288 288 287 287 285 284 284 284 284 283 283 282 282 282 282 282 282 280 280 280 280
287 280 281 285 283 283 278 281 280 280 282 281 281 279 281 282 277 276 277 277 279 280 281 281 282 283 285 285 286 285 285 285 285 286 285 285 281 282 281 282 282 282 282 282 282 282 281 281 281 281 280 279 279 278
286 283 281 281 280 281 282 280 278 275 278 281 279 280 281 275 272 272 273 273 273 273 274 274 275 275 277 277 277 279 279 279 279 279 281 280 278 277 278 279 279 279 280 280 280 280 280 280 280 279 278 277 275 274
277 278 280 278 277 276 274 270 274 272 268 272 270 279 280 273 273 271 271 271 271 271 271 271 271 272 273 273 274 275 277 275 275 276 276 276 276 276 276 277 277 277 277 278 277 278 278 277 276 274 273 271 270 270
281 282 277 282 277 270 265 268 266 271 267 269 271 266 269 272 271 271 269 269 269 269 269 269 270 271 272 274 273 273 273 273 273 273 274 274 274 274 274 274 275 275 276 276 276 275 275 274 272 271 270 269 268 268
264 270 270 267 272 273 268 271 270 272 269 268 267 271 265 268 268 269 269 269 268 268 267 268 271 271 272 271 271 271 271 271 272 272 272 272 272 272 272 272 273 273 274 274 274 273 272 271 269 268 267 266 266 265

GFSWCAN_925_thetae_024.txt.gz
Theta_e
309 312 313 313 312 311 310 311 312 312 313 314 314 314 314 316 317 316 315 314 317 318 317 317 316 318 317 320 325 319 321 319 315 319 320 317 318 319 316 315 315 318 319 317 315 316 318 311 312 316 315 314 313 313
306 309 313 313 312 311 310 311 311 312 313 314 314 314 315 314 316 316 319 315 314 319 318 315 317 315 317 316 319 318 320 319 321 320 314 313 318 311 320 320 313 316 315 316 315 317 314 313 312 312 314 314 311 305
304 305 307 312 312 312 311 310 311 312 313 314 314 314 315 315 315 315 315 315 314 315 316 318 319 315 316 316 315 321 317 316 317 315 317 313 315 316 316 317 317 315 313 316 315 314 314 314 314 310 309 305 303 301
304 304 305 308 311 311 311 310 311 312 313 313 314 314 314 315 315 315 315 314 313 309 310 317 310 312 312 315 317 316 315 311 312 313 307 311 319 316 319 317 316 315 314 315 315 314 314 313 311 305 301 300 299 298
303 303 304 306 308 311 311 311 311 312 313 313 314 314 314 315 315 315 315 314 314 318 317 316 312 309 309 313 316 315 315 316 312 311 313 318 317 314 312 311 313 314 315 316 316 314 313 309 302 300 299 298 297 297
302 301 303 305 306 307 311 311 311 311 313 314 314 314 314 315 315 315 318 314 314 313 314 317 311 309 308 311 314 315 315 316 314 316 311 315 313 316 310 314 313 313 313 314 313 310 306 301 299 297 297 297 297 297
301 300 301 304 305 306 308 311 312 311 312 313 314 314 314 314 314 315 315 312 314 313 309 312 311 307 304 308 308 311 310 314 316 314 310 314 313 313 307 312 311 306 304 304 307 304 302 301 299 298 297 297 296 295
301 301 301 302 304 304 305 309 312 312 312 313 313 314 314 314 314 313 311 312 314 311 308 309 310 310 305 308 308 304 308 306 307 311 303 309 308 307 311 309 304 302 299 299 300 303 302 298 298 298 296 295 295 295
300 301 301 301 302 303 303 306 309 312 313 313 313 313 311 310 308 309 311 313 313 310 309 307 314 314 305 305 304 305 305 310 304 306 305 306 307 312 308 303 301 300 302 301 299 299 297 296 295 295 294 294 294 294
300 299 300 301 301 302 302 303 306 310 312 312 310 308 300 303 306 308 308 303 300 297 297 304 304 310 309 305 307 309 305 309 310 306 303 305 307 299 300 300 301 299 299 299 299 295 294 295 294 294 294 293 293 293
299 299 299 300 301 302 301 303 305 305 306 306 299 297 300 302 302 299 302 304 301 303 299 300 301 305 302 308 306 302 305 305 309 307 308 308 308 302 300 298 297 296 296 295 295 294 294 294 294 294 294 293 292 292
299 299 299 300 301 302 301 303 302 302 301 301 300 300 300 299 298 302 303 300 303 307 300 302 301 301 298 300 303 300 306 304 308 302 304 307 305 301 298 296 296 296 294 294 293 293 293 293 293 293 292 292 292 291
298 300 300 300 301 302 300 302 301 300 301 299 295 295 297 297 305 307 307 306 305 302 302 301 301 299 298 300 301 304 307 307 299 302 305 304 301 299 298 296 296 294 293 292 292 292 293 293 292 291 291 290 289 290
298 300 299 300 301 301 302 302 301 301 300 296 298 302 303 304 304 304 304 304 300 301 301 301 300 302 299 302 302 305 300 300 303 303 304 301 301 300 298 296 295 295 292 291 291 292 292 291 290 290 289 289 288 288
298 299 299 300 300 301 299 298 297 293 294 297 300 302 301 296 298 298 298 300 298 299 301 300 300 301 300 300 300 300 301 302 303 303 302 301 300 298 296 295 295 295 292 291 292 292 291 290 290 290 290 290 289 288
297 299 299 299 299 300 299 298 298 295 290 295 295 297 295 299 299 299 299 298 296 295 295 298 299 302 300 300 300 302 301 302 301 300 301 299 296 295 294 293 292 291 291 291 292 292 291 290 290 290 289 289 288 288
297 299 299 298 297 298 297 296 294 292 294 296 295 294 295 298 300 298 299 299 294 298 301 297 299 300 295 299 300 298 300 299 299 299 296 295 295 294 293 292 291 291 291 291 292 292 291 291 289 288 290 291 289 288
298 299 299 299 299 298 296 293 293 295 294 293 296 295 293 294 295 295 294 295 297 296 295 296 293 295 297 298 298 297 296 296 295 294 294 294 293 293 292 292 291 291 292 291 291 291 290 289 290 292 291 291 289 289
296 298 298 298 298 296 294 294 292 294 292 292 291 291 292 292 289 290 292 292 293 293 294 294 296 296 295 294 297 297 295 295 296 294 294 293 292 292 291 291 290 291 291 291 291 292 292 291 290 290 290 290 288 287
297 297 297 297 296 293 293 293 290 293 294 293 291 293 292 292 289 291 292 294 295 297 297 297 297 296 296 295 293 295 294 293 293 294 294 293 291 291 291 291 292 292 291 291 291 291 290 291 291 290 289 288 287 288
296 292 294 294 291 290 291 291 292 292 292 293 290 292 291 290 291 292 293 292 295 296 295 296 297 296 293 292 291 292 292 292 293 293 293 293 292 291 291 291 291 291 291 292 292 291 290 290 290 288 287 287 287 287
292 293 292 291 290 289 290 287 291 289 292 291 292 291 293 294 292 291 290 293 294 294 294 295 294 294 294 293 293 292 292 292 291 291 290 290 291 292 292 292 292 292 292 291 291 290 290 289 288 286 285 285 285 286
293 292 289 287 290 291 290 287 291 290 293 292 290 293 293 292 289 287 290 291 292 292 292 292 292 292 292 292 291 291 291 290 291 291 291 291 291 291 291 291 291 291 291 290 290 289 289 288 286 285 285 285 285 285
291 287 288 288 290 289 287 290 289 290 290 291 292 291 290 290 287 288 290 291 292 290 291 291 291 292 291 290 291 291 291 290 291 291 291 291 292 292 292 291 291 290 289 289 289 288 287 286 286 285 285 285 286 286
292 288 288 288 287 287 289 290 289 290 290 288 290 291 289 286 290 290 291 292 292 293 293 290 290 291 292 293 292 291 290 289 290 292 292 291 290 290 291 291 290 289 288 288 288 287 286 285 285 285 285 285 285 284
289 287 289 288 288 289 288 289 289 288 288 288 289 285 285 290 291 292 291 293 293 292 292 293 293 292 291 290 291 291 292 289 289 290 291 290 290 290 291 291 290 288 287 286 285 285 285 284 284 284 284 283 283 282
288 288 287 285 287 285 286 284 284 287 287 289 290 287 289 291 292 291 289 285 288 285 285 286 286 287 288 288 288 288 288 288 288 289 289 287 288 288 287 288 287 286 284 284 283 284 284 283 283 283 283 283 282 282
287 288 288 287 287 286 287 287 288 288 290 288 288 289 291 291 291 287 283 278 279 281 282 282 283 281 282 284 283 284 284 284 285 286 286 285 285 283 283 282 282 283 283 283 282 282 282 282 282 282 282 282 281 280
289 286 287 286 286 287 288 290 290 289 288 288 291 291 290 284 276 276 276 275 276 277 277 277 277 277 278 278 279 280 278 278 280 284 286 287 288 281 279 279 279 280 280 280 280 280 280 280 280 279 279 278 277 276
288 287 287 287 287 289 291 289 291 287 286 288 288 288 285 276 273 273 273 273 273 273 273 273 273 274 275 275 276 277 276 275 275 276 279 280 277 275 275 275 276 277 278 277 279 279 278 278 278 277 275 274 274 273
285 287 288 288 289 289 286 279 280 280 283 286 283 287 286 276 273 271 271 271 271 271 271 272 272 273 273 274 274 274 275 273 272 272 272 273 273 273 273 274 274 275 274 275 275 276 275 275 275 274 273 271 270 270
285 287 287 287 288 283 280 282 284 284 284 283 284 281 279 278 275 272 269 270 270 270 269 270 270 271 271 271 271 270 270 270 269 269 270 270 271 271 272 272 273 273 273 273 273 272 272 272 271 271 270 269 267 266
279 280 280 282 285 285 282 280 283 283 283 282 280 278 275 276 273 271 269 268 268 268 268 268 268 268 270 270 269 269 269 268 269 269 269 269 269 270 270 271 271 271 271 271 270 270 269 268 268 267 266 265 264 263

GFSWCAN_925_thetae_027.txt.gz
Theta_e
313 313 313 313 312 311 310 310 311 311 313 313 314 314 314 316 316 321 320 314 323 324 321 320 319 322 322 323 328 324 324 324 324 319 320 323 322 321 319 316 319 319 319 318 318 320 319 314 314 318 317 316 315 313
311 313 313 313 312 311 310 311 311 312 313 314 314 314 314 315 316 319 320 314 319 321 323 320 320 319 320 320 322 323 322 323 323 325 319 320 325 320 321 321 316 318 318 319 318 319 317 315 315 315 315 314 310 305
306 309 313 313 312 311 310 311 311 312 313 314 314 314 315 315 314 318 320 319 319 322 320 321 322 318 319 320 319 324 323 320 322 322 323 318 317 320 318 321 318 317 316 320 318 315 314 315 315 312 310 308 305 304
304 305 309 312 312 311 311 310 311 312 313 314 314 314 314 315 315 318 319 318 318 315 317 322 313 317 315 318 320 320 319 318 319 319 312 315 317 319 321 319 319 318 316 316 317 316 315 312 309 306 304 302 301 300
303 304 305 308 310 311 311 310 311 312 312 313 314 314 314 314 315 318 318 317 317 321 321 321 315 313 313 316 319 319 318 320 320 314 312 317 321 320 318 318 318 316 316 319 318 314 315 310 305 302 301 301 300 300
301 302 304 306 306 309 311 311 310 312 313 313 314 314 314 315 316 318 319 318 316 319 319 321 316 313 313 314 318 318 319 319 319 319 314 319 317 317 314 317 314 314 314 313 315 308 305 303 301 299 301 300 300 299
300 301 303 304 305 306 309 311 311 311 312 313 314 314 314 314 317 317 317 316 315 317 316 315 317 312 310 314 314 316 314 316 317 318 317 317 317 315 317 316 313 312 309 308 307 305 302 300 303 301 300 300 298 296
301 301 302 303 303 303 306 308 311 311 311 313 314 314 314 314 314 315 312 314 314 315 314 309 314 313 309 313 312 309 313 312 315 316 310 314 315 315 315 313 313 309 304 304 305 306 306 304 301 301 298 297 297 296
300 301 301 301 302 302 303 305 308 311 311 311 313 313 312 312 311 314 312 313 313 314 311 307 311 313 309 309 308 308 310 313 308 308 308 311 311 314 314 311 307 304 303 304 303 302 300 298 297 297 296 296 296 295
299 299 299 300 301 302 302 303 306 309 311 311 311 309 301 305 309 310 311 307 305 307 305 310 313 313 311 308 309 308 309 313 312 309 305 305 308 303 305 305 304 303 303 302 302 299 297 297 296 296 296 295 294 294
298 299 299 300 301 302 302 303 305 306 306 307 300 298 301 303 304 301 303 307 303 305 302 307 310 311 306 311 310 307 308 307 312 310 310 312 311 308 303 302 301 301 300 297 297 297 296 295 295 295 295 294 293 293
298 299 300 300 302 301 302 303 303 304 302 301 301 301 301 299 299 307 306 302 304 310 301 302 302 303 301 303 303 300 307 306 312 307 307 308 309 305 303 301 300 298 297 296 295 295 294 294 294 294 294 293 293 292
298 299 300 300 301 301 301 301 301 300 301 300 296 296 298 297 305 307 308 309 307 302 301 300 301 299 298 300 300 303 308 310 304 305 307 308 305 303 302 300 299 298 296 293 294 293 293 293 293 293 293 292 292 291
298 300 299 300 301 301 301 301 301 300 299 296 298 303 303 305 305 306 309 307 302 302 302 300 300 301 299 302 303 308 304 304 306 306 307 305 303 302 301 299 298 297 295 293 293 293 293 293 293 292 291 291 291 290
297 299 299 300 299 300 300 299 298 297 296 298 299 304 303 299 299 299 298 301 299 300 302 303 303 305 304 303 305 303 304 306 305 307 306 304 302 301 300 298 297 296 295 293 293 293 293 292 292 292 292 292 292 291
297 299 299 299 299 298 298 298 298 295 293 298 298 300 299 301 300 299 299 299 298 300 300 302 304 305 304 304 303 305 306 305 306 304 303 302 301 299 298 296 294 293 293 292 292 292 293 293 292 293 292 291 290 291
297 299 299 299 299 298 298 297 294 295 297 301 298 298 298 300 300 299 300 299 296 300 303 302 304 303 299 303 303 302 304 303 302 302 301 299 297 296 294 294 293 293 293 293 293 293 293 293 292 292 292 293 293 292
297 298 299 298 297 296 295 294 296 298 297 296 300 298 296 297 299 298 297 296 298 297 299 299 297 299 301 302 302 302 300 300 300 299 296 295 295 295 294 294 293 293 293 293 293 293 292 292 293 293 292 292 292 292
297 298 298 297 298 297 298 296 296 298 296 295 294 294 295 294 293 294 295 296 295 296 297 298 299 299 298 297 299 300 299 298 297 296 296 295 294 294 293 293 292 292 292 293 293 293 293 293 292 292 292 292 291 290
296 296 296 297 298 296 299 297 295 297 298 296 296 296 295 294 292 293 295 297 297 299 300 299 299 299 298 297 296 297 296 296 296 296 296 295 294 293 293 293 293 293 293 293 293 293 293 293 293 292 292 290 288 289
295 294 295 297 292 293 295 295 296 295 295 296 295 296 294 293 294 294 295 295 299 298 297 297 299 298 297 296 294 295 295 295 295 295 295 295 294 293 293 293 293 293 293 294 295 294 294 294 293 291 289 288 287 286
292 292 292 292 291 291 293 291 295 293 296 295 295 296 296 295 294 293 292 295 296 296 296 297 296 296 296 296 295 294 294 294 293 293 293 293 294 294 294 294 294 294 294 294 294 294 293 292 291 289 288 287 286 286
292 292 290 291 295 296 292 291 294 293 296 295 295 296 295 295 292 290 293 294 295 295 295 294 294 294 294 294 293 293 293 293 293 293 293 293 293 293 294 294 293 294 294 293 293 292 291 290 289 288 287 286 286 286
291 289 292 292 294 292 292 293 292 293 294 295 295 295 294 294 289 291 294 295 295 294 293 293 293 294 293 293 293 293 292 292 292 292 293 293 294 293 293 293 292 293 292 291 290 289 289 288 287 287 286 286 286 286
293 290 292 291 290 292 293 293 292 294 294 293 294 294 292 291 293 293 294 294 296 295 293 293 293 293 293 293 293 292 292 292 292 293 292 293 293 293 293 292 292 292 291 290 289 289 287 286 286 286 286 286 285 284
292 289 292 292 291 293 293 293 292 293 293 292 293 291 291 293 294 294 293 294 292 291 289 290 291 292 292 292 292 291 291 290 290 291 291 291 291 292 292 292 292 292 290 289 287 287 286 285 285 285 285 285 285 284
292 291 289 288 290 290 291 290 291 292 292 292 293 292 293 293 294 293 290 283 286 284 284 285 285 286 286 286 285 284 284 284 284 285 285 285 286 287 288 288 289 288 286 285 285 285 285 284 284 284 284 283 284 283
291 290 291 290 290 291 291 292 292 292 293 292 293 292 293 293 294 286 283 280 280 281 282 282 281 280 281 281 280 281 281 280 280 281 283 285 286 281 280 280 281 281 282 283 283 283 283 283 283 283 283 282 282 281
291 290 290 289 290 291 292 293 293 293 292 292 294 294 293 284 279 279 278 278 278 279 279 278 278 277 278 278 279 279 278 277 277 278 279 281 280 278 277 277 277 278 278 279 280 281 280 280 280 280 280 279 279 278
289 289 291 290 290 292 293 293 293 291 290 292 292 289 284 279 275 275 276 276 276 276 276 276 276 276 276 276 276 277 277 275 274 274 275 276 275 275 275 274 274 274 275 276 278 279 279 278 279 279 278 277 276 276
288 289 291 291 292 291 288 286 286 287 288 290 288 290 285 279 275 273 273 274 274 274 274 274 274 275 274 274 274 274 274 274 272 272 271 271 271 272 271 271 272 272 273 274 275 276 276 277 277 277 275 274 272 272
289 289 290 291 291 288 287 288 289 290 290 288 288 284 282 281 280 275 272 272 273 273 271 271 272 272 271 272 272 272 271 271 271 270 269 268 268 268 268 268 269 270 271 272 274 274 274 274 274 274 273 271 269 269
286 286 286 287 288 289 287 286 287 287 287 286 284 282 280 281 278 274 271 271 271 270 270 270 270 270 271 270 270 271 270 270 269 269 268 267 266 266 266 266 268 269 268 270 271 271 271 271 271 270 268 267 266 265

GFSWCAN_925_thetae_030.txt.gz
Theta_e
312 312 312 311 311 311 310 310 310 311 312 313 313 314 315 316 318 324 319 317 327 326 323 323 322 325 324 327 331 325 326 327 328 317 318 323 323 326 322 318 319 317 318 317 318 319 319 315 316 318 318 317 314 312
312 312 312 312 311 311 310 310 311 312 313 313 314 314 314 315 316 322 322 318 322 325 325 323 321 321 322 322 324 326 323 325 325 324 320 323 323 319 321 325 315 321 322 323 320 319 318 317 317 315 314 312 310 308
312 313 313 312 311 311 310 310 311 312 313 313 314 314 314 314 315 321 322 321 321 327 322 322 323 320 320 321 322 326 329 321 323 324 321 317 313 321 317 323 319 316 316 324 320 317 316 316 314 311 309 308 306 305
307 310 312 312 311 311 310 310 311 312 313 314 314 314 314 315 315 321 321 321 320 317 312 324 316 319 317 320 321 322 322 322 322 320 312 312 314 320 324 321 322 321 318 318 318 317 316 313 310 307 305 304 303 301
305 306 309 311 312 311 310 310 311 312 313 314 314 314 314 315 318 321 320 320 320 323 319 323 317 316 316 318 320 320 320 321 321 313 310 315 323 324 323 320 321 317 316 319 320 317 316 313 306 304 305 303 302 301
304 305 305 307 311 311 311 310 310 311 312 313 314 314 314 315 318 320 321 320 318 321 318 316 317 316 315 316 319 320 319 321 323 318 315 320 318 322 317 318 314 313 313 315 316 312 311 306 304 304 303 302 301 300
302 304 304 305 306 309 311 310 310 311 312 313 313 314 314 314 318 317 317 316 316 318 314 311 320 314 312 316 317 317 316 318 320 320 318 318 320 317 312 316 313 313 313 312 309 307 305 303 306 303 302 301 299 297
301 301 302 303 304 305 307 310 310 311 312 313 313 314 314 314 314 316 313 314 317 317 316 309 315 314 311 316 315 311 313 314 316 317 312 314 318 314 316 314 313 313 309 309 308 307 307 305 304 302 300 297 297 297
300 301 301 301 302 303 304 306 310 311 311 312 313 314 314 313 315 316 313 314 314 317 309 307 312 314 312 310 309 309 312 310 309 310 310 313 311 314 314 313 314 308 307 306 305 304 303 301 299 298 297 297 296 296
299 299 300 301 302 302 302 304 307 310 311 311 311 310 302 308 311 312 314 313 310 308 306 308 314 314 312 309 308 308 308 311 311 309 306 306 309 311 310 309 309 306 305 305 304 301 299 298 297 297 296 296 296 295
299 299 300 301 302 302 303 304 305 307 308 309 301 298 302 305 308 304 308 308 306 308 305 309 314 311 309 310 309 308 307 308 312 311 311 310 310 310 307 305 305 304 304 302 300 298 297 297 296 296 296 296 294 294
299 300 300 302 301 302 302 304 304 304 303 303 302 302 302 299 299 308 307 303 304 311 302 304 304 308 304 308 306 302 308 306 313 308 309 310 309 306 304 303 303 302 299 298 297 296 296 295 295 295 295 294 294 293
299 299 300 301 301 301 302 303 303 302 302 301 298 299 300 297 304 308 309 307 308 301 301 300 301 300 299 301 301 302 307 309 305 308 308 309 307 305 303 302 301 299 295 295 295 295 294 293 293 292 293 292 292 292
298 299 300 301 301 301 301 301 301 301 301 296 298 303 303 305 305 304 305 304 302 302 300 300 300 302 298 301 301 307 304 306 308 308 308 307 305 304 302 301 300 299 293 294 295 294 294 293 293 293 292 292 292 291
297 299 300 300 301 300 300 300 300 299 297 298 299 304 303 299 299 298 297 299 298 299 300 300 300 301 302 303 303 304 305 307 308 309 307 305 304 302 301 299 298 297 294 294 295 294 293 292 293 293 292 293 293 293
297 299 299 299 299 299 298 299 299 297 296 298 298 301 299 301 300 298 298 298 297 298 299 302 302 304 304 305 305 307 308 308 308 306 305 303 302 301 300 297 295 294 294 294 293 293 293 293 293 293 294 293 292 292
298 299 299 299 299 299 299 298 295 295 298 298 300 297 300 299 299 298 298 297 297 299 302 303 305 302 301 304 304 305 306 305 305 304 301 300 299 299 296 295 294 294 294 294 294 293 293 293 293 293 293 293 293 293
298 299 299 298 297 297 296 297 298 299 298 299 301 299 298 299 299 298 299 298 300 299 301 300 299 301 303 303 303 304 303 302 302 302 300 297 296 295 295 296 295 294 294 293 293 293 293 293 293 293 294 293 293 293
298 298 298 296 298 298 298 297 299 299 298 297 296 296 296 296 294 295 296 296 296 297 299 299 300 300 301 300 303 304 304 302 300 298 297 296 296 295 294 294 293 293 293 293 293 293 294 294 294 294 293 293 293 291
296 297 296 297 298 296 297 298 297 298 299 298 297 297 296 295 293 294 295 298 299 300 301 300 300 302 302 300 298 299 299 299 298 298 297 296 295 295 295 294 294 294 294 294 294 294 294 294 294 293 293 292 290 289
295 293 295 295 293 293 295 297 297 297 297 298 297 297 294 294 294 296 297 297 297 299 298 299 302 301 298 297 296 296 296 295 296 297 296 296 295 294 294 294 294 294 294 294 295 294 294 293 293 293 291 290 289 288
293 292 292 292 292 293 295 294 296 296 297 296 296 297 295 296 295 294 294 297 297 297 297 299 298 298 297 297 296 295 295 294 294 294 294 294 295 295 295 295 295 295 295 294 293 293 293 293 292 291 290 289 288 287
293 292 291 291 294 295 293 293 296 296 296 296 297 296 295 295 293 291 294 295 296 296 296 296 295 294 295 295 294 293 293 293 294 294 294 294 294 294 295 294 294 294 293 293 293 293 291 290 289 289 288 287 287 287
292 290 293 295 296 293 293 294 294 295 296 296 297 296 295 294 291 293 296 296 296 295 294 294 294 295 295 294 294 294 293 293 293 293 293 293 293 293 293 293 293 293 292 292 292 292 290 289 289 288 287 287 286 287
294 292 293 292 292 294 294 294 294 295 295 295 295 295 294 292 294 294 295 296 292 291 291 292 294 294 295 295 294 293 290 289 290 290 290 290 291 290 290 290 290 290 290 291 291 290 289 288 287 286 286 285 286 286
294 292 294 294 293 295 295 294 294 295 294 295 295 293 293 294 294 295 295 292 288 286 286 287 288 290 291 288 288 287 285 283 283 284 284 284 284 285 286 287 288 287 284 284 288 289 288 287 286 286 285 285 285 285
293 292 291 290 292 292 293 293 294 294 294 294 294 293 293 294 294 293 288 284 285 283 284 284 284 284 284 283 282 281 281 280 280 280 281 282 282 280 280 280 281 280 280 281 283 284 285 285 285 284 284 284 284 283
291 292 291 291 292 293 293 293 293 294 294 294 294 293 294 294 293 286 283 281 281 281 282 282 280 279 280 279 280 280 279 277 277 278 279 282 280 278 276 276 276 276 277 278 279 280 281 282 282 282 283 282 281 280
292 292 291 291 292 293 293 294 294 293 293 294 295 294 292 284 281 281 279 279 279 280 279 279 278 278 278 278 278 279 277 275 274 275 275 277 276 275 274 274 274 274 274 275 276 277 278 279 279 279 279 279 278 278
291 291 292 291 292 294 293 293 294 291 292 292 292 288 284 279 277 277 278 277 277 277 277 277 277 277 276 276 276 275 276 274 273 273 273 273 272 271 272 271 271 271 272 273 274 275 277 277 278 279 277 276 275 275
289 291 292 293 293 291 289 287 287 288 289 291 289 289 283 278 276 275 275 276 276 275 275 275 275 275 274 273 274 274 274 273 272 272 270 270 270 269 269 268 268 269 270 270 272 273 275 275 276 276 275 273 272 271
289 290 291 292 292 289 288 289 290 290 291 289 289 284 283 283 281 276 273 274 275 274 272 273 272 272 272 272 272 271 272 271 271 270 270 269 268 267 267 266 267 267 267 268 270 272 273 272 273 271 272 270 269 268
288 288 288 289 290 290 289 288 288 288 288 288 287 284 282 282 280 275 273 272 272 272 271 270 270 270 271 271 269 270 269 269 268 269 269 268 267 266 265 265 266 265 265 267 269 270 269 269 268 268 267 266 265 264

GFSWCAN_925_thetae_033.txt.gz
Theta_e
312 312 310 310 309 309 309 309 310 311 312 313 313 314 316 317 323 321 316 324 324 318 321 322 322 324 325 323 317 320 315 314 310 311 306 310 314 313 315 317 312 309 308 312 312 311 310 314 315 312 311 312 310 308
312 312 310 310 310 310 310 309 310 311 313 313 313 313 314 315 320 322 316 321 322 321 321 321 319 321 321 322 320 319 316 321 317 312 311 310 314 312 312 313 315 315 313 311 311 310 310 314 313 311 310 308 308 307
312 312 311 311 311 310 310 310 310 312 313 313 314 314 314 314 320 321 319 322 321 314 318 319 319 319 319 321 323 319 316 320 320 316 311 314 312 310 309 311 316 314 315 312 314 315 315 312 309 308 307 306 305 304
311 312 311 312 311 311 310 310 311 312 313 313 314 314 314 315 320 321 320 322 318 311 307 319 317 317 317 320 321 321 320 319 316 309 308 310 309 314 309 310 312 313 316 315 312 313 311 310 308 305 305 304 303 303
311 312 312 311 311 310 310 310 311 312 313 313 314 314 314 317 319 317 317 319 321 320 310 311 317 315 316 319 320 321 320 317 311 308 305 308 306 309 306 309 309 316 314 309 309 314 312 309 305 304 302 302 302 300
305 308 311 311 311 310 310 310 311 312 313 313 314 314 314 317 320 320 318 318 318 320 308 312 315 314 315 317 319 317 319 316 315 309 307 311 316 310 308 308 313 313 312 313 314 308 307 304 303 304 304 303 300 298
304 304 306 309 310 310 310 310 311 312 312 313 313 314 314 315 318 316 314 317 317 317 305 306 314 310 311 315 313 313 314 313 313 308 307 309 312 310 306 311 311 312 311 308 305 304 304 303 304 304 303 302 297 296
303 303 304 304 307 310 310 309 309 311 312 313 313 313 314 314 314 316 313 316 317 314 305 305 308 305 311 307 306 307 306 309 310 309 306 307 307 304 309 311 312 311 308 306 306 306 305 304 304 303 302 296 295 294
300 301 302 302 304 305 309 310 309 311 312 312 312 313 313 314 314 314 313 314 314 314 302 306 307 307 308 306 303 303 307 306 305 305 306 308 306 312 312 312 311 307 307 307 306 306 305 304 299 296 296 295 295 294
300 301 302 302 302 303 305 308 310 310 311 312 312 311 302 308 310 312 313 305 302 300 300 307 306 309 308 302 303 305 301 305 309 305 305 305 308 307 308 307 305 304 305 304 304 302 299 297 296 295 295 295 294 293
300 301 301 301 302 303 303 306 308 310 309 310 303 299 303 308 309 301 303 304 303 308 302 306 306 309 305 305 305 302 305 304 309 307 308 308 308 307 305 304 303 304 304 303 299 297 296 295 294 294 294 294 293 293
300 301 301 301 302 303 304 305 305 306 305 305 303 303 304 300 300 307 306 302 305 309 301 303 303 304 300 303 303 301 306 304 309 304 307 308 305 303 302 302 303 303 301 297 296 295 294 294 294 292 292 292 292 292
299 301 301 301 301 302 303 304 304 303 304 303 300 300 300 298 307 310 312 307 307 300 300 300 301 299 298 299 301 302 307 308 302 307 305 304 305 303 302 300 297 294 294 295 295 294 293 293 292 292 292 292 292 291
299 300 301 301 301 301 301 301 302 302 301 296 299 302 303 303 302 301 302 302 299 298 299 298 299 300 298 302 301 306 303 302 307 305 301 305 304 303 300 299 297 294 291 293 294 294 293 293 292 292 292 292 292 292
299 299 300 301 300 300 300 300 300 301 298 297 299 303 301 297 297 297 296 297 296 297 298 299 299 299 300 301 301 301 303 306 306 306 302 301 300 298 297 296 294 292 290 292 293 293 292 292 292 292 292 293 293 293
299 299 298 299 300 300 300 300 299 296 295 296 297 299 298 300 299 298 297 297 295 295 296 298 300 304 302 302 303 305 306 305 303 300 300 299 299 297 296 293 293 293 293 293 292 292 293 293 293 293 293 292 292 292
299 299 299 299 299 299 299 299 295 294 295 298 297 297 298 298 298 297 296 296 296 297 301 300 302 300 299 302 303 303 303 301 299 297 297 296 296 295 293 294 294 294 293 293 293 293 293 293 293 292 292 292 293 293
298 298 299 299 297 299 297 298 295 293 295 297 299 297 295 295 296 296 295 293 295 295 296 298 297 299 300 301 302 300 297 295 295 295 295 294 294 295 295 294 294 294 293 293 292 292 292 292 292 292 293 293 293 293
298 298 297 297 297 298 296 295 298 295 296 293 294 294 294 294 293 294 294 295 296 296 294 294 297 297 298 296 298 296 295 294 295 294 293 294 295 295 295 294 294 293 293 293 293 293 293 293 293 293 293 293 293 291
296 297 297 297 298 296 294 292 297 294 295 295 294 294 293 293 292 293 294 293 292 294 296 295 296 296 296 294 293 293 295 295 293 292 292 293 294 294 294 294 294 294 294 294 293 293 294 294 294 293 293 292 291 290
294 295 296 297 294 294 294 294 294 295 293 295 294 291 293 292 293 294 295 292 294 291 294 293 293 293 296 296 295 295 294 294 292 291 290 291 293 293 293 293 294 294 293 293 293 293 293 293 292 292 292 291 290 289
293 293 293 292 292 292 291 294 295 293 294 294 295 294 293 294 293 293 293 291 291 291 293 291 293 293 293 293 295 295 294 294 293 293 293 294 290 292 293 294 294 293 293 293 293 292 292 292 292 291 290 288 289 288
293 293 292 291 293 292 290 293 294 294 293 295 295 295 294 294 292 289 293 291 290 293 293 293 294 294 293 294 293 292 292 293 293 292 291 291 291 291 291 291 292 292 290 290 291 291 290 290 290 291 289 288 287 287
292 290 292 294 295 293 290 291 291 292 291 292 295 293 294 293 287 288 289 289 291 290 290 290 292 291 293 292 288 286 285 286 286 286 286 286 287 286 285 285 286 287 285 285 285 286 287 288 289 289 288 286 286 286
294 292 292 293 291 293 291 289 291 292 292 291 291 290 290 289 289 288 288 292 288 285 286 287 287 289 287 286 286 284 282 282 282 282 283 282 281 282 283 284 284 281 279 280 281 282 283 285 288 287 286 285 285 285
294 292 292 292 293 292 290 288 289 290 291 291 290 290 288 287 288 287 291 287 286 285 285 285 284 284 284 283 282 281 281 280 278 279 279 280 280 278 278 278 277 277 276 277 277 278 279 281 283 285 285 284 284 284
293 292 290 289 292 291 290 290 291 291 289 287 288 285 284 285 284 288 285 283 284 283 283 282 281 281 281 280 280 280 279 277 276 277 277 279 277 275 274 274 275 274 273 274 274 275 276 278 281 281 281 282 283 283
290 289 287 289 290 290 289 290 291 292 291 290 287 285 284 284 287 284 282 281 281 281 281 279 278 279 279 279 279 278 276 275 275 275 277 277 274 273 272 271 272 271 271 272 272 273 274 275 277 279 279 280 280 279
291 291 290 289 290 291 290 290 290 291 291 289 285 286 287 282 280 280 279 279 279 279 278 278 277 277 276 276 276 275 274 273 272 268 268 269 270 270 270 269 268 268 268 269 270 270 272 274 276 276 277 278 276 274
290 290 291 289 288 291 291 290 292 289 290 289 285 283 280 278 277 278 277 277 277 277 277 276 276 274 273 273 274 274 274 273 271 271 268 267 269 269 269 268 267 266 267 267 267 269 271 273 274 276 275 274 273 270
289 290 291 291 292 290 288 287 287 287 288 289 287 284 279 275 275 274 275 276 275 274 274 273 273 272 271 271 272 271 271 272 271 270 269 269 269 268 267 266 266 266 266 266 266 267 269 272 273 272 271 270 269 268
289 289 291 287 290 286 287 288 289 289 289 288 285 280 275 275 273 274 273 274 274 273 272 271 271 270 270 271 271 270 270 269 269 268 269 268 267 266 266 265 265 265 265 265 266 268 269 269 269 268 267 266 265 264
286 284 284 283 283 284 282 281 282 282 281 280 280 278 275 274 273 273 272 272 272 271 270 270 269 269 269 269 268 269 268 267 267 267 267 267 266 265 265 265 265 265 265 265 266 266 267 266 265 264 264 263 262 262

GFSWCAN_925_thetae_036.txt.gz
Theta_e
313 313 312 309 309 308 308 308 309 311 312 313 313 315 316 321 319 318 322 324 322 313 320 319 319 321 320 316 315 316 313 310 308 306 300 303 309 309 312 314 311 310 308 305 303 301 310 310 313 312 309 310 309 307
313 312 310 309 309 308 308 309 310 311 312 313 313 314 315 319 320 317 321 322 322 316 319 319 318 319 321 320 317 314 312 315 311 308 304 310 311 312 308 312 312 313 309 309 310 310 307 311 311 311 309 307 307 305
312 311 310 309 309 309 309 310 310 312 312 313 313 313 314 320 322 317 321 321 319 309 314 316 318 318 321 321 320 316 312 317 316 307 307 304 306 308 310 310 314 312 312 310 311 312 313 310 308 308 307 306 305 305
311 310 309 309 310 310 309 310 311 312 312 313 313 314 318 318 318 317 320 319 315 307 306 316 316 316 317 320 321 320 317 315 309 305 307 310 305 308 305 307 309 308 313 313 311 312 311 310 308 305 305 304 304 303
311 310 310 310 310 310 310 310 311 312 313 313 313 314 319 318 317 318 319 319 320 311 311 307 315 315 315 319 319 319 316 312 307 305 304 307 303 307 299 306 307 313 313 309 311 311 310 308 304 303 304 303 302 301
310 311 311 310 310 310 310 311 311 312 313 313 313 314 317 318 317 319 313 316 318 317 307 307 310 310 313 317 317 316 316 312 309 306 304 308 312 306 308 310 311 313 312 311 312 307 306 304 303 303 303 302 302 297
310 311 311 310 310 310 310 311 312 312 313 313 313 314 314 317 319 314 309 315 317 313 303 306 304 307 310 312 309 309 310 310 310 304 303 306 309 307 305 308 310 310 310 307 305 304 304 303 304 304 304 300 296 294
305 307 309 310 310 310 310 311 311 312 313 313 313 314 314 315 315 313 315 316 315 310 301 304 310 303 309 303 305 304 302 304 306 308 303 302 304 303 309 310 310 309 306 304 304 305 304 303 304 303 300 295 294 293
303 303 304 307 309 310 310 310 311 311 312 312 313 314 313 313 312 312 314 314 314 309 302 299 303 307 305 304 300 300 303 305 302 304 305 304 306 310 310 310 310 306 306 305 305 305 305 304 301 296 295 294 294 293
302 302 302 303 306 309 309 309 310 311 312 311 312 310 302 306 309 311 310 303 301 299 300 300 300 307 306 300 302 302 300 305 308 303 305 305 308 305 305 306 305 304 305 306 305 302 297 296 295 295 295 294 293 292
301 301 302 302 303 305 309 309 310 311 312 311 304 300 306 308 309 301 303 304 303 308 301 305 301 307 303 304 305 299 304 303 308 305 307 307 308 304 302 302 303 303 303 301 298 296 296 295 294 294 293 292 292 292
301 302 303 303 303 304 306 307 307 309 307 307 305 305 306 300 300 305 305 303 305 309 301 304 302 303 300 299 303 301 305 304 307 302 307 308 304 302 302 304 303 299 296 295 295 294 294 293 292 291 290 290 291 291
300 301 301 302 303 304 305 305 307 306 306 305 301 299 303 299 308 311 312 307 306 300 300 300 302 299 299 299 301 303 307 308 302 307 306 304 304 302 300 296 295 294 294 294 294 293 293 292 292 292 291 291 291 291
301 300 300 300 299 300 302 303 303 304 304 296 301 303 304 303 302 301 302 302 298 298 298 298 299 301 298 302 301 306 303 303 307 303 298 304 303 302 299 296 294 292 290 292 293 293 293 292 292 292 292 292 292 291
298 299 300 300 300 300 300 299 300 300 298 297 299 302 299 297 296 297 296 297 296 296 297 299 299 299 300 301 301 301 303 304 304 304 302 300 300 297 296 295 292 291 290 292 292 291 292 292 292 291 292 292 292 292
299 299 298 299 299 300 300 300 298 296 295 295 297 298 297 299 299 298 297 297 294 295 295 297 300 303 301 301 301 303 304 303 300 300 299 298 297 295 294 293 292 292 292 292 292 292 292 292 292 292 292 292 292 292
298 298 299 299 297 297 298 298 295 294 294 297 298 296 297 298 298 297 296 296 295 297 300 300 300 299 298 301 302 301 300 300 299 298 297 296 295 293 292 293 293 293 293 292 292 292 292 292 292 291 290 292 292 293
298 298 298 297 298 298 297 298 293 291 297 296 298 296 294 294 296 296 294 293 293 293 294 295 295 298 299 300 301 298 297 295 295 295 295 294 293 293 294 293 294 293 292 292 292 292 292 292 291 291 292 292 292 292
297 298 297 298 297 297 293 294 295 293 295 294 293 293 293 293 292 293 292 292 293 292 292 292 293 294 295 295 296 294 293 292 294 293 292 293 293 294 293 293 293 293 292 292 292 292 292 292 292 292 293 293 292 292
295 296 297 298 298 294 290 290 295 292 294 295 293 293 292 292 291 293 291 291 292 294 289 291 293 293 293 292 292 291 293 292 292 291 291 291 292 293 292 292 292 293 293 293 293 293 292 292 292 292 292 292 292 291
294 294 295 297 295 294 292 290 291 293 294 295 292 290 292 291 293 294 294 290 285 287 292 291 288 289 293 293 293 293 292 292 290 289 288 289 291 292 291 291 291 291 290 289 288 289 289 289 290 290 291 291 291 290
292 293 294 294 291 290 287 292 291 290 293 294 294 292 292 293 292 293 291 290 290 290 290 288 291 291 291 290 289 290 291 291 290 289 289 289 287 287 287 286 286 286 287 287 286 286 285 286 286 286 288 289 289 288
293 293 292 291 290 286 288 292 293 292 294 294 293 293 293 293 292 288 292 290 290 289 289 290 292 291 288 287 285 285 285 286 285 284 284 284 284 283 283 283 284 283 281 281 282 281 281 282 283 284 285 287 287 287
292 290 290 287 293 292 286 290 287 290 287 293 294 292 290 289 284 288 286 291 290 287 287 286 289 288 287 285 283 282 281 281 281 282 281 281 281 281 281 281 280 277 276 277 277 277 277 277 278 280 282 285 286 286
291 290 286 287 289 291 292 287 284 285 285 285 285 284 286 283 283 283 283 290 287 285 284 284 285 285 285 283 282 281 279 278 279 280 279 279 279 277 276 276 275 275 273 273 274 274 274 274 275 276 279 281 281 283
291 285 286 287 286 289 288 285 284 284 284 285 283 284 282 281 283 284 290 287 285 285 281 284 282 281 281 280 280 280 277 276 277 277 277 277 274 273 272 272 272 272 271 270 271 271 271 272 273 274 275 277 279 281
288 285 288 288 291 291 286 285 288 287 285 284 286 284 280 284 281 287 284 282 283 282 280 280 280 280 279 279 278 276 275 275 274 274 275 273 272 271 270 269 270 269 268 268 268 268 269 269 271 272 273 275 277 279
287 287 287 289 291 290 290 288 289 289 288 288 285 285 285 282 285 282 281 280 281 279 278 278 278 278 277 277 276 275 274 274 274 274 274 272 270 270 269 268 268 267 267 267 267 267 267 267 268 270 272 274 275 275
286 287 287 289 289 289 287 288 288 290 290 289 285 285 283 280 277 279 278 279 279 278 277 276 275 275 275 274 274 273 273 272 271 265 263 262 267 268 268 268 267 267 266 266 266 266 267 269 270 272 273 272 271 271
288 289 289 288 288 290 289 288 289 288 286 284 282 280 279 276 275 277 277 277 276 275 274 273 273 273 271 272 272 271 271 270 270 269 264 263 268 268 267 267 266 266 265 265 265 266 268 269 271 271 271 269 268 267
287 288 289 288 289 288 286 286 286 287 288 286 282 278 274 272 274 274 274 275 275 274 273 272 271 270 270 270 270 269 269 269 268 268 268 267 267 267 266 265 265 265 265 265 265 266 267 267 267 267 266 266 265 264
287 288 288 286 287 284 286 287 287 288 284 286 280 276 268 267 267 272 273 273 273 272 271 270 270 269 269 269 269 269 268 267 267 267 267 266 266 265 265 265 264 264 264 264 265 265 265 265 265 264 263 263 262 262
282 272 272 273 277 280 274 274 273 277 271 276 277 272 269 270 270 271 272 272 272 271 270 269 269 269 268 268 268 267 267 267 266 266 266 266 265 265 264 264 264 264 264 264 264 264 264 263 263 262 261 261 261 260

GFSWCAN_925_thetae_039.txt.gz
Theta_e
312 311 309 308 308 308 308 309 311 312 312 314 315 317 320 319 317 320 322 323 319 314 318 318 318 319 316 314 314 314 312 309 303 305 300 302 301 308 311 312 312 311 307 304 303 301 309 307 310 311 308 309 310 307
313 311 309 308 308 308 308 309 311 312 313 313 314 315 319 318 319 321 321 320 320 315 316 317 316 317 319 315 314 311 313 312 309 305 300 301 308 310 305 310 309 310 307 308 309 309 307 307 310 309 308 308 307 306
312 311 309 308 308 308 309 310 311 312 312 313 314 316 320 321 318 318 321 319 319 309 314 315 316 317 319 320 317 314 311 313 310 305 306 302 302 306 309 308 312 310 309 308 309 310 308 309 308 308 307 306 304 303
312 309 309 308 308 308 309 310 311 312 313 313 315 317 319 318 318 318 317 316 313 304 306 314 315 314 316 320 320 317 314 310 305 303 305 303 300 305 303 306 310 308 311 311 309 310 311 309 307 305 304 303 304 304
311 309 308 308 309 309 310 311 312 312 313 313 316 318 317 317 318 317 318 318 316 309 309 305 312 312 316 318 317 316 313 310 306 305 303 307 302 304 299 304 305 309 310 308 309 309 310 308 305 303 303 303 303 302
310 309 309 309 309 309 310 311 312 312 313 313 314 317 317 316 316 313 309 317 315 314 307 307 308 309 313 315 314 313 313 309 305 305 304 304 308 305 309 312 310 311 310 308 310 308 305 303 302 303 303 303 302 298
309 309 310 310 310 310 310 311 312 312 313 313 313 314 317 317 316 310 307 314 315 311 304 306 303 305 308 310 306 307 308 308 308 305 302 306 307 306 306 310 309 309 309 308 304 304 305 304 304 303 302 301 296 294
310 310 310 310 310 310 311 311 312 312 313 313 314 314 314 314 314 314 313 315 313 307 300 304 304 303 307 303 305 301 302 303 304 306 303 301 303 304 310 309 308 308 305 304 304 304 305 303 303 302 295 294 293 293
309 309 309 309 310 310 311 311 312 313 313 313 314 314 313 313 310 311 313 313 312 307 302 296 305 306 302 303 299 300 302 305 301 304 305 303 304 310 309 309 309 306 306 305 304 303 303 303 298 295 295 294 293 292
303 306 309 309 309 310 310 311 311 312 312 313 312 309 303 306 309 311 309 301 300 299 299 302 300 307 306 300 302 298 301 300 308 300 304 305 309 304 303 303 304 303 303 303 303 298 296 296 296 296 295 293 293 292
302 302 305 308 309 309 309 310 310 311 311 311 302 300 307 308 308 299 303 302 303 308 301 301 301 307 301 305 303 297 299 302 307 301 304 303 307 303 301 301 300 299 299 298 298 298 297 297 296 294 292 292 291 290
303 302 303 304 307 308 309 310 310 311 309 307 306 306 306 299 300 305 304 303 305 307 301 304 303 303 300 298 301 301 303 303 307 302 306 308 304 302 302 298 296 298 298 299 299 298 296 293 292 291 290 290 290 290
300 301 303 304 304 304 306 308 310 308 306 305 301 300 300 299 309 311 313 307 307 301 300 300 303 299 298 298 301 303 307 307 301 306 308 305 303 300 298 297 297 298 298 296 293 292 292 292 291 291 291 291 291 291
299 299 299 298 300 303 304 305 305 305 304 297 301 306 304 305 302 302 303 303 298 298 298 298 299 301 298 302 301 307 303 303 307 307 301 303 303 302 299 296 293 291 290 292 292 291 291 291 291 291 291 291 291 291
298 299 299 299 299 300 300 302 304 304 299 297 299 302 298 297 297 297 296 297 295 295 297 299 299 299 300 302 301 301 303 303 300 298 301 298 301 297 295 293 291 290 289 290 291 291 291 291 291 291 292 291 291 291
298 299 298 297 298 299 300 298 297 297 295 295 297 298 297 299 298 298 297 297 294 295 295 297 300 300 300 300 300 301 301 298 295 299 298 298 298 295 293 292 291 291 291 291 292 291 291 291 291 291 291 292 292 291
298 297 297 298 298 297 298 297 295 292 294 297 298 296 297 297 298 297 296 296 295 297 300 299 299 299 297 299 300 298 295 295 296 296 296 295 294 292 291 293 293 292 292 291 291 291 291 292 291 291 290 292 292 292
296 296 297 298 298 298 297 297 291 291 297 295 297 295 294 294 296 295 294 292 294 295 293 295 295 297 298 299 298 297 296 295 294 294 296 295 295 294 293 292 292 292 291 291 292 291 291 291 290 290 290 291 291 292
296 297 297 298 297 297 292 294 293 294 295 294 293 292 293 293 292 292 291 291 291 290 291 290 290 292 294 294 294 292 291 291 294 294 292 292 292 292 292 291 291 291 291 291 290 290 289 289 289 289 288 288 287 288
295 295 297 297 297 295 291 290 293 293 295 295 293 292 292 292 291 292 291 291 292 291 288 289 292 292 291 291 291 290 291 291 290 290 289 289 290 290 289 289 288 288 288 287 287 286 286 285 285 285 285 285 285 286
294 293 295 297 295 294 289 289 290 293 294 294 292 292 292 291 293 293 288 290 286 291 292 291 288 288 290 290 290 291 290 291 288 287 286 287 287 286 285 284 284 284 284 283 283 283 282 282 281 281 282 283 284 284
293 293 294 294 290 288 287 290 291 290 293 293 292 291 292 292 292 292 290 292 291 288 289 287 290 289 288 286 286 287 287 287 286 285 286 285 284 283 283 282 282 281 280 280 280 280 279 278 277 277 278 279 281 282
293 293 293 291 285 284 288 291 293 292 294 294 292 292 292 292 291 289 292 290 291 287 287 288 288 286 285 283 283 282 283 283 282 282 281 281 281 281 281 280 277 275 274 275 275 276 275 274 274 274 275 275 278 280
292 290 290 290 286 287 284 289 289 291 290 292 292 291 289 291 287 289 287 291 289 286 286 287 286 285 284 283 282 280 279 280 280 279 279 280 280 278 277 276 275 273 271 270 270 271 271 271 271 271 272 273 274 276
288 287 282 284 283 286 285 285 285 286 286 289 291 289 287 281 280 282 286 289 286 285 284 284 284 285 284 282 281 279 277 278 279 278 277 276 274 273 273 273 272 271 269 268 267 268 268 268 268 269 269 271 271 273
290 284 284 281 282 286 284 285 287 286 282 291 287 284 277 278 286 283 288 286 285 284 282 282 282 281 281 280 279 276 274 275 276 276 275 272 271 270 269 268 268 268 267 267 266 265 266 266 266 267 267 269 270 271
290 285 284 287 289 290 287 284 287 288 286 286 286 286 282 286 287 285 283 281 282 279 280 280 280 279 279 277 274 274 274 274 275 274 272 271 270 269 268 267 266 267 266 266 266 266 265 265 265 266 266 267 269 271
283 283 286 285 290 290 290 289 288 290 286 286 285 285 286 281 282 281 280 279 278 278 277 277 277 277 276 274 273 273 273 272 273 273 271 270 269 269 268 267 266 266 266 266 266 266 265 265 266 267 267 268 269 269
287 287 286 287 289 289 290 290 290 290 289 290 287 285 282 278 275 277 278 278 278 277 275 274 273 274 273 273 272 271 271 271 271 262 261 258 266 267 267 266 266 265 265 266 266 266 267 267 268 268 269 268 267 267
287 289 289 288 288 290 287 287 288 287 284 282 280 279 277 274 273 275 276 277 276 273 272 272 271 272 271 271 270 269 269 268 268 268 262 261 267 267 266 266 265 265 265 265 265 266 266 266 267 267 266 266 265 264
287 288 288 288 287 285 285 285 286 287 286 281 279 276 274 272 273 273 274 274 273 273 272 271 270 270 270 269 269 268 268 268 267 267 267 267 266 266 265 265 264 264 264 264 265 265 265 265 264 264 264 263 262 262
282 282 284 286 285 284 282 285 284 285 285 283 278 273 269 267 265 270 271 272 272 271 270 269 269 269 269 268 268 267 267 266 266 266 266 266 265 265 265 264 264 264 264 264 264 264 264 263 263 262 262 261 261 260
278 275 274 273 277 284 272 271 272 276 277 276 272 269 267 267 268 270 271 271 271 270 269 269 268 268 268 267 267 267 266 266 266 265 266 265 265 265 264 264 263 263 263 263 263 263 262 262 261 261 260 260 260 260

GFSWCAN_925_thetae_042.txt.gz
Theta_e
309 309 308 308 308 308 308 311 312 313 314 315 317 318 317 317 318 321 322 322 317 313 316 317 317 316 314 313 314 313 312 309 303 305 302 301 301 307 310 310 312 310 310 308 301 298 309 304 310 311 308 307 308 307
309 308 308 308 308 308 310 312 312 313 314 315 317 319 320 320 319 319 320 318 318 314 315 315 315 315 317 312 312 309 314 311 308 304 296 298 302 308 305 309 308 310 307 307 307 308 305 305 308 308 306 307 307 305
308 308 308 308 308 309 311 312 312 313 313 315 317 320 317 318 320 320 320 317 318 309 312 313 315 316 318 318 314 312 309 309 307 303 301 300 302 303 305 308 310 309 306 306 308 308 306 306 307 308 306 307 304 304
308 308 308 308 308 310 311 312 312 313 314 317 319 319 320 318 319 319 316 313 315 305 307 314 313 313 316 319 318 315 311 307 303 302 299 301 301 303 302 304 307 307 308 308 307 308 310 309 307 306 305 303 304 303
308 308 308 308 309 311 312 312 313 313 317 317 317 317 317 317 316 315 315 314 312 308 309 306 310 312 314 315 314 312 310 308 305 304 303 307 301 302 301 302 305 306 308 308 308 308 308 307 307 303 303 303 303 301
309 308 308 309 310 310 311 312 313 313 316 317 317 317 317 317 314 312 309 315 312 313 308 308 307 307 311 313 311 310 310 306 304 306 302 304 306 304 309 312 309 309 308 306 308 308 305 303 302 302 303 302 301 296
308 308 309 309 309 310 311 312 312 313 313 315 316 316 315 314 311 306 306 312 311 309 304 306 303 304 306 307 304 305 305 304 306 305 303 304 306 305 306 309 308 308 307 308 305 304 307 304 304 302 301 297 294 293
308 309 309 310 310 310 311 312 312 313 313 314 315 315 314 314 314 313 309 313 310 306 299 303 303 303 305 303 305 302 302 302 304 306 302 303 304 302 309 308 307 307 305 304 303 302 304 302 297 294 294 294 293 293
309 309 309 310 310 310 311 312 313 313 314 314 314 313 313 312 309 311 312 311 310 306 299 294 304 305 301 302 299 302 301 306 301 304 305 303 304 309 307 306 306 306 307 304 301 300 298 295 294 295 295 295 295 293
309 309 310 310 311 311 311 312 313 313 313 313 310 309 303 306 308 309 309 301 300 299 298 301 300 306 305 301 302 298 299 299 299 298 304 305 307 304 300 300 300 301 302 301 297 296 297 298 298 297 296 294 292 291
308 309 309 310 310 311 311 312 312 312 312 310 303 302 307 307 307 299 302 302 302 305 303 301 302 306 301 306 304 296 300 301 305 299 306 305 307 302 298 296 297 297 298 298 298 298 298 297 296 294 292 291 290 290
304 306 308 309 310 309 310 311 311 310 309 308 307 306 306 300 300 305 304 302 305 305 302 304 303 303 299 295 302 301 297 302 306 301 306 307 304 300 297 299 299 299 299 299 299 299 297 295 292 291 290 289 289 290
302 302 303 305 308 309 310 310 310 309 308 306 301 298 300 297 309 311 311 308 306 301 300 300 303 299 298 298 301 303 306 306 301 306 307 305 299 297 298 299 298 297 296 294 292 292 291 291 291 291 290 290 291 290
299 300 300 301 303 305 307 308 307 306 306 297 300 308 305 306 303 302 303 304 298 298 299 299 299 301 298 303 301 307 303 303 307 307 302 303 302 299 299 296 293 291 290 291 291 291 290 290 291 291 291 291 291 291
298 298 299 299 300 302 304 305 305 304 298 298 300 302 299 297 297 297 296 297 295 295 297 299 299 300 301 302 301 301 303 301 298 296 300 298 300 296 293 291 291 290 288 290 290 290 290 291 291 291 291 291 291 291
298 298 297 298 298 300 301 301 300 298 294 296 297 297 297 299 298 298 297 297 294 295 296 298 301 301 301 299 299 300 301 296 295 299 297 298 296 293 292 291 290 291 291 290 291 290 290 290 290 290 291 291 291 291
297 296 297 297 297 297 297 296 296 294 295 297 297 295 297 297 298 297 296 295 294 297 300 299 298 297 296 295 297 295 292 297 297 297 296 295 293 291 291 292 293 291 291 291 291 291 290 290 291 290 289 289 288 288
296 297 297 297 298 297 297 296 291 294 296 295 297 295 294 294 296 295 293 292 294 296 294 297 295 296 294 295 294 294 295 294 295 294 294 293 293 295 294 291 291 291 290 290 289 289 288 287 287 286 286 285 285 284
294 296 297 296 297 296 291 293 292 294 295 294 293 292 293 293 291 291 291 290 290 289 290 289 290 291 292 293 291 290 290 290 294 293 292 291 292 291 290 290 289 288 287 286 285 284 284 284 283 282 281 281 282 282
294 295 296 296 297 295 290 290 293 294 295 295 293 292 292 292 291 292 291 291 291 285 289 289 290 290 289 289 290 289 292 290 291 291 288 287 287 286 285 285 284 284 282 282 282 281 280 280 279 278 277 278 279 280
294 294 295 296 295 294 289 288 291 293 293 293 292 292 292 292 293 289 287 288 286 290 290 289 286 287 287 287 288 288 288 289 287 287 287 287 284 283 283 282 281 280 279 278 278 278 277 277 275 274 274 274 275 275
293 293 294 293 289 288 287 289 291 290 293 292 292 292 292 292 293 292 290 289 291 289 288 287 289 288 287 286 285 284 285 284 284 284 284 283 281 281 280 278 276 275 275 274 274 274 274 273 271 271 271 271 272 273
293 292 292 291 286 285 289 291 293 292 294 293 291 290 292 291 291 288 291 291 290 287 287 287 286 285 283 282 281 281 282 281 281 281 280 280 279 279 278 275 273 272 271 271 270 270 269 269 269 269 269 269 269 270
291 289 290 289 284 285 281 290 290 291 291 294 292 290 289 291 288 289 289 291 288 286 288 286 284 284 283 282 279 279 279 279 279 278 279 278 276 275 274 274 272 270 268 268 267 267 267 267 267 267 267 267 267 268
284 285 282 282 284 281 279 282 287 289 288 290 291 289 288 283 281 288 289 288 285 284 284 285 286 285 284 282 278 277 277 278 278 276 274 273 273 272 271 270 270 269 267 267 266 266 266 266 266 266 266 266 265 266
287 287 283 277 282 285 281 283 283 283 283 289 290 284 279 278 286 284 288 285 284 282 281 282 282 281 280 279 277 275 273 275 276 274 272 271 270 269 268 267 266 267 266 266 265 265 265 265 265 266 266 267 267 267
284 284 282 286 289 289 283 282 284 286 285 289 289 288 285 286 285 284 282 280 280 279 279 279 280 279 276 274 272 273 273 274 274 273 271 270 269 268 267 266 265 266 265 265 265 265 265 265 265 266 266 267 267 266
282 280 283 279 284 287 288 286 287 286 288 288 287 288 288 281 281 280 279 278 277 277 276 276 276 275 274 272 272 272 272 272 272 270 269 269 268 268 267 266 266 265 265 265 265 265 266 265 265 266 266 266 266 265
283 284 285 286 287 289 289 289 290 289 288 288 286 284 280 277 274 275 276 276 276 276 274 273 272 273 272 271 271 270 270 271 271 262 261 258 266 267 266 265 265 265 265 265 265 265 266 265 265 265 265 265 264 264
284 285 288 287 288 289 287 286 287 285 282 281 280 278 276 273 272 274 275 275 274 272 272 272 272 272 271 271 269 269 268 268 268 267 261 260 266 266 265 265 265 264 264 264 264 265 265 265 265 265 264 264 263 262
284 286 288 287 287 286 285 285 286 285 282 278 276 275 273 272 272 272 272 272 272 271 271 270 270 269 269 269 268 268 268 267 267 266 266 266 266 265 265 265 264 264 263 263 264 264 264 263 263 262 262 262 261 261
281 279 281 283 282 281 279 281 281 281 281 280 275 270 266 267 265 269 270 271 271 270 269 269 269 269 268 268 267 267 266 266 266 266 265 266 265 265 265 264 264 263 263 263 263 263 262 262 262 261 261 260 260 259
276 277 276 273 277 281 269 270 270 271 272 274 268 266 265 266 266 269 270 270 270 269 269 268 268 268 268 267 266 266 266 265 265 265 265 265 265 265 264 264 263 263 262 262 262 262 261 261 261 260 260 259 259 259

GFSWCAN_925_thetae_045.txt.gz
Theta_e
308 308 308 309 308 307 307 306 307 311 313 314 315 316 316 315 317 321 321 319 318 315 316 316 316 314 313 314 318 315 315 313 308 312 313 309 312 312 312 311 315 315 315 313 304 311 316 305 310 315 314 308 309 310
308 309 309 308 307 307 306 310 313 314 314 315 315 316 315 315 316 321 318 317 318 315 315 314 314 314 315 312 314 310 316 313 313 310 304 304 310 309 309 316 309 315 313 314 311 314 309 306 310 308 307 308 309 309
308 308 307 307 307 309 311 313 313 314 315 317 317 316 315 315 318 319 319 319 317 312 313 314 314 314 317 316 313 315 310 310 308 304 305 305 309 307 313 312 311 310 306 311 310 310 307 307 307 308 309 308 308 307
308 307 307 308 311 312 312 313 313 315 316 318 319 319 317 319 319 316 318 318 313 308 309 314 313 312 313 317 316 313 309 305 303 304 304 305 310 304 308 308 311 310 309 310 310 310 308 309 309 308 307 306 305 304
307 307 309 311 312 312 312 313 316 318 318 319 318 318 318 319 318 315 314 312 311 313 310 310 309 311 311 312 310 309 308 309 307 307 305 309 303 306 304 306 309 308 310 312 313 308 309 308 306 305 306 306 304 302
307 308 311 311 312 312 313 315 316 317 317 318 319 319 318 317 316 315 313 312 312 313 310 311 306 307 309 310 308 308 308 307 307 308 304 305 306 307 311 312 310 308 308 307 310 308 306 305 303 303 305 303 299 297
308 310 311 311 312 312 312 313 316 317 317 317 317 316 315 312 309 306 308 310 309 309 305 307 307 304 304 306 305 305 304 305 308 306 305 308 309 307 306 312 308 308 307 306 304 306 308 305 306 300 297 296 294 293
309 309 310 311 310 312 312 312 313 315 316 314 313 313 313 314 313 311 307 310 307 304 302 305 305 306 304 305 307 303 305 305 305 306 304 305 305 304 311 308 307 307 305 304 303 303 302 297 296 295 294 295 297 297
309 309 310 310 308 311 312 313 313 313 313 313 312 311 311 311 309 311 308 309 309 305 302 299 308 311 303 302 301 303 302 306 302 305 307 307 306 310 306 304 304 303 305 301 297 296 296 296 297 298 298 298 298 297
309 310 310 310 310 310 311 313 313 312 312 310 309 308 304 307 307 308 308 302 301 298 298 301 301 307 306 302 303 302 300 304 307 305 304 307 308 302 298 297 298 300 301 297 298 298 298 299 299 297 297 297 295 293
309 310 310 310 310 311 312 313 312 312 311 310 304 303 307 307 306 299 301 303 302 304 302 301 303 305 301 308 305 299 303 301 307 303 308 307 308 302 298 298 298 299 299 299 298 298 298 298 297 296 293 292 291 290
309 310 310 311 311 311 312 311 311 310 309 308 307 306 305 301 301 305 304 303 304 307 302 305 303 304 300 297 303 301 301 303 307 302 306 307 303 298 300 300 300 299 299 299 298 298 296 294 293 291 290 289 289 289
304 308 309 310 310 310 311 311 310 310 309 309 303 302 304 302 309 304 307 308 307 302 301 301 303 300 300 301 301 304 306 306 302 307 308 305 298 300 299 298 297 295 294 293 292 292 291 290 290 290 290 290 290 290
300 301 303 306 308 309 309 308 307 306 307 299 304 308 303 307 305 305 304 304 298 298 299 300 300 303 299 305 302 309 303 304 308 307 307 301 299 300 297 295 294 291 289 291 290 290 289 290 290 290 290 290 290 290
300 300 300 301 304 305 306 307 306 305 298 298 300 304 301 297 297 297 296 297 296 296 298 300 300 301 302 303 302 303 305 305 303 301 302 300 298 298 295 292 292 290 288 290 290 289 289 289 289 289 289 289 288 288
298 299 297 299 301 302 303 305 304 298 295 297 296 299 298 299 299 298 298 298 295 295 296 299 301 303 301 301 301 303 304 301 299 301 297 297 296 294 292 291 290 290 290 290 290 289 289 289 288 287 287 285 284 284
297 296 296 297 297 297 299 298 297 293 295 297 297 295 297 298 298 297 296 296 294 297 301 300 301 300 298 299 300 298 298 296 298 297 294 294 293 292 291 292 290 290 290 289 289 288 286 286 284 283 283 282 282 282
295 296 296 298 297 297 296 295 294 295 296 295 297 295 294 294 296 295 293 292 295 296 297 298 296 298 298 298 298 296 297 296 296 296 295 293 292 293 291 290 289 289 287 286 285 284 283 282 282 281 280 279 279 280
294 296 296 297 297 296 293 292 292 295 295 294 293 293 293 292 291 291 291 291 291 289 293 293 296 296 297 295 294 294 293 294 295 293 290 290 290 289 288 287 286 284 283 282 282 281 281 280 279 277 276 276 276 277
294 295 296 296 296 294 292 291 293 295 295 294 293 293 292 292 292 291 291 290 290 288 291 292 293 292 291 291 290 291 293 292 292 291 289 286 285 284 284 283 282 281 280 279 278 277 277 277 275 274 273 272 273 273
294 294 295 296 294 293 289 289 292 293 293 293 292 293 293 292 293 291 289 287 289 291 292 290 288 287 286 286 286 287 287 289 289 289 288 285 283 282 280 279 278 276 276 275 275 274 273 273 272 271 270 269 270 270
292 293 293 294 288 288 288 289 292 291 293 293 292 292 293 293 293 292 290 291 291 290 289 289 289 287 286 285 284 284 284 284 284 283 282 282 282 280 277 276 275 274 273 271 271 270 270 269 268 268 268 268 268 268
292 292 291 289 286 286 291 290 293 293 294 293 292 291 293 292 291 288 291 291 290 287 288 286 285 284 283 282 282 281 281 282 281 280 279 279 279 277 275 273 272 270 270 269 268 268 267 267 267 267 267 267 267 267
290 287 288 284 285 287 281 287 291 292 292 294 292 290 290 291 288 290 291 290 288 287 287 285 284 283 281 280 279 279 280 279 278 277 277 277 276 274 273 272 270 268 267 267 267 267 267 267 267 267 266 266 266 265
284 285 282 285 284 282 280 281 289 289 285 291 292 290 290 284 286 288 290 287 285 284 284 286 286 285 282 279 277 276 277 278 277 275 273 273 272 271 271 269 269 267 266 266 265 266 266 266 266 266 266 266 265 265
285 287 285 281 287 284 279 282 280 284 283 286 288 284 281 283 286 286 286 283 282 281 280 282 281 280 279 278 277 275 274 275 275 273 271 270 270 269 268 267 267 267 266 265 265 265 265 265 265 265 266 266 266 265
281 280 285 286 289 288 280 279 283 282 284 286 287 288 288 287 285 283 281 278 279 277 277 278 279 277 275 273 272 272 273 274 274 272 270 269 268 268 267 266 265 265 265 265 265 265 264 264 264 265 265 265 265 264
282 282 282 280 283 283 282 280 283 283 284 287 286 287 288 285 282 279 278 276 276 275 275 275 274 273 272 271 271 272 272 271 271 270 269 268 268 267 267 266 265 265 265 264 264 264 265 265 264 264 264 264 264 263
281 280 281 279 280 284 285 286 288 288 286 288 287 284 279 276 273 274 275 275 275 274 272 271 270 271 271 270 270 270 270 270 270 265 265 265 265 267 266 265 265 264 264 264 264 264 264 264 264 264 263 263 263 262
283 282 283 281 281 284 284 286 287 283 281 280 279 277 275 272 270 272 273 274 273 271 271 271 271 271 270 270 268 268 268 268 268 267 265 264 265 265 265 265 264 264 263 263 263 264 264 264 264 263 263 262 262 261
280 281 283 282 281 281 282 283 285 282 280 276 274 274 273 272 270 270 270 270 270 270 271 270 269 269 269 268 268 268 267 266 266 266 265 265 265 265 265 264 264 264 263 263 263 263 262 262 262 261 261 261 260 260
277 278 281 282 281 277 275 278 279 280 279 277 272 269 269 269 268 269 270 270 270 269 268 268 268 268 268 267 267 267 266 266 265 265 265 265 265 265 264 264 264 263 263 262 262 262 262 261 261 260 260 259 259 259
271 275 274 272 276 275 270 270 270 270 270 272 269 266 266 267 267 268 269 269 269 269 268 268 268 267 267 267 266 266 265 265 265 265 265 265 265 264 264 264 263 263 263 262 262 261 261 261 260 260 259 259 258 258

GFSWCAN_925_thetae_048.txt.gz
Theta_e
301 301 302 302 302 304 306 307 306 309 308 307 307 310 313 314 313 318 318 317 324 324 321 321 319 321 320 324 327 320 320 320 320 328 327 324 329 318 317 316 319 322 325 323 318 327 326 311 314 319 317 315 314 316
300 300 301 302 303 306 308 309 309 307 306 307 310 313 314 314 314 319 319 317 318 322 320 316 315 316 318 318 322 319 324 321 323 325 322 319 321 314 322 325 315 320 319 321 319 319 314 312 316 315 313 314 314 314
304 306 307 306 305 307 308 307 306 308 311 312 313 315 315 314 316 318 319 317 319 322 319 321 320 316 315 315 316 322 319 318 317 316 319 319 322 319 322 321 318 316 312 317 316 314 314 313 312 312 312 313 313 312
308 308 307 307 306 306 309 311 312 313 314 314 314 315 316 314 316 318 319 317 318 316 317 321 314 315 312 315 317 316 316 312 312 315 320 316 325 313 318 316 318 315 314 316 316 315 314 313 313 313 312 311 311 310
307 307 307 310 311 312 312 313 313 314 315 315 315 315 315 314 315 318 317 316 317 321 317 320 315 312 312 313 313 313 314 316 318 318 314 323 313 315 312 313 317 313 315 318 318 312 313 313 311 310 312 311 310 307
310 311 312 312 312 313 315 316 316 317 318 318 316 315 314 315 317 316 318 314 314 315 318 321 312 313 313 313 313 314 315 317 317 317 312 313 309 316 316 320 314 312 312 311 314 312 313 311 309 309 310 307 305 303
312 312 312 312 313 315 315 315 317 318 318 318 318 315 317 316 313 314 315 313 315 312 315 315 320 311 310 313 311 314 312 312 317 311 312 313 312 314 311 322 312 312 311 311 309 310 312 308 307 305 302 299 297 298
311 312 312 312 313 315 316 316 315 316 316 317 317 315 312 311 311 312 305 309 307 309 314 312 316 317 309 313 312 308 311 313 310 309 309 311 310 312 318 312 310 309 309 308 307 307 305 301 299 298 298 299 299 297
311 311 312 312 312 313 313 312 311 311 311 312 312 312 311 312 317 312 307 307 306 311 310 307 317 317 308 306 306 310 308 310 306 311 311 312 309 314 308 306 308 307 308 305 303 302 300 299 299 299 299 299 298 298
310 310 310 311 313 313 313 312 311 310 310 309 309 313 315 309 307 307 309 314 309 305 304 304 306 310 309 309 309 310 307 311 312 310 307 314 313 302 300 300 303 305 305 303 300 300 300 301 300 299 299 298 298 298
310 310 310 310 310 311 312 312 312 310 311 310 312 309 307 307 308 308 308 310 310 309 306 305 308 309 304 311 308 305 308 307 313 311 312 312 312 303 300 302 302 301 300 300 300 299 299 298 298 298 296 294 292 292
310 310 311 311 311 310 309 312 311 310 309 310 310 307 306 308 309 310 308 308 310 310 306 308 307 306 303 304 308 306 305 309 314 306 312 310 305 301 301 301 302 301 300 299 299 299 298 296 294 293 292 292 291 290
308 310 311 311 311 311 310 310 309 309 309 308 308 305 312 306 313 320 313 312 309 306 304 305 306 305 304 305 305 310 313 310 306 311 310 306 302 301 301 300 299 298 298 297 295 293 292 292 291 291 291 290 290 291
303 306 309 310 310 311 311 310 310 311 309 303 307 310 311 314 307 308 308 309 300 301 304 304 304 306 304 309 307 315 306 307 310 311 309 301 302 299 298 298 295 293 292 293 292 292 291 291 290 289 289 288 288 288
301 303 304 302 303 305 307 307 308 307 300 303 306 308 305 299 299 298 298 300 298 299 303 306 305 307 306 306 305 306 308 310 308 309 304 300 298 299 297 295 294 293 292 293 292 290 289 289 290 290 288 286 285 285
302 302 300 300 302 303 306 307 304 299 296 299 300 301 299 301 300 299 299 299 297 298 301 304 305 309 305 307 309 310 310 309 305 302 299 298 298 298 296 294 293 292 292 292 292 291 289 287 287 286 285 283 282 283
299 296 298 297 298 302 304 301 297 294 297 301 299 296 299 299 299 298 297 297 294 300 303 305 309 306 302 305 305 303 306 303 300 298 296 298 298 295 294 292 291 292 292 291 289 287 286 285 283 283 282 281 280 281
294 295 297 297 297 297 296 295 293 297 298 298 299 297 296 295 297 296 294 293 297 299 302 303 301 304 306 305 304 301 298 297 296 296 294 295 294 294 294 293 292 290 288 286 285 285 284 283 282 281 280 278 279 279
294 295 296 297 297 296 296 294 295 298 297 297 296 296 295 294 293 293 294 293 294 295 299 299 303 303 303 300 301 299 298 297 296 293 291 290 290 290 289 288 287 286 285 284 283 283 282 279 278 277 277 276 276 276
295 296 295 296 296 296 296 295 295 297 297 296 296 296 296 295 294 294 294 294 295 298 300 300 299 296 297 295 296 299 298 297 295 293 291 289 288 288 287 287 285 283 282 281 279 278 279 278 276 275 274 273 274 274
294 295 295 295 294 293 293 294 295 295 295 295 295 295 296 296 296 297 296 295 297 294 295 291 290 289 288 289 291 293 294 294 293 294 292 289 286 285 283 281 280 280 280 279 278 276 275 275 274 273 272 273 272 273
292 293 293 293 293 293 294 292 295 294 295 295 295 295 297 297 296 295 294 295 292 291 291 291 290 290 289 288 288 288 288 288 287 286 285 284 284 283 281 280 279 278 276 275 275 274 273 272 270 271 271 271 271 272
292 292 290 290 293 294 294 292 295 295 296 295 295 295 295 295 294 292 293 293 290 289 288 287 287 287 286 284 284 284 285 286 285 284 283 282 280 279 278 276 275 275 275 273 272 272 271 268 270 269 270 270 271 271
290 287 289 290 292 292 290 293 293 295 295 295 295 294 293 293 292 293 293 291 289 288 287 285 285 284 284 283 283 282 282 282 281 280 280 280 279 277 276 274 272 271 270 270 270 269 269 269 268 269 269 269 269 269
291 288 290 290 289 291 291 292 293 293 294 294 294 293 292 291 292 292 292 288 286 286 287 287 287 286 284 282 281 279 279 280 279 277 276 276 275 274 273 272 271 269 269 270 269 269 268 268 268 268 268 268 268 268
289 289 290 289 290 292 291 293 292 292 291 293 293 289 290 291 290 289 286 285 284 283 283 285 285 283 282 281 280 278 276 276 277 276 273 273 273 274 273 273 273 271 268 267 267 267 267 267 267 266 267 268 267 267
290 290 289 288 290 290 291 290 289 291 292 293 293 292 292 291 288 284 282 280 281 278 277 279 280 279 278 276 274 273 273 274 274 273 271 270 269 269 269 270 269 267 266 265 265 265 265 265 266 266 266 267 267 266
289 289 290 288 289 289 291 290 291 292 292 290 291 290 289 287 284 280 279 277 276 275 274 273 272 273 272 272 273 272 271 270 271 270 269 269 268 267 266 266 265 265 265 264 264 264 264 264 265 265 266 265 265 264
289 288 289 286 289 290 290 290 290 289 286 290 290 285 281 276 274 275 275 275 275 275 274 273 271 271 270 269 269 269 270 271 272 272 272 272 270 269 266 265 265 264 264 263 264 263 263 264 264 264 263 263 262 262
289 288 290 287 288 289 288 288 287 284 281 281 279 278 276 273 271 271 272 272 272 271 270 270 270 271 270 271 270 269 267 267 267 268 270 270 268 266 265 265 264 264 263 262 262 262 263 262 262 263 262 262 262 261
286 289 289 288 288 287 285 284 284 282 280 278 277 277 276 274 271 269 269 269 269 270 271 270 269 268 269 269 270 270 269 266 266 266 265 265 264 264 264 264 263 263 262 262 262 262 261 262 263 262 262 261 260 260
285 284 286 288 287 283 280 284 284 284 281 280 276 275 274 275 274 271 268 269 270 270 268 269 270 269 267 267 267 266 266 266 265 265 265 265 264 264 263 263 263 263 262 261 261 261 261 260 261 261 261 260 259 258
282 283 283 284 285 285 279 280 281 280 279 278 275 274 273 274 272 270 268 268 268 268 267 267 267 267 267 267 267 266 266 265 264 264 265 265 265 264 264 263 262 262 262 261 261 261 260 260 260 260 260 258 258 258

GFSWCAN_925_thetae_051.txt.gz
Theta_e
299 299 299 299 299 299 299 300 301 302 303 303 302 303 303 307 309 308 316 322 325 326 322 323 320 320 321 325 329 324 324 324 325 329 330 332 333 325 323 321 323 325 328 324 328 324 326 314 315 318 319 316 316 316
299 299 299 298 298 299 301 301 302 301 304 303 303 304 304 309 308 308 317 321 323 325 324 321 320 320 322 324 324 323 323 325 326 328 330 331 326 321 327 325 319 323 323 325 322 323 317 315 315 318 316 316 317 316
299 298 298 300 301 301 300 301 303 304 304 304 306 307 309 308 308 310 319 322 323 325 322 323 323 319 318 320 321 325 326 324 325 325 327 329 326 326 326 327 322 319 317 319 319 316 315 315 315 315 315 315 315 315
301 302 302 301 299 300 304 305 305 305 307 308 308 308 307 309 312 312 321 321 322 322 328 323 318 318 316 319 321 322 323 321 321 323 326 319 325 321 327 322 321 319 317 317 317 315 314 315 316 316 316 315 314 313
301 299 300 300 302 306 307 307 308 309 308 307 306 308 311 314 313 317 317 315 320 325 323 323 318 316 317 319 319 319 320 321 323 324 321 328 320 321 319 318 321 317 317 319 320 316 316 317 315 314 315 315 313 311
306 306 306 306 307 308 307 307 306 306 307 310 311 313 314 313 315 316 322 317 317 321 323 325 317 317 317 318 318 320 321 322 324 320 322 319 315 322 323 323 318 315 314 315 317 315 315 314 313 312 312 309 307 305
307 307 307 309 311 312 312 312 312 313 313 313 314 314 314 313 316 319 317 315 316 317 317 318 321 317 316 318 317 319 318 319 322 319 316 320 318 320 317 324 316 314 314 313 313 314 314 312 310 306 303 302 301 300
313 313 313 313 312 311 314 315 315 315 315 313 313 312 312 314 312 314 307 312 312 315 316 317 319 319 315 319 318 316 318 319 315 314 314 316 315 316 323 317 314 313 312 311 310 310 308 305 304 303 301 300 300 299
312 311 310 309 310 310 310 310 311 313 313 312 312 313 313 316 319 311 306 308 310 315 312 311 320 320 312 312 313 314 314 314 312 314 315 317 314 319 312 310 311 310 311 309 307 306 304 303 302 301 301 299 298 298
312 312 311 311 311 310 309 310 312 313 313 312 313 316 319 312 307 306 310 317 313 312 308 311 312 317 313 313 312 315 310 314 315 312 312 317 316 306 305 305 306 309 308 307 306 303 302 301 302 300 299 299 299 298
310 311 313 313 312 313 312 310 310 310 310 315 316 313 310 307 312 312 311 319 317 315 310 310 313 313 309 315 309 309 311 311 315 314 315 315 314 306 304 305 305 305 304 302 302 301 301 300 299 299 296 294 293 293
310 310 310 309 310 310 311 311 310 310 310 313 313 309 310 312 313 316 311 311 314 313 308 309 309 309 307 309 310 308 309 310 315 311 317 313 306 304 304 304 303 302 301 301 299 299 298 296 295 294 293 293 292 292
311 311 311 310 309 310 310 310 310 310 310 311 311 310 316 310 316 315 315 314 310 308 306 308 307 307 306 308 308 313 311 313 309 313 312 309 305 304 303 302 301 300 300 299 296 294 293 293 293 293 292 292 293 292
309 310 310 310 310 310 310 311 310 310 308 305 309 312 312 311 310 309 312 309 303 304 307 307 306 309 308 309 312 310 308 309 311 313 312 306 303 302 301 301 300 297 296 295 294 293 292 292 291 290 288 287 286 287
304 308 309 308 309 310 310 310 310 308 302 305 307 310 306 300 300 300 300 302 300 303 306 307 308 309 309 309 309 307 309 313 311 313 307 302 300 299 299 298 295 294 294 294 293 291 291 292 291 290 287 285 285 284
303 305 299 301 305 307 309 309 304 299 297 300 301 303 300 302 301 300 300 300 299 303 307 309 309 313 309 310 313 315 313 312 308 305 301 299 300 300 298 296 295 295 294 294 293 291 289 287 287 286 285 283 282 283
302 297 297 298 301 304 304 300 297 295 297 300 300 297 300 299 299 298 298 298 297 304 307 308 312 309 306 307 308 306 309 305 301 299 298 299 299 298 296 295 293 294 294 293 291 290 288 286 285 284 284 282 281 281
297 297 297 297 298 300 296 295 296 300 300 299 300 298 295 296 297 296 295 295 299 301 304 305 305 307 311 309 306 302 300 296 295 295 297 298 298 296 295 295 294 293 291 289 288 286 285 285 285 283 282 280 280 280
294 295 296 297 297 296 295 295 297 299 299 298 298 298 297 295 294 295 296 298 297 300 302 304 306 306 305 303 302 299 297 297 296 294 294 293 294 294 293 292 290 289 288 287 287 286 284 281 280 280 279 278 279 279
295 295 295 296 298 297 297 297 297 299 299 298 298 299 298 297 296 297 298 299 300 302 301 302 299 295 297 296 298 299 297 296 295 295 293 292 291 290 290 289 288 286 285 283 281 281 282 281 279 278 277 277 277 277
295 295 295 296 296 295 296 297 297 297 297 297 297 298 298 298 299 300 299 299 297 295 295 293 292 291 291 293 295 297 297 297 297 297 295 292 290 289 287 285 285 284 284 283 282 280 279 278 277 276 276 276 275 276
293 293 293 294 296 296 296 295 297 296 297 297 298 298 299 300 299 297 297 296 293 292 292 292 292 292 292 292 292 292 291 290 290 288 288 288 288 287 285 284 284 282 280 279 279 278 277 275 274 274 275 274 274 275
292 293 293 295 297 298 295 295 298 296 298 297 297 298 297 297 295 295 295 293 291 290 289 289 289 289 289 288 288 289 289 289 288 287 286 286 284 283 281 280 280 280 279 277 276 276 275 272 273 272 273 273 274 274
290 291 292 293 295 295 296 295 295 296 297 297 296 295 295 295 294 295 294 292 290 289 288 287 287 287 287 287 286 285 285 285 285 284 284 283 282 280 279 277 276 275 274 274 274 274 274 273 272 273 272 272 273 272
294 291 294 294 294 295 295 295 295 295 296 296 296 295 294 293 294 294 293 289 288 288 289 289 287 288 287 285 283 281 282 283 282 281 280 280 279 278 277 276 274 273 272 273 274 273 272 271 271 271 271 271 271 270
292 290 293 293 294 295 295 295 295 294 295 295 293 292 293 294 293 291 287 285 285 283 283 285 287 285 283 282 282 280 278 279 279 278 276 276 277 278 277 277 276 274 271 271 271 271 271 270 270 269 270 270 270 270
293 293 291 290 292 292 294 293 293 294 294 295 294 294 294 294 290 285 284 281 282 279 278 279 280 280 279 277 276 276 275 275 276 275 273 273 272 272 273 273 272 270 269 269 268 269 269 268 269 269 269 269 270 269
290 291 292 291 292 292 292 293 294 294 293 292 293 292 291 289 285 281 280 278 277 276 275 274 273 274 274 275 275 274 274 273 272 272 272 272 271 270 270 270 268 266 266 267 266 266 267 267 267 268 268 268 267 267
290 290 291 290 291 291 291 292 292 289 287 290 292 288 283 278 276 277 277 277 277 277 276 275 275 274 273 272 272 272 273 273 275 275 275 276 274 273 270 268 268 268 267 267 266 266 266 265 266 266 266 265 266 266
289 289 292 290 290 291 290 289 287 283 283 283 281 279 278 275 273 274 275 275 275 274 273 273 273 274 274 274 273 271 270 269 269 270 272 272 270 269 268 268 268 267 267 266 266 266 266 265 265 266 266 266 266 265
288 290 290 290 290 288 287 286 284 283 282 281 281 281 278 276 273 272 272 273 273 273 274 273 272 272 272 271 272 273 272 269 266 266 265 266 267 267 268 267 266 266 265 265 265 265 265 264 265 265 266 265 264 264
288 287 289 290 289 286 286 288 288 286 284 283 280 279 278 278 276 273 270 272 273 273 271 272 272 270 269 269 268 268 267 267 267 265 265 265 265 266 266 266 266 266 265 265 264 265 265 264 264 264 264 264 264 262
287 287 287 287 287 287 285 285 285 283 282 281 279 278 277 277 275 272 269 269 269 269 269 269 269 268 267 267 267 267 267 267 265 264 264 263 264 263 263 264 265 265 264 264 264 264 264 264 264 263 263 262 262 261

GFSWCAN_925_thetae_054.txt.gz
Theta_e
297 297 296 297 299 300 299 300 299 300 300 300 302 302 300 302 304 305 309 310 315 327 324 324 322 323 323 327 330 327 325 326 332 326 323 337 335 329 325 323 326 326 330 324 331 326 327 317 315 318 321 319 317 317
298 298 298 299 299 299 299 299 299 300 300 301 302 301 300 302 302 302 310 312 313 324 327 324 321 321 323 326 328 326 326 326 329 333 332 336 325 323 331 332 320 326 326 330 327 326 321 316 318 319 317 316 316 317
299 299 299 299 299 299 299 299 298 300 301 301 302 300 301 303 303 304 309 313 321 327 324 324 325 321 320 321 324 328 330 326 328 330 332 334 326 332 326 333 324 321 320 325 322 317 317 316 316 317 316 317 316 316
299 298 296 297 298 298 298 298 300 301 301 302 302 302 303 304 304 305 309 313 321 325 324 324 321 320 319 321 323 325 327 326 329 330 331 319 324 326 333 326 326 322 320 319 319 318 316 318 317 316 316 316 315 314
297 298 298 298 298 299 301 301 302 301 300 301 302 303 303 304 305 308 308 313 318 324 323 323 319 319 319 321 322 322 326 327 328 323 313 333 326 328 325 325 325 319 319 325 326 318 319 318 315 314 315 314 312 310
299 300 300 301 299 299 300 300 300 301 303 304 304 304 304 307 307 309 318 315 318 320 324 323 318 319 320 320 321 323 324 327 327 323 327 323 318 328 324 329 319 317 316 317 319 316 316 314 312 311 309 308 306 304
300 301 301 300 298 299 302 303 302 303 305 304 305 306 307 308 312 317 316 314 317 320 320 315 320 317 319 319 321 321 322 322 324 322 322 323 320 321 318 330 318 316 316 314 314 315 314 313 308 305 304 302 301 300
300 300 301 301 303 304 304 305 305 305 306 307 306 307 309 312 314 315 310 314 314 316 317 314 314 318 316 321 321 317 321 320 316 315 317 319 318 321 327 318 316 315 313 312 311 311 309 306 305 304 302 301 299 299
305 305 306 307 307 307 307 306 306 306 306 307 308 309 312 315 316 313 313 312 312 315 311 310 314 318 315 314 314 315 316 313 314 314 316 319 314 318 317 315 314 312 312 310 308 307 306 305 303 302 300 300 299 299
308 307 307 308 310 311 311 310 309 309 309 309 312 315 311 311 309 311 311 318 312 312 310 314 313 317 314 315 313 315 312 314 317 314 315 317 315 309 308 308 309 310 310 308 307 305 303 303 302 300 300 299 298 296
308 309 309 308 307 308 310 311 311 311 312 316 315 309 308 310 313 311 311 312 313 313 312 313 314 315 311 314 311 310 313 313 318 315 317 315 315 307 307 307 308 307 305 305 304 303 302 302 301 298 295 294 294 293
310 310 309 309 310 310 310 311 311 312 314 315 313 312 311 314 311 312 310 311 314 314 309 313 312 310 309 312 310 308 311 312 318 312 314 315 307 306 306 305 304 303 302 302 301 300 300 297 295 295 294 293 293 291
309 310 310 310 310 309 310 310 309 310 311 311 310 306 313 308 314 314 313 314 311 307 307 309 309 307 308 308 308 310 313 316 312 313 313 311 306 305 304 304 303 302 301 300 297 295 295 294 293 293 291 291 290 288
309 309 309 310 310 310 309 309 310 309 308 305 309 310 311 313 310 308 308 309 302 304 307 307 308 309 308 307 309 310 309 310 313 314 313 307 305 304 303 302 301 298 295 296 294 293 292 291 289 287 287 286 286 285
309 308 308 307 308 309 310 309 310 307 302 304 306 308 305 300 300 300 300 301 300 304 307 309 309 308 308 308 309 307 310 312 313 314 308 305 303 302 302 300 296 295 293 294 293 292 291 291 289 287 285 284 284 282
304 308 300 302 307 308 308 309 308 300 298 300 300 303 300 303 302 301 300 301 299 302 308 310 309 307 310 311 311 310 313 313 311 305 302 301 300 300 298 296 295 295 294 293 292 290 288 288 288 286 284 282 283 281
302 296 298 303 304 306 307 302 298 297 297 299 300 296 299 299 299 298 298 298 298 304 306 310 311 309 308 310 309 307 308 305 301 299 299 299 299 299 297 296 295 295 294 293 291 289 288 286 285 285 284 282 282 282
297 296 297 300 305 304 297 296 299 300 300 299 299 297 296 295 297 296 295 296 302 303 305 306 306 309 311 309 306 302 298 296 296 298 298 299 298 297 295 295 295 294 292 290 288 287 286 286 285 284 282 281 281 281
294 296 297 299 300 297 296 297 299 299 299 298 296 296 296 295 294 295 295 296 298 301 305 307 308 306 304 302 300 297 296 296 295 294 294 296 296 296 295 293 292 290 289 289 288 286 283 282 281 281 280 280 280 280
296 296 296 297 299 297 298 298 299 299 299 299 298 298 297 297 295 296 298 299 300 301 298 298 296 294 296 295 297 297 296 294 294 294 293 292 291 291 291 290 289 287 285 283 283 284 283 282 280 279 278 278 278 278
296 295 296 298 297 297 298 299 298 298 299 298 297 298 298 297 298 298 298 297 296 294 294 293 293 293 292 293 296 297 296 297 296 295 294 292 291 290 289 288 287 287 286 285 284 281 281 279 278 277 277 278 276 276
295 296 296 295 297 296 297 296 298 297 298 299 299 299 300 299 298 297 298 295 292 292 292 293 294 292 291 292 292 292 292 292 291 292 291 290 290 288 287 286 285 284 282 281 281 280 279 276 275 275 276 276 275 276
294 295 295 296 296 297 296 297 298 298 299 299 299 298 298 297 296 296 295 293 291 290 290 290 290 289 289 289 289 290 289 289 289 288 287 286 285 284 283 283 283 282 280 278 278 277 276 274 275 274 275 274 274 275
291 292 294 295 297 295 297 297 297 297 297 298 297 296 295 295 296 296 293 291 291 290 289 288 289 289 288 286 286 286 286 286 286 285 285 284 282 281 279 278 277 276 276 276 276 276 276 275 274 274 274 273 273 273
294 292 295 295 297 297 296 295 296 296 297 297 296 296 295 295 295 294 292 289 286 286 286 288 288 288 286 285 283 282 282 284 283 282 281 280 280 279 278 276 275 274 274 275 274 274 274 273 273 272 271 271 272 271
293 291 293 293 294 295 296 295 295 295 295 295 293 292 295 295 293 289 287 285 283 282 282 283 287 283 281 281 280 279 278 280 279 277 276 277 278 279 279 278 277 273 272 272 271 271 272 271 271 270 270 271 271 271
293 293 292 292 293 294 294 294 295 295 295 296 295 295 296 294 289 286 283 280 280 278 277 278 279 279 279 277 276 275 275 275 275 275 274 273 273 273 273 273 272 269 269 269 269 269 269 269 269 269 269 270 270 270
290 291 291 292 293 294 294 294 294 294 293 291 294 290 290 287 284 281 280 279 278 277 276 275 275 275 275 275 275 276 275 274 274 274 273 273 272 271 271 271 269 269 268 268 268 267 267 267 267 267 268 268 267 267
290 291 292 291 292 291 291 293 291 288 286 289 291 286 282 278 278 278 278 278 278 278 277 277 276 275 274 273 273 272 272 272 275 276 276 276 275 272 270 270 270 269 269 268 268 267 268 267 267 267 266 266 266 266
290 291 292 291 291 291 289 287 284 284 284 283 280 278 277 275 275 275 276 276 276 275 275 275 275 275 276 275 273 272 270 269 268 270 271 271 270 269 269 269 269 268 268 267 267 267 267 267 266 266 267 267 267 267
290 292 291 291 289 289 287 285 284 283 282 282 282 279 277 276 274 273 273 274 274 275 275 274 272 272 272 271 272 273 272 269 268 267 266 267 268 268 268 268 268 267 267 267 266 266 266 266 266 266 266 266 266 265
288 289 291 291 289 287 288 289 289 286 285 282 281 280 280 280 276 273 271 273 273 273 272 272 272 270 269 270 270 269 268 268 268 266 266 265 265 265 265 265 265 266 266 266 266 266 266 266 266 266 265 265 265 264
288 288 288 289 289 288 286 287 286 284 283 282 280 279 278 277 275 273 271 270 270 270 270 270 270 270 269 269 268 268 268 268 266 266 265 265 264 263 263 263 264 263 263 264 265 264 265 265 265 265 264 263 263 263

GFSWCAN_925_thetae_057.txt.gz
Theta_e
298 297 297 296 296 297 297 297 296 298 300 301 300 302 302 302 303 303 303 306 312 318 320 322 316 320 322 324 322 322 322 325 324 316 317 315 313 318 319 325 319 317 316 313 316 319 317 318 314 313 316 315 314 315
297 297 296 297 296 296 297 298 298 300 301 300 300 302 302 302 304 302 304 306 307 313 319 321 320 322 322 322 324 320 320 323 323 319 316 316 319 314 317 317 321 321 321 318 317 317 317 317 316 314 313 313 314 313
297 297 296 299 300 300 300 300 299 298 298 299 300 302 302 301 302 301 303 308 310 313 320 323 322 319 322 324 323 322 322 321 324 321 320 318 317 316 317 318 321 320 319 319 317 318 314 316 315 315 314 313 313 312
297 298 299 299 299 299 299 298 298 299 299 300 300 301 302 301 301 303 303 305 311 315 315 323 320 319 320 323 323 323 324 325 322 319 312 311 314 320 317 320 319 318 317 318 317 316 317 315 314 314 314 312 306 303
298 298 298 297 298 298 298 298 297 299 300 301 301 302 301 300 302 303 303 304 308 315 317 320 319 319 320 322 324 324 322 323 320 311 308 315 318 317 317 316 317 316 318 313 312 317 316 314 313 310 308 306 303 301
297 296 296 297 298 297 298 297 298 300 301 301 301 302 301 302 303 304 309 307 306 310 318 314 316 315 320 321 320 322 322 323 319 315 311 316 316 314 311 312 316 315 315 315 316 313 310 306 305 305 303 302 301 300
297 297 297 297 297 297 298 299 300 301 301 301 301 302 303 304 305 310 314 312 313 313 314 311 314 314 316 318 315 317 317 316 317 315 312 314 316 313 311 313 315 314 313 313 312 309 308 305 303 301 301 300 299 298
297 297 297 299 300 300 300 301 301 301 301 300 301 302 303 304 308 311 313 311 314 315 311 309 311 314 314 315 312 311 315 312 311 313 312 308 311 305 312 315 313 312 310 308 307 307 304 303 302 301 299 298 297 297
301 301 300 299 298 298 297 299 298 298 302 303 303 304 305 307 310 312 312 313 311 312 306 304 314 315 312 312 311 309 310 310 310 307 312 311 310 311 315 313 312 310 309 306 305 304 303 302 301 299 298 297 297 296
299 299 299 300 299 302 301 301 300 300 304 304 305 310 310 310 312 313 311 307 303 303 304 309 307 312 312 307 307 307 304 308 311 309 312 309 309 309 308 308 308 309 306 305 303 302 301 301 299 299 297 295 294 292
304 305 304 303 303 304 304 304 304 304 305 311 310 305 307 310 311 305 304 306 306 305 304 310 309 311 309 309 307 303 307 306 312 310 311 311 309 309 308 306 305 305 305 305 303 302 301 300 296 294 293 292 290 289
305 305 307 308 307 306 306 305 305 309 312 312 310 309 310 309 304 309 306 304 309 308 305 309 308 308 304 308 307 303 308 307 313 308 311 308 308 307 306 303 302 302 302 302 301 301 298 295 294 293 292 290 287 285
308 307 305 305 306 307 308 310 312 311 310 310 306 303 306 303 309 310 309 309 308 304 304 304 305 302 303 303 304 307 310 311 306 309 307 306 306 305 303 302 301 301 300 298 295 294 293 292 292 291 289 287 285 283
309 308 309 308 309 309 309 309 310 307 308 303 305 308 307 308 305 304 306 306 300 301 303 303 304 303 301 304 304 309 306 307 310 309 308 306 305 303 302 301 300 296 293 293 293 290 289 288 286 286 286 285 284 282
308 308 308 308 308 308 309 310 308 305 299 300 301 306 303 299 299 299 298 299 298 301 302 303 303 303 304 306 304 305 308 310 307 308 306 304 302 301 299 296 294 293 292 292 291 289 287 286 285 285 283 282 281 280
305 307 301 304 309 309 309 310 305 300 296 298 298 302 300 302 301 300 299 300 297 298 300 301 305 306 308 306 308 309 307 307 307 303 302 302 301 299 296 294 294 293 292 292 290 289 287 286 284 282 283 281 280 280
305 296 300 301 305 309 309 304 298 295 296 298 298 296 298 298 298 297 297 297 296 301 304 303 306 307 304 307 306 303 304 301 300 299 298 299 298 295 294 294 293 293 291 289 288 287 286 285 283 282 282 282 281 280
296 297 301 304 304 303 297 298 297 297 298 296 297 296 295 295 297 296 295 295 298 299 300 302 302 306 307 306 304 299 296 296 297 298 298 297 296 295 295 295 293 292 289 288 287 286 285 284 283 281 280 281 280 279
297 297 299 301 302 297 296 296 298 298 297 296 295 294 294 294 294 294 295 296 296 298 299 301 300 301 300 298 297 296 295 295 295 295 295 295 294 294 293 290 289 288 287 286 284 282 281 281 280 279 279 279 279 278
296 297 297 298 298 296 296 296 298 297 298 296 295 296 295 295 294 294 294 294 295 295 293 294 294 293 294 294 295 294 293 293 293 293 292 291 291 290 289 288 285 284 284 283 283 282 280 279 279 278 278 278 277 277
295 295 295 296 296 296 296 296 296 296 296 297 295 296 296 295 296 295 294 293 292 293 293 293 292 291 291 292 293 294 294 294 293 292 292 291 289 288 288 287 286 285 284 281 281 279 278 277 276 277 277 276 275 276
295 296 295 295 293 293 293 295 296 295 297 297 297 296 298 297 296 295 292 291 291 291 291 291 290 290 290 290 290 290 290 292 291 290 289 288 287 286 285 284 282 281 280 280 279 277 275 275 274 275 275 275 275 275
293 293 293 294 290 290 292 296 295 296 298 298 297 297 297 296 295 293 292 291 290 289 289 290 288 287 286 285 286 287 287 287 286 285 284 283 282 281 280 279 280 278 278 277 277 276 275 275 274 274 274 273 273 273
292 291 289 291 291 293 291 291 294 295 295 296 294 294 293 294 293 290 290 288 286 284 285 287 289 286 284 283 283 283 285 283 283 284 282 281 279 278 277 276 276 276 276 276 275 275 274 273 273 273 272 271 271 272
287 288 289 288 289 288 288 294 295 294 295 295 294 293 292 292 292 289 288 285 282 280 281 283 282 284 283 281 280 279 280 281 280 279 278 279 278 277 275 274 273 273 273 273 272 272 272 272 271 271 270 270 271 271
291 291 291 292 293 292 292 294 294 294 292 288 292 292 293 290 285 285 284 282 279 279 278 280 281 279 278 278 277 276 276 277 276 275 274 275 276 277 277 275 273 271 270 270 270 269 269 269 269 269 269 269 269 270
292 292 292 291 293 293 293 292 291 289 289 292 292 291 291 285 284 283 280 278 278 276 276 276 277 277 276 276 275 275 275 275 274 274 273 272 272 272 272 270 269 269 269 269 268 267 267 267 267 267 267 267 267 267
290 291 292 292 289 290 289 287 286 288 287 287 288 283 281 281 280 280 279 278 276 276 275 274 274 274 274 273 273 274 274 274 274 273 272 271 271 270 270 270 269 269 269 268 268 267 267 267 267 266 266 266 266 266
290 291 288 289 289 287 287 287 286 285 285 286 281 281 277 277 277 278 277 276 276 275 276 276 274 273 272 271 270 270 272 273 273 270 269 269 271 269 269 269 269 268 268 268 267 267 267 267 267 266 266 266 267 267
288 290 288 284 284 285 284 283 281 282 280 277 276 276 275 274 273 274 274 275 274 275 274 273 272 272 272 272 270 269 269 268 268 268 263 263 267 268 268 268 267 267 267 267 266 266 266 266 265 266 266 265 265 265
287 289 288 286 287 284 283 281 280 279 277 276 275 273 273 272 273 272 272 273 273 274 272 271 270 270 270 270 269 269 268 268 267 267 266 266 266 266 266 266 266 266 266 266 266 266 265 265 265 265 265 265 265 264
288 287 288 286 286 286 284 285 285 282 280 278 276 272 274 274 270 271 270 272 271 271 270 270 269 269 269 268 268 268 268 268 267 266 266 265 265 264 264 264 264 264 264 264 264 264 264 264 264 265 265 264 264 263
283 283 285 285 286 283 280 283 280 280 277 276 277 272 269 268 269 271 270 270 269 269 269 269 269 269 269 268 268 267 267 267 266 265 265 265 264 264 263 263 263 263 263 262 262 262 262 262 262 262 262 262 262 262

GFSWCAN_925_thetae_060.txt.gz
Theta_e
302 301 299 299 298 298 297 297 297 297 297 297 297 295 296 297 303 304 303 304 304 312 313 320 316 315 315 315 320 320 321 319 318 317 317 317 311 317 317 319 315 315 314 312 310 306 315 314 313 313 310 312 314 315
299 299 298 298 298 297 297 297 297 297 297 297 297 297 297 303 303 303 303 303 304 307 311 311 314 320 316 315 320 318 320 320 320 318 314 315 317 309 314 319 318 318 313 314 315 314 312 314 314 312 312 312 313 312
297 297 297 297 297 297 297 297 297 298 298 299 298 301 303 303 302 303 302 302 303 309 311 317 320 319 321 320 320 320 318 320 320 318 319 317 316 313 314 312 318 319 318 318 318 316 315 314 313 312 311 311 309 310
297 297 297 297 297 297 297 297 297 297 301 300 300 301 301 301 302 302 302 306 307 312 313 318 319 318 320 323 321 321 322 320 316 314 311 312 312 315 312 316 315 316 316 316 316 316 315 314 313 311 304 302 301 300
297 296 296 296 296 297 297 298 299 299 300 300 300 300 301 301 303 303 303 302 305 310 313 318 317 318 320 322 323 323 321 321 318 311 306 315 314 315 313 312 316 314 315 314 313 315 312 313 309 306 303 301 300 299
298 298 298 299 300 300 300 299 299 299 299 299 299 300 302 301 302 303 303 301 303 304 309 313 314 316 317 319 318 317 316 318 318 315 313 314 315 310 309 309 314 314 314 313 315 309 307 304 303 302 300 300 299 298
296 297 298 298 298 298 298 298 299 299 299 300 301 301 301 301 302 304 305 309 304 304 309 310 313 315 314 314 312 315 312 312 316 316 314 314 315 310 305 310 314 313 311 307 305 305 304 303 300 300 299 299 298 297
297 297 298 297 297 297 297 297 299 300 300 300 300 301 301 303 304 305 310 309 307 309 311 308 314 315 312 312 313 309 310 309 311 312 310 309 311 306 310 313 312 309 309 307 305 305 302 300 299 298 298 297 296 294
297 297 297 297 297 298 298 299 300 300 301 301 302 302 303 304 307 305 308 311 311 309 306 304 314 315 310 309 308 307 305 309 305 307 309 310 307 309 312 311 309 309 308 305 303 302 301 299 298 297 297 296 293 292
298 297 297 300 300 300 301 301 301 301 302 302 301 305 305 309 308 306 308 309 303 302 303 307 306 312 310 304 306 306 303 307 314 306 309 305 308 307 307 308 308 305 304 303 302 301 299 298 297 297 296 294 292 290
300 300 299 299 298 298 299 300 300 299 299 302 305 304 306 310 310 306 306 306 304 304 304 308 307 311 308 308 307 302 306 305 311 311 310 310 310 308 306 306 305 305 303 304 302 300 298 297 295 293 292 290 289 288
298 298 298 298 299 299 299 298 298 299 304 308 309 308 308 306 303 308 305 304 306 307 304 308 307 305 304 305 305 303 307 305 310 307 310 312 307 307 305 304 305 304 303 302 301 298 295 294 293 291 288 287 286 284
303 302 301 301 301 303 301 299 298 301 308 308 304 308 306 302 308 306 308 307 307 303 304 303 305 302 302 303 303 305 308 309 300 306 309 305 307 304 303 302 301 299 298 297 295 294 294 292 290 287 285 284 284 282
303 303 303 303 303 303 303 303 304 308 306 302 307 306 307 308 304 303 305 305 300 301 302 303 303 304 301 305 303 309 305 305 303 302 307 306 305 303 302 299 296 294 293 293 292 291 289 288 286 285 283 282 282 281
306 305 305 304 305 304 305 306 309 304 297 299 300 304 302 299 299 299 298 299 298 299 300 301 302 303 303 306 303 303 308 309 305 305 305 304 302 301 298 295 293 292 291 290 289 287 286 285 284 283 282 282 281 279
306 307 299 302 306 307 310 306 301 299 295 297 297 302 300 302 302 300 299 300 297 298 299 301 304 306 306 305 307 307 306 307 306 302 302 301 298 296 295 293 293 292 290 288 287 286 285 284 283 282 280 280 280 279
307 299 302 305 305 306 304 300 297 295 297 298 297 295 297 298 298 297 297 297 295 299 304 298 306 307 302 306 306 303 303 300 299 298 299 297 295 294 293 292 291 291 289 288 287 285 284 283 282 281 280 280 280 279
297 298 302 305 306 306 298 298 294 295 297 296 296 295 295 295 296 296 295 295 297 297 298 302 300 303 304 305 303 299 297 297 297 296 295 295 294 293 293 292 291 289 288 287 286 285 283 283 282 281 282 280 280 279
297 298 300 300 301 298 295 296 296 297 296 296 295 294 295 294 293 292 293 294 294 294 296 296 295 296 296 297 297 296 295 295 296 294 293 293 293 291 290 289 288 287 286 285 283 282 281 281 280 280 280 279 278 278
296 296 297 298 298 295 295 296 296 296 297 296 295 296 295 295 293 292 292 292 293 293 293 294 293 293 293 294 294 294 293 293 293 292 291 290 289 288 286 286 285 284 283 282 281 280 280 279 278 278 278 277 276 276
295 295 295 296 296 296 295 295 296 296 296 297 295 296 296 292 291 290 290 290 290 292 292 291 290 289 290 290 291 292 292 292 292 291 290 289 287 286 286 285 284 283 282 281 279 278 277 276 276 277 276 275 275 275
293 294 294 294 290 291 293 294 295 295 297 296 296 296 296 295 292 291 289 289 289 289 290 288 286 286 287 287 287 289 289 288 287 287 286 286 286 284 283 281 281 280 279 278 277 276 274 274 274 275 274 274 273 274
292 293 293 289 287 288 293 292 295 296 297 297 296 296 295 295 294 291 288 286 285 283 286 286 285 284 283 283 284 283 285 284 283 282 281 280 279 278 279 278 278 277 277 276 275 275 274 274 274 274 273 272 272 272
292 289 289 288 287 289 284 291 293 295 295 295 295 293 293 294 290 288 286 283 282 281 282 284 284 283 282 281 281 282 282 281 280 280 279 278 277 276 275 275 275 275 274 274 274 273 273 272 272 271 271 270 271 271
286 286 284 285 284 286 284 290 289 291 292 292 291 292 292 290 288 286 283 281 279 278 278 280 279 280 280 279 278 278 278 278 277 276 276 277 276 275 274 272 271 271 272 272 270 270 270 270 269 269 269 269 268 269
289 286 290 290 289 289 291 291 288 288 284 290 291 289 287 283 282 282 281 279 277 277 276 278 277 277 276 276 276 275 276 276 275 274 273 274 275 275 274 273 271 269 269 268 268 268 267 267 267 267 267 267 267 266
288 286 289 290 291 290 286 285 286 283 284 285 287 285 280 278 279 280 279 277 277 275 275 275 276 275 275 274 274 274 274 274 273 272 271 271 270 270 270 269 269 268 269 268 268 267 267 267 267 267 266 266 266 266
289 289 287 287 282 284 280 278 281 283 282 285 280 276 274 274 278 278 278 276 275 274 274 273 273 273 272 271 272 273 273 272 272 271 270 269 269 269 269 269 269 268 268 268 267 267 267 267 267 266 266 266 266 266
288 287 282 280 279 279 281 280 281 282 280 280 272 274 274 275 273 275 275 275 275 274 273 273 271 270 270 269 269 270 272 272 272 264 262 261 266 266 268 268 267 267 267 267 266 266 266 266 266 265 265 266 265 265
285 282 279 276 276 279 280 278 277 275 275 273 275 274 273 272 271 273 274 273 272 271 270 270 271 271 269 269 268 267 267 268 267 267 260 259 265 265 266 266 265 265 265 266 266 265 265 265 265 265 265 265 265 264
281 278 278 278 280 279 277 276 276 275 270 270 270 270 269 271 271 271 271 271 271 270 270 269 269 269 269 268 268 267 266 266 266 266 266 265 265 264 264 264 264 264 264 264 264 263 263 263 263 263 264 264 264 264
281 280 278 280 282 280 278 277 273 271 269 268 269 265 266 265 265 269 270 270 269 269 269 269 269 268 268 268 267 267 266 266 266 265 265 264 264 264 264 263 263 263 263 262 262 262 262 262 262 261 261 261 261 261
274 272 272 276 279 277 279 276 272 273 268 269 270 267 263 263 267 269 269 268 268 268 269 269 269 268 268 268 267 267 266 265 265 264 264 264 263 263 263 263 263 262 262 262 262 261 261 261 260 260 259 259 259 259

GFSWCAN_925_thetae_063.txt.gz
Theta_e
300 301 301 301 300 303 301 300 299 298 297 298 298 298 298 298 299 300 300 305 305 309 309 314 315 315 315 315 316 316 322 319 315 316 315 314 311 317 316 316 314 317 315 310 305 305 318 311 312 311 309 313 314 312
302 303 302 302 301 300 299 299 298 298 298 298 298 299 299 299 298 298 300 303 304 305 308 307 308 311 314 314 314 317 317 319 318 317 313 314 315 310 314 318 315 316 314 315 314 314 312 312 311 311 310 312 313 311
299 299 299 298 298 298 298 298 298 298 298 298 299 298 298 296 296 298 300 303 302 303 305 310 314 316 318 318 314 318 317 319 319 316 315 316 318 312 318 315 318 317 314 314 314 316 315 314 312 311 311 311 310 310
298 298 298 298 298 297 297 298 298 298 298 298 297 296 296 296 297 298 303 303 303 305 310 316 318 317 318 320 315 315 318 316 314 314 313 312 313 316 315 317 316 316 316 316 315 315 314 313 311 305 303 303 303 303
297 297 297 297 298 298 297 298 298 298 298 297 297 297 295 298 301 302 303 302 302 305 310 312 313 317 318 321 320 320 318 316 313 312 307 314 314 315 311 313 315 313 315 315 315 313 312 313 307 303 303 301 300 299
297 297 297 297 297 297 297 296 297 296 296 297 297 298 299 303 302 301 303 304 305 305 307 309 311 316 317 317 317 318 317 316 315 314 313 312 313 309 309 311 313 313 313 311 314 311 307 305 302 301 300 299 298 298
296 296 297 297 297 297 297 297 298 299 299 299 300 300 302 302 301 303 301 303 302 303 306 307 312 314 314 315 312 313 312 314 315 315 313 314 314 309 304 309 313 312 308 306 304 304 303 302 301 299 298 297 297 296
298 299 299 299 299 298 298 297 299 299 299 299 300 301 302 302 302 302 307 305 303 304 308 307 311 313 312 313 314 308 309 309 311 312 310 310 312 305 314 313 311 307 306 305 303 303 302 299 298 297 296 296 294 293
297 297 297 297 298 299 300 300 300 300 300 301 301 301 301 301 301 304 307 304 305 308 305 303 312 315 310 309 309 306 306 309 306 307 306 310 307 315 315 315 310 307 308 303 301 300 300 299 297 296 295 293 292 291
296 297 297 297 296 298 299 300 300 300 301 300 301 302 302 303 304 308 306 305 305 302 302 306 307 313 310 305 305 306 303 308 312 309 306 302 309 307 307 308 307 305 303 302 301 300 299 298 296 296 293 292 291 290
295 297 297 298 299 300 300 300 300 301 301 300 301 302 306 306 305 304 302 301 303 305 303 307 308 311 306 309 307 302 306 305 314 312 312 311 311 306 306 305 304 304 303 303 303 301 299 297 296 293 291 290 288 287
297 299 299 299 299 300 300 300 300 301 300 301 304 307 307 306 303 306 304 301 304 307 305 308 306 307 303 303 305 303 307 305 314 306 311 313 306 304 304 303 303 302 301 300 299 298 296 295 293 291 289 287 285 283
299 299 298 298 299 300 300 301 301 300 301 304 304 304 305 301 308 310 310 306 307 303 304 303 305 302 301 299 303 305 308 307 303 310 312 308 307 304 303 303 302 301 299 297 296 294 292 290 289 288 285 284 283 281
298 298 298 298 298 298 300 300 300 299 299 303 305 307 306 307 305 304 305 305 301 300 302 302 301 302 298 305 303 307 305 306 306 305 304 304 304 302 299 298 297 296 294 294 292 290 288 286 285 284 283 282 281 280
302 301 300 300 299 299 298 298 298 299 298 300 302 303 302 299 299 299 298 300 298 298 300 300 301 301 303 305 301 305 308 310 305 300 303 303 301 297 296 295 293 292 291 290 289 287 285 284 284 283 282 281 280 279
303 303 300 303 302 300 298 299 299 298 295 297 296 302 300 302 302 299 299 300 297 298 297 298 302 306 305 304 305 303 306 306 302 302 301 300 297 296 294 293 292 290 289 288 287 286 285 284 283 282 281 279 279 279
304 299 299 303 304 303 301 298 296 293 297 297 297 295 297 298 298 297 297 297 295 299 303 295 304 307 303 305 305 302 302 300 299 298 297 296 295 293 292 290 289 288 287 286 285 285 283 282 280 280 280 279 279 278
298 298 302 301 301 299 297 297 292 296 297 296 297 296 295 294 296 295 295 294 296 296 297 303 300 302 302 304 301 299 297 296 295 295 294 294 293 292 291 290 289 288 286 285 284 283 282 282 282 281 281 280 278 278
297 299 301 301 301 298 296 295 295 296 296 296 295 295 295 293 291 291 292 293 291 291 292 293 291 294 295 296 297 296 295 295 294 292 292 291 291 290 289 288 287 286 285 284 283 282 281 281 281 281 280 279 278 277
296 297 297 299 301 295 295 295 295 295 297 296 294 291 292 291 291 291 291 291 293 293 292 291 291 291 292 293 293 293 293 293 292 290 289 288 287 287 287 286 284 283 282 281 280 280 279 279 278 278 278 277 277 276
295 295 296 297 296 295 294 294 296 296 296 296 295 293 291 290 288 288 289 289 290 291 289 287 286 287 287 289 290 290 290 290 290 289 288 287 286 285 284 283 283 282 281 280 279 277 276 276 276 276 275 275 275 275
293 294 294 294 292 292 293 293 295 295 296 296 296 295 293 292 290 288 287 285 284 284 286 285 284 285 284 285 285 285 285 284 283 283 283 283 283 281 281 280 280 278 277 277 276 275 274 274 274 274 274 273 273 274
293 294 291 288 289 291 293 292 295 296 297 296 295 295 295 292 290 288 285 283 282 281 283 284 283 282 282 282 282 282 282 281 281 280 279 278 278 277 277 277 277 277 276 275 275 274 273 273 273 273 272 271 271 271
291 285 283 282 286 287 286 292 294 295 294 294 294 293 293 290 288 285 283 281 280 279 280 280 281 281 280 279 279 279 279 279 279 278 278 277 276 274 274 273 273 273 273 273 272 272 271 271 270 270 270 270 269 269
285 284 282 282 282 285 284 286 290 293 292 292 292 292 291 288 286 283 281 279 278 277 278 278 277 278 278 278 277 276 276 276 276 275 275 275 274 273 272 270 269 269 270 270 269 269 268 268 268 267 267 267 267 266
284 285 288 287 286 287 285 284 287 286 287 290 290 288 284 283 281 280 279 278 277 276 276 277 276 276 275 275 275 274 274 274 273 272 271 273 274 274 272 271 270 268 268 268 267 267 267 266 266 266 266 266 266 265
286 287 288 287 288 287 284 281 282 281 282 283 283 279 278 277 278 279 278 276 276 274 274 273 273 273 273 272 272 272 272 272 271 270 269 269 269 269 269 268 268 268 268 267 267 267 266 266 266 266 265 265 265 265
288 287 284 279 279 280 278 275 278 280 280 282 275 271 271 270 276 276 276 274 273 272 271 270 270 270 270 271 271 271 271 271 270 270 269 268 268 268 267 267 267 267 267 266 266 266 266 266 266 265 265 265 265 265
284 284 279 276 275 276 278 278 277 276 276 275 269 270 272 272 271 273 273 274 273 272 270 269 268 269 268 269 269 269 270 270 271 262 259 257 264 265 265 265 266 266 265 265 266 266 266 265 265 265 265 264 264 264
280 277 277 272 274 276 275 274 272 270 273 272 273 273 272 270 270 271 272 271 270 268 269 269 269 270 268 268 266 266 266 266 266 266 259 259 264 264 264 264 264 263 264 264 264 264 264 264 263 263 263 264 264 264
276 276 275 275 277 274 272 273 273 272 268 270 268 270 268 269 270 270 269 269 269 269 269 268 268 268 268 267 267 266 265 265 266 265 265 264 264 264 264 263 263 263 263 262 262 262 262 261 261 261 261 261 261 261
273 269 274 276 276 276 273 267 267 268 266 266 267 264 264 263 263 268 268 269 269 268 268 268 268 267 267 267 266 266 265 265 265 265 264 264 264 263 263 263 263 262 262 262 262 262 261 261 260 260 259 259 259 259
271 269 267 271 275 275 276 274 270 270 268 268 268 265 259 261 265 267 267 267 267 267 268 268 268 268 267 267 266 266 265 264 264 264 264 263 263 263 262 262 262 262 261 261 261 261 260 260 259 258 258 258 258 257

GFSWCAN_925_thetae_069.txt.gz
Theta_e
301 301 302 301 301 300 301 301 301 301 299 303 302 301 301 300 300 298 297 300 300 302 304 305 308 310 309 310 311 309 313 314 313 314 314 315 316 319 321 319 319 321 320 320 314 319 323 312 309 316 317 310 310 311
301 301 301 301 300 302 300 301 301 299 303 303 302 301 300 300 300 298 297 297 299 301 304 304 305 305 307 309 310 312 312 313 314 315 312 313 315 313 319 321 315 323 320 321 319 322 317 311 315 311 310 313 312 312
301 301 301 301 301 300 301 301 299 301 303 302 301 301 300 300 299 298 297 297 298 300 300 303 305 307 309 307 309 313 312 313 314 313 314 317 317 315 319 319 319 315 313 319 318 317 315 313 311 312 310 312 311 310
300 300 301 301 301 300 300 300 300 303 302 301 301 300 300 299 299 298 298 297 299 303 303 306 308 305 308 310 309 310 312 313 313 313 312 311 317 315 318 320 320 317 316 316 317 315 315 315 314 312 310 310 307 304
300 300 300 299 300 300 302 303 302 302 301 301 300 300 300 299 299 297 297 298 299 304 306 305 305 307 313 311 312 311 314 313 314 313 308 317 315 316 313 315 317 315 317 319 320 316 317 316 314 310 310 310 305 302
298 299 300 301 301 301 301 301 301 300 300 300 299 298 298 297 297 297 299 299 298 299 304 305 307 309 315 315 314 314 314 314 314 314 312 314 312 316 317 320 315 314 313 313 316 313 309 306 304 305 307 305 301 301
297 297 297 298 298 299 299 299 299 299 299 298 298 298 298 297 298 299 301 301 299 301 304 304 306 311 314 313 312 312 310 312 315 314 312 315 315 312 309 319 313 312 310 310 307 307 308 305 307 301 301 299 298 297
297 298 298 298 298 298 298 298 298 298 298 297 297 298 298 297 299 302 304 302 301 302 304 304 307 311 312 313 313 309 311 310 310 313 310 314 312 308 317 313 310 307 306 306 304 303 305 300 299 298 298 297 297 296
296 296 297 298 298 298 298 298 298 298 298 297 297 297 298 299 300 301 303 302 303 303 303 303 307 315 310 311 309 307 308 311 307 311 311 314 312 317 316 314 310 308 309 306 301 300 300 301 299 297 297 296 295 294
297 296 296 296 297 298 298 298 298 298 298 297 296 299 299 300 303 303 303 303 304 305 302 305 306 311 310 308 307 310 304 309 314 312 310 313 312 309 310 311 311 309 304 302 301 300 299 298 298 297 298 296 295 293
298 299 299 297 296 297 297 296 296 296 297 300 301 300 300 302 302 301 301 302 302 304 303 305 308 310 305 310 308 303 306 305 316 314 316 314 314 309 305 306 305 303 302 302 301 301 300 299 297 294 293 292 292 290
298 298 299 298 297 296 298 297 297 297 299 300 301 303 303 303 302 303 304 302 305 308 305 307 308 307 303 303 306 303 308 306 316 308 313 315 308 304 304 302 301 301 300 299 298 297 295 294 293 292 291 289 287 285
298 298 298 299 300 300 300 300 300 301 303 303 300 301 301 300 305 305 305 305 306 303 303 304 305 303 301 301 303 304 309 311 305 312 315 308 306 304 302 300 299 298 297 295 294 292 291 290 289 288 286 285 285 284
298 298 298 299 299 300 299 298 299 299 298 298 301 306 306 306 306 306 302 304 301 301 302 302 302 304 301 304 303 310 305 305 311 313 309 305 302 300 299 297 296 294 292 292 290 289 288 286 284 284 284 283 283 282
298 298 299 299 299 299 299 298 298 297 295 298 300 304 302 299 299 299 298 300 298 298 300 301 302 303 303 304 303 306 309 309 307 306 303 299 297 296 295 293 292 290 289 288 287 285 284 284 283 283 282 281 280 280
298 299 299 299 299 299 298 297 297 297 294 296 295 300 299 301 300 299 299 299 296 297 297 300 304 305 305 303 305 305 305 305 303 301 298 296 294 292 291 290 289 288 287 286 285 284 283 282 281 280 279 279 278 278
297 299 298 298 297 297 297 296 296 294 295 296 296 293 294 296 295 295 295 294 294 299 302 302 306 306 303 305 303 300 301 299 297 295 293 292 291 290 289 288 287 286 285 284 284 282 281 280 280 280 280 279 279 278
299 300 298 297 297 297 296 294 293 296 297 296 294 293 291 291 291 292 292 292 296 298 297 298 298 298 299 301 299 298 295 293 292 292 291 290 289 288 287 286 285 284 284 283 283 282 282 282 281 280 279 279 278 278
301 300 297 297 298 296 294 293 294 295 293 293 291 290 291 290 288 287 288 290 291 291 292 291 290 291 292 293 294 294 292 291 289 288 287 287 286 286 285 285 284 284 284 283 283 282 281 281 280 280 279 279 278 277
299 298 298 298 299 293 295 295 295 294 293 291 290 288 288 287 286 286 284 286 288 287 286 286 286 285 286 287 289 292 290 289 288 287 286 285 284 284 284 283 283 282 281 280 279 279 278 277 276 276 277 277 276 275
297 296 297 297 294 293 293 295 296 295 293 292 291 290 289 287 285 284 283 284 283 284 284 283 284 283 284 284 285 285 285 286 286 285 284 283 282 281 280 280 279 278 278 277 277 276 275 275 274 273 274 273 273 273
293 294 294 293 293 293 294 292 295 294 294 293 293 292 289 287 286 284 282 281 281 280 281 282 281 282 282 282 282 282 281 281 280 280 280 280 280 279 278 277 277 276 275 275 274 273 273 272 271 272 272 271 271 271
292 292 289 288 292 293 293 293 295 295 294 293 292 290 289 287 285 283 281 280 279 278 280 281 280 279 280 280 279 279 279 278 278 277 276 275 275 274 274 274 274 274 273 272 271 270 269 269 270 269 269 269 268 268
289 282 280 282 286 287 287 292 293 293 293 294 293 291 289 287 284 282 280 279 278 277 278 278 279 279 278 277 276 277 277 276 275 275 274 273 272 271 270 270 270 269 269 268 268 267 267 267 267 267 266 266 266 265
285 284 281 283 280 281 281 284 287 290 292 292 289 287 286 285 282 281 279 278 276 275 276 276 275 277 276 275 274 273 274 274 273 273 272 271 270 269 268 268 267 267 267 267 266 266 266 266 266 265 265 265 264 264
284 284 281 282 285 282 283 281 283 284 285 285 285 283 282 281 279 279 278 277 275 274 273 275 275 274 273 273 273 272 271 271 270 269 268 269 269 269 269 268 268 266 266 266 266 266 265 265 265 265 265 264 264 264
281 282 282 280 281 282 279 278 280 279 278 279 279 279 279 278 278 277 276 274 273 271 270 271 272 272 271 270 269 268 269 269 267 266 265 266 267 267 266 266 265 264 266 266 266 265 265 265 264 264 264 264 264 264
283 280 276 273 274 275 273 273 274 275 276 276 274 272 273 273 275 275 273 271 270 269 268 268 269 268 268 267 267 268 267 267 267 266 266 265 265 265 265 265 265 265 265 265 264 264 264 264 264 263 263 263 263 263
277 274 273 269 269 270 271 271 271 272 273 272 270 271 271 270 269 271 270 269 269 269 268 266 266 267 267 267 267 267 268 268 267 263 262 262 262 263 263 263 263 264 263 263 263 263 263 262 262 262 262 261 261 261
274 272 270 266 267 270 269 269 268 268 271 271 271 271 269 268 267 269 269 269 268 266 266 267 266 268 266 266 265 265 266 266 266 265 262 261 262 263 263 263 263 263 262 262 262 262 262 261 261 261 261 261 260 260
269 271 270 269 270 270 269 267 271 270 266 267 266 266 266 267 267 267 267 267 267 267 267 266 266 266 266 266 265 264 263 264 264 264 264 263 263 263 263 262 262 262 262 262 261 261 261 261 260 260 259 259 259 258
268 266 269 270 270 268 268 265 266 268 268 268 268 265 264 266 266 265 267 267 267 267 267 267 266 265 265 265 265 264 264 264 264 263 263 263 263 262 262 262 262 261 261 261 261 261 260 260 259 259 259 258 258 258
264 265 265 268 270 270 268 267 267 268 267 268 267 262 261 262 264 265 266 267 267 267 267 266 266 265 265 264 264 264 264 263 263 263 263 262 262 262 262 261 261 261 261 260 260 260 260 259 259 259 258 258 258 257

GFSWCAN_925_thetae_072.txt.gz
Theta_e
300 301 301 301 301 300 299 300 304 303 302 302 302 303 302 302 300 300 301 301 304 305 306 307 307 309 310 310 314 312 315 316 319 320 322 322 324 320 317 316 322 324 326 328 326 335 332 316 314 320 322 320 319 318
300 300 301 301 301 301 302 302 304 303 302 301 301 303 303 302 300 300 300 300 301 304 306 305 305 306 307 309 312 314 313 315 316 317 321 318 325 324 320 321 320 325 324 325 324 325 324 317 320 318 319 320 318 318
299 301 301 300 301 300 302 304 303 302 301 301 302 302 302 301 300 299 299 300 300 302 304 303 305 303 302 305 308 313 315 312 315 316 319 322 327 322 327 322 320 320 319 323 323 321 321 321 318 315 315 316 316 316
300 300 301 300 300 300 300 300 300 300 300 301 302 303 302 301 300 298 298 299 299 301 304 304 303 306 306 306 309 310 311 316 315 318 322 321 325 318 321 318 321 320 320 321 322 322 319 319 319 319 316 316 315 314
300 300 299 300 301 300 300 299 299 301 302 302 302 302 301 300 298 298 298 298 298 302 304 303 302 304 305 305 308 310 313 316 319 319 313 320 318 322 321 321 323 320 322 324 325 322 322 322 321 319 318 317 316 313
301 301 301 299 300 300 300 301 303 303 302 302 302 301 300 299 298 298 300 299 298 300 303 308 306 305 303 307 311 312 314 315 317 318 321 318 319 322 326 325 319 319 320 320 321 317 318 314 311 310 316 317 315 312
299 300 301 302 302 302 302 302 302 302 301 301 300 300 299 297 298 299 300 300 299 300 302 305 308 308 306 308 314 314 314 316 317 319 320 321 322 319 320 323 318 320 319 317 314 313 317 313 315 308 309 308 306 307
298 299 299 300 300 300 300 300 300 300 300 300 300 298 298 298 297 299 303 302 298 300 302 307 307 306 312 315 315 315 316 317 315 317 316 320 317 317 323 319 318 317 314 314 313 311 313 308 306 306 305 304 304 303
298 298 299 299 299 299 299 299 299 299 298 298 298 298 297 298 300 301 301 299 298 301 304 304 308 310 310 311 311 313 316 315 312 317 319 321 318 324 323 319 319 316 314 317 311 309 306 308 307 305 305 304 303 301
297 297 298 298 298 298 298 298 298 298 298 298 297 298 299 299 300 301 302 303 303 304 305 305 302 305 309 307 307 313 313 313 313 315 317 320 322 319 316 315 316 315 313 309 309 308 306 307 305 304 305 303 301 300
297 298 298 298 298 298 298 298 298 298 298 299 300 301 300 301 303 302 302 304 304 305 305 306 305 306 305 305 308 307 311 310 320 319 321 321 320 316 309 311 311 310 309 307 307 306 305 305 304 303 300 297 294 293
296 296 297 298 298 298 298 297 297 298 299 299 301 301 301 304 304 305 305 304 305 308 308 309 309 307 306 305 307 305 312 306 317 311 321 321 312 307 306 306 306 306 305 304 303 302 302 300 299 297 295 293 290 287
297 296 296 296 296 297 297 297 297 298 300 302 303 303 305 303 305 306 308 306 307 307 307 307 309 308 307 306 305 308 314 313 305 312 313 308 306 304 302 302 301 301 300 299 297 295 293 292 291 291 289 288 287 286
298 297 298 298 297 296 297 296 298 299 300 302 305 306 310 305 306 309 308 309 307 306 306 307 307 309 303 307 306 314 307 307 316 319 310 305 301 299 297 296 295 293 291 291 290 289 288 287 286 286 286 286 286 285
299 299 299 299 298 298 298 298 299 298 298 299 302 307 306 302 301 299 299 302 300 303 305 307 307 306 306 308 307 308 312 311 308 307 303 298 296 295 293 292 290 289 288 287 286 286 285 285 285 285 284 283 282 282
298 299 298 298 297 297 297 298 298 297 296 298 296 300 297 302 300 298 297 300 297 299 300 304 305 308 309 308 308 307 309 306 302 299 297 294 292 291 289 289 288 287 286 286 285 285 284 283 283 282 281 281 281 280
298 298 298 298 298 298 298 298 297 296 298 299 297 293 294 296 294 294 294 294 294 300 304 306 310 309 307 306 303 300 299 298 296 293 292 291 290 289 288 287 287 286 286 286 285 284 283 282 282 282 282 280 280 279
299 298 297 297 297 297 296 294 297 298 296 294 293 293 290 290 290 290 289 291 297 299 299 300 299 300 300 301 300 298 294 291 291 290 289 289 288 287 287 287 286 286 285 285 285 285 284 284 283 282 281 280 280 280
299 297 297 297 297 296 296 295 296 295 292 292 291 290 290 289 287 286 286 290 291 291 292 292 292 293 294 293 293 294 292 290 288 288 288 287 287 287 287 286 286 286 285 284 284 283 283 282 282 282 281 281 280 280
298 297 297 297 298 294 297 296 294 295 294 291 290 288 287 287 286 285 284 285 288 288 287 287 287 287 288 288 292 291 290 289 289 288 287 287 286 285 285 284 284 283 282 281 281 281 280 279 279 279 279 279 279 278
296 296 297 297 293 294 294 296 297 295 294 293 292 291 290 288 286 284 283 284 283 284 285 284 285 285 285 286 287 288 288 288 288 287 286 285 283 283 282 282 282 281 280 280 279 278 278 277 277 277 276 276 275 275
295 295 295 294 295 295 296 294 297 296 296 295 294 291 290 288 287 285 283 283 281 281 283 283 283 284 283 283 283 283 282 282 281 281 282 282 283 282 281 280 280 279 278 277 277 275 274 274 274 273 273 273 272 270
291 291 290 291 295 297 295 295 297 296 297 295 292 290 289 288 286 284 283 281 280 279 281 281 280 280 281 280 279 279 279 279 279 278 277 277 277 277 277 277 277 276 275 274 273 272 271 270 270 270 270 270 270 270
289 286 288 290 292 292 292 294 294 295 295 293 291 290 288 287 285 283 281 280 279 278 279 279 280 280 279 277 279 278 278 277 277 276 276 275 274 273 273 272 272 271 271 270 270 269 269 268 268 268 268 268 268 268
288 286 287 288 289 290 290 290 290 293 293 291 288 288 286 286 284 283 281 279 278 277 278 277 277 278 278 277 275 275 275 276 276 275 274 273 272 272 271 270 269 269 270 270 269 268 268 268 267 267 267 266 267 267
286 284 285 285 286 287 287 287 287 288 288 287 286 285 284 283 282 281 279 278 276 275 275 277 277 275 274 274 274 273 273 273 272 271 270 272 273 273 272 272 271 268 268 268 269 268 267 267 266 266 266 266 264 265
284 284 283 280 281 283 283 282 282 283 282 283 282 282 282 281 280 278 277 275 274 272 272 273 273 273 272 271 270 269 269 269 269 268 267 267 267 268 269 269 268 266 266 266 266 267 267 266 266 265 265 266 265 263
283 281 279 276 276 276 277 277 277 278 278 278 278 277 278 278 278 276 275 272 271 270 269 269 269 269 269 269 269 268 267 266 266 266 266 265 264 264 263 264 264 264 264 264 264 264 264 264 264 264 264 263 262 261
279 278 276 271 273 274 273 274 274 274 274 276 276 275 273 272 272 273 272 271 271 271 270 269 268 268 267 266 266 266 267 269 270 270 269 269 268 264 263 263 263 263 263 264 264 263 262 262 262 262 261 261 260 260
278 277 275 272 272 273 272 272 272 272 274 273 273 272 271 270 268 269 270 270 270 268 268 267 267 269 269 268 267 266 264 265 266 268 269 268 266 263 262 262 262 262 262 262 262 262 262 261 261 261 261 260 260 260
278 278 275 274 273 273 273 272 272 272 272 272 272 272 271 270 269 267 267 267 267 267 268 267 266 267 267 267 268 267 266 264 264 264 264 263 262 262 262 262 262 262 262 261 261 261 261 261 261 261 260 260 258 258
278 277 276 275 275 274 273 275 275 275 274 274 273 272 271 272 271 269 266 267 268 268 266 268 268 266 264 264 264 264 264 264 263 263 262 262 262 262 262 262 262 262 261 261 260 260 260 260 260 260 260 259 258 257
278 278 277 277 276 275 275 276 275 275 275 274 272 270 269 271 271 268 266 267 267 268 267 266 265 265 265 264 264 264 264 263 263 263 263 262 262 262 261 261 261 261 261 260 260 260 259 259 259 259 258 257 257 257

GFSWCAN_925_thetae_075.txt.gz
Theta_e
299 299 300 300 300 300 301 302 302 302 302 302 302 301 300 304 302 302 301 303 306 307 306 306 308 308 309 310 311 309 314 316 319 320 321 317 319 314 314 312 317 326 326 330 329 336 332 320 319 321 323 324 322 322
299 300 300 301 300 299 300 300 302 302 302 303 302 302 301 303 302 301 302 303 304 307 306 308 308 309 309 309 309 311 314 314 315 317 320 318 324 327 316 319 313 324 323 326 325 326 323 320 321 322 321 323 323 322
300 300 300 301 299 299 300 301 301 302 302 303 302 302 301 303 302 301 302 304 304 306 307 307 308 307 308 309 309 312 316 314 315 317 316 318 320 317 326 322 315 315 316 323 322 321 323 323 322 321 321 321 321 320
301 300 299 300 298 301 303 299 301 301 302 302 302 302 303 303 301 301 303 303 303 305 306 305 304 307 305 305 307 308 312 315 316 315 320 320 323 314 321 316 318 317 318 320 320 319 320 322 323 323 322 320 319 319
302 299 300 300 298 300 303 302 302 303 302 302 302 303 302 300 300 301 302 303 302 304 306 305 305 304 306 307 307 308 309 315 316 321 323 320 316 314 317 318 319 317 317 323 324 321 322 322 321 323 323 322 320 320
301 300 300 300 299 299 301 302 302 302 302 301 302 303 300 299 300 300 300 300 301 302 305 306 305 305 304 306 307 309 311 314 316 315 319 316 313 315 326 321 316 314 315 318 320 320 322 322 317 317 321 321 321 320
301 301 300 300 300 300 300 301 302 302 302 302 303 299 298 299 300 302 302 301 300 300 304 305 307 307 304 306 307 309 310 313 316 318 318 318 318 317 325 323 313 315 316 317 319 320 320 319 320 314 314 315 312 315
301 301 302 302 302 303 302 303 301 302 302 302 299 298 299 300 299 303 301 299 301 302 303 305 307 306 307 309 309 309 313 315 315 317 318 320 320 322 321 316 315 315 318 319 319 318 318 316 313 313 311 310 311 311
300 300 300 300 301 301 301 301 301 300 299 298 298 298 298 299 301 303 301 299 301 302 304 303 307 308 300 310 312 313 314 316 314 317 317 318 321 323 320 318 317 318 317 318 318 315 313 313 313 311 310 309 309 307
299 299 299 300 300 299 299 299 299 298 297 298 299 299 301 302 300 298 299 302 302 304 305 305 306 306 303 301 312 315 314 314 315 316 315 319 321 317 319 318 319 319 318 315 316 315 313 313 311 310 310 308 307 305
298 299 299 299 299 299 299 298 298 298 299 301 302 302 301 300 300 302 302 303 304 306 306 306 307 307 304 306 307 309 313 314 317 318 318 318 319 318 315 315 314 315 314 313 312 312 311 312 310 308 306 304 303 300
297 298 298 299 298 298 298 298 299 301 301 301 302 301 301 302 304 306 307 306 305 307 308 309 307 307 305 300 302 307 315 311 321 317 323 320 311 307 309 310 311 310 309 308 308 307 306 304 302 297 296 293 290 288
298 298 298 298 298 298 298 298 299 300 302 303 302 305 305 306 305 306 307 308 310 308 310 310 309 307 305 300 301 308 314 315 309 316 314 308 304 303 302 303 304 304 302 301 299 297 295 294 293 292 290 289 288 286
296 296 297 297 297 297 297 298 299 300 302 304 306 306 309 305 307 309 309 310 307 307 308 307 306 305 303 303 304 310 308 307 316 317 310 303 299 297 296 294 294 293 292 291 290 289 288 288 287 287 287 287 287 286
296 296 296 296 296 296 296 298 299 300 300 301 305 305 305 302 301 301 301 303 301 303 308 309 307 306 305 308 307 308 311 311 310 308 302 297 295 293 292 290 289 288 288 288 287 287 287 286 286 286 285 285 284 283
298 297 297 297 298 298 298 299 300 300 298 299 297 302 297 304 301 298 297 299 296 298 302 307 307 308 309 309 309 307 310 307 302 299 295 292 291 290 289 288 287 287 287 287 287 286 286 285 285 284 283 283 282 282
298 298 297 298 298 298 299 301 300 297 299 301 296 294 295 298 295 292 291 291 292 299 305 306 309 308 307 306 304 301 300 298 295 293 292 292 291 290 289 288 288 288 288 287 287 286 286 285 284 283 283 281 280 280
298 298 297 297 298 299 297 298 298 297 296 295 295 294 293 291 290 289 288 291 296 299 300 301 301 301 302 303 301 296 292 291 291 291 290 290 290 289 289 289 288 288 287 287 286 286 285 285 284 283 283 282 282 281
298 298 297 297 298 296 298 297 297 295 294 293 293 292 292 290 289 288 287 289 291 291 294 295 294 295 295 294 297 295 293 292 291 290 290 289 289 289 288 288 287 287 286 285 285 285 284 284 284 283 283 282 282 282
298 297 296 296 297 296 297 297 295 295 295 292 292 290 289 288 287 287 286 287 290 289 289 289 288 288 290 292 293 292 290 290 290 290 289 289 287 287 286 286 285 284 284 283 283 282 282 281 280 280 280 280 279 278
296 295 296 295 294 294 296 297 295 295 294 293 292 291 291 290 287 286 286 285 285 286 286 286 287 287 287 289 290 292 293 292 290 289 288 287 286 285 284 284 283 283 282 282 281 280 279 279 278 278 277 277 276 276
295 296 295 295 296 297 297 295 297 296 296 294 294 292 292 290 288 286 284 284 282 284 284 284 285 285 285 285 285 285 285 285 285 285 285 284 285 284 283 282 281 280 279 279 278 277 276 276 276 276 276 275 273 272
292 293 293 294 299 299 297 296 298 298 298 296 293 293 291 290 287 286 284 283 281 282 283 282 282 283 282 282 281 281 281 281 281 281 281 280 280 280 280 279 279 278 277 276 275 274 273 272 272 273 273 273 273 273
289 289 292 293 295 295 296 295 295 296 295 294 293 291 289 289 287 286 284 282 281 281 281 283 283 282 281 281 281 280 280 279 279 279 278 277 277 276 275 275 274 274 274 274 273 273 272 272 272 271 271 271 271 271
291 287 290 291 291 293 294 293 293 294 292 292 290 290 288 288 287 285 284 282 280 280 281 280 281 281 280 279 278 277 278 278 278 277 276 276 275 274 273 273 272 273 273 273 272 271 271 271 270 270 269 268 269 269
288 285 286 287 288 289 290 291 290 290 290 289 288 287 287 287 285 284 282 280 279 278 279 280 278 277 276 276 277 276 275 275 274 274 274 275 276 276 275 274 273 271 271 272 272 271 270 269 269 269 269 268 266 268
286 286 284 282 283 286 287 286 286 286 286 286 286 286 286 285 283 280 278 277 277 274 275 275 275 275 274 273 272 271 271 271 271 270 269 269 270 271 272 271 270 269 269 269 269 269 269 269 268 268 268 268 267 266
284 282 280 280 280 280 280 281 281 281 281 280 283 281 281 281 280 278 277 274 273 272 272 271 272 272 272 271 271 270 270 269 269 269 269 268 268 267 266 266 265 265 266 267 267 267 267 267 267 267 266 266 265 264
282 281 278 274 278 278 276 277 277 276 276 279 280 279 276 274 276 275 274 274 274 274 273 272 271 271 270 270 270 270 272 273 273 273 273 272 270 267 266 266 266 266 267 266 265 265 264 264 264 264 264 264 264 264
281 281 278 276 276 276 275 275 275 277 276 275 274 273 273 272 271 273 273 273 272 271 271 272 272 272 272 271 269 268 268 269 271 272 272 271 268 266 266 266 265 265 265 266 266 265 264 264 264 264 264 264 264 264
282 281 279 278 277 276 276 276 275 275 276 276 276 275 274 273 271 270 270 271 271 271 271 271 271 270 271 271 271 270 268 265 264 266 266 266 266 265 264 264 264 264 264 264 264 264 264 265 264 264 264 263 262 262
282 281 279 278 277 277 277 278 278 278 277 277 276 276 276 276 274 272 268 271 271 270 270 270 269 267 267 266 266 265 266 265 265 265 265 265 265 263 263 263 262 263 263 263 263 263 263 263 263 263 263 263 261 260
283 282 281 280 279 279 278 279 279 278 278 278 276 275 274 276 274 271 267 267 270 270 270 268 267 265 264 265 265 265 265 263 263 263 263 263 262 262 263 263 263 262 262 263 263 262 262 262 262 262 262 260 260 260

GFSWCAN_925_thetae_078.txt.gz
Theta_e
297 298 299 299 300 300 300 300 300 301 301 301 301 301 301 301 301 299 302 302 304 306 306 306 307 308 310 310 310 308 311 312 316 317 318 319 320 316 314 312 323 323 325 327 327 329 329 321 321 322 323 325 325 324
298 299 300 301 301 300 300 301 301 301 301 302 301 301 301 300 301 300 302 302 303 305 307 307 306 307 308 309 310 310 311 311 313 317 319 318 321 319 315 316 316 323 321 325 325 326 326 322 322 323 324 326 325 326
300 301 302 300 299 300 300 301 300 300 301 302 302 302 302 301 301 301 301 302 304 306 306 308 309 308 310 310 311 312 312 312 314 317 316 319 320 315 323 319 315 315 321 325 325 321 321 325 323 323 323 323 324 323
301 301 300 300 300 298 298 297 298 301 301 302 302 302 301 302 300 302 302 303 304 304 308 306 305 307 308 309 311 310 310 311 313 315 318 320 321 317 318 319 318 318 317 319 321 320 319 320 322 324 324 324 322 321
301 300 300 299 300 301 302 300 299 301 302 302 303 302 302 301 300 301 302 303 304 306 307 307 307 306 306 307 308 309 310 311 313 315 316 319 317 320 319 318 318 317 317 320 325 321 323 322 322 323 325 322 322 321
303 301 299 300 302 300 301 301 302 302 302 303 302 302 302 302 301 303 302 304 304 304 308 308 306 306 306 306 308 309 311 311 312 315 317 318 317 319 327 321 316 317 317 317 319 321 323 323 319 317 320 323 322 322
302 301 300 301 302 301 301 301 302 303 302 302 302 302 301 301 302 303 304 302 303 304 306 307 307 307 306 307 308 308 309 310 311 315 316 318 318 316 323 320 314 315 315 315 317 316 322 321 320 316 316 315 315 317
302 302 300 301 302 302 302 302 302 301 302 301 301 301 301 301 301 303 302 302 302 303 304 306 306 308 303 309 309 308 309 310 312 314 317 318 318 319 319 314 316 316 315 316 321 320 319 316 315 314 313 313 313 313
301 301 301 301 302 302 301 301 300 300 300 300 299 301 301 302 303 302 301 301 302 304 305 303 308 309 299 305 308 310 310 311 312 314 316 317 319 320 317 316 316 315 315 314 316 319 316 315 314 312 311 311 310 309
300 300 300 301 300 300 300 299 299 298 299 300 300 299 298 301 300 300 300 302 302 304 306 305 306 307 302 303 308 312 312 312 313 314 315 315 319 316 316 318 320 320 318 318 319 317 315 315 313 312 311 310 308 307
299 299 299 298 298 299 298 298 299 300 300 301 303 302 299 300 302 303 302 303 303 305 306 306 307 306 303 306 305 310 311 313 315 315 316 319 318 317 317 316 316 316 314 314 314 313 314 314 311 307 300 296 296 293
299 298 298 298 297 298 299 300 301 302 302 303 301 301 301 302 302 306 305 303 305 306 307 309 307 307 303 303 305 305 313 310 315 315 318 317 310 310 311 312 312 310 309 309 308 306 303 301 298 296 293 291 289 287
299 298 298 298 298 298 300 301 301 301 301 303 303 303 305 303 305 308 305 305 309 309 309 308 308 306 301 302 303 305 311 314 310 319 317 307 303 301 301 301 300 299 299 297 295 294 292 292 291 290 288 287 286 285
298 298 298 297 297 297 300 300 301 303 304 304 305 304 305 305 308 306 309 310 305 309 309 307 305 303 299 302 303 310 308 309 315 314 309 301 297 295 294 293 292 292 291 291 290 289 289 288 287 286 286 285 285 284
297 297 297 297 297 297 299 300 301 302 302 301 304 305 303 301 299 298 300 302 299 301 306 308 304 302 303 306 305 308 311 312 309 306 301 295 293 291 290 289 289 288 288 288 287 287 286 286 285 285 284 283 283 282
298 299 298 298 297 298 299 300 301 300 299 298 296 300 297 302 298 294 293 296 294 295 301 303 304 307 308 307 309 308 309 305 301 298 294 292 290 289 288 288 288 288 287 287 286 286 285 285 284 284 283 283 283 282
299 299 297 297 298 299 300 301 299 298 299 300 296 294 296 295 293 291 290 291 292 297 304 304 306 306 307 306 302 298 297 296 294 293 291 290 289 289 289 289 288 288 288 287 286 286 285 284 283 283 283 281 281 280
300 297 297 297 299 301 299 299 298 297 295 294 294 294 290 290 291 290 290 290 293 298 299 300 300 298 298 300 298 294 293 292 292 291 291 290 290 290 289 289 288 287 287 287 286 285 285 285 284 283 283 282 282 281
298 297 297 297 298 299 297 297 298 295 294 294 293 293 292 290 289 289 288 289 292 291 294 294 292 292 294 294 294 293 293 292 291 290 290 289 289 289 288 287 287 286 285 285 285 284 284 284 283 283 283 282 282 281
297 297 296 296 298 298 296 297 296 296 296 294 293 290 290 290 289 289 288 289 290 289 289 289 288 288 289 293 293 291 291 291 290 289 289 288 287 287 286 285 285 284 284 283 282 282 281 280 279 279 279 278 278 278
295 295 296 296 296 295 296 297 296 295 295 294 294 292 292 290 288 286 285 286 287 287 286 287 287 287 288 288 290 292 292 290 289 289 288 287 286 285 285 284 283 282 282 281 280 279 279 278 278 277 276 277 276 275
296 296 296 296 296 296 297 295 296 296 296 294 294 292 291 289 288 286 284 284 283 285 284 285 285 285 285 285 286 286 286 286 286 286 285 284 284 284 283 281 281 280 279 278 278 278 277 276 277 276 275 273 272 272
294 295 295 296 298 299 297 295 298 298 298 296 294 293 291 289 288 286 284 283 282 283 283 284 284 283 283 282 282 282 282 282 282 282 282 281 281 281 280 279 279 278 277 276 275 274 274 274 274 274 274 274 274 272
290 291 293 294 296 296 298 296 297 297 295 295 293 292 290 290 288 286 283 282 282 282 283 284 283 282 282 281 281 281 281 280 280 279 279 278 278 277 276 276 276 275 275 275 274 274 273 273 273 273 272 272 272 271
291 287 291 292 292 294 294 293 294 294 292 293 291 290 290 290 288 286 284 282 281 282 281 282 281 281 280 279 279 279 279 279 278 278 277 276 276 275 275 274 274 274 274 274 273 273 272 271 270 269 269 270 270 270
288 285 287 287 289 290 290 291 291 291 291 290 289 289 289 288 286 285 282 280 278 279 280 280 278 277 276 276 276 276 276 275 275 275 275 277 277 276 275 274 273 272 273 273 272 271 271 270 270 270 269 268 268 268
286 287 284 284 285 288 288 287 287 286 286 286 287 287 288 286 283 281 279 277 277 276 276 276 276 275 274 273 272 272 271 271 271 271 270 270 270 271 272 272 271 270 270 270 271 271 270 269 269 269 269 268 266 267
284 282 281 282 281 282 282 282 281 281 281 281 284 282 282 281 280 278 277 275 274 274 273 273 274 274 273 273 272 271 271 270 270 270 269 269 269 268 267 267 267 267 267 268 268 268 268 268 268 268 267 266 266 266
284 282 279 277 280 279 277 279 278 278 278 280 283 280 276 276 277 276 276 275 275 275 274 273 273 272 271 271 271 272 273 274 274 274 273 271 269 268 268 267 268 268 268 266 265 265 265 265 265 266 266 266 266 265
282 282 279 278 278 277 276 277 278 278 276 276 275 274 274 273 273 274 274 274 274 274 274 274 274 273 272 271 269 268 268 269 270 273 272 270 268 268 267 267 267 267 267 267 267 266 265 266 266 266 265 265 264 264
284 283 281 279 278 277 277 277 277 277 278 277 277 275 274 273 272 272 273 273 273 273 273 272 271 271 272 272 272 270 268 266 267 267 268 267 267 266 266 265 265 266 266 266 266 265 265 266 266 266 265 264 263 263
284 282 281 279 278 278 279 280 280 279 279 278 277 277 278 277 275 273 271 272 273 273 272 271 269 269 268 267 267 267 267 267 266 266 266 266 265 265 265 265 265 265 265 265 265 265 264 264 265 264 264 264 263 261
284 283 282 281 280 281 280 282 280 280 280 279 277 277 276 277 275 272 270 270 272 272 270 269 267 266 267 267 267 266 265 263 264 264 263 263 263 264 265 264 264 264 264 264 264 264 264 263 263 263 263 262 262 261

GFSWCAN_925_thetae_081.txt.gz
Theta_e
298 298 297 298 299 299 299 299 299 300 300 300 300 300 300 300 300 300 299 299 302 304 304 304 307 306 308 308 307 305 306 307 309 309 311 314 311 315 316 315 318 319 320 318 317 319 323 319 319 320 318 318 320 321
296 298 299 299 300 300 301 301 300 300 299 300 301 301 300 300 300 299 299 300 299 304 305 305 305 305 306 307 307 306 306 308 311 313 310 311 309 308 312 312 317 321 319 321 320 319 321 322 322 320 321 321 321 322
299 300 301 301 300 300 300 302 301 301 300 300 300 301 301 301 300 300 299 300 300 303 305 306 307 304 305 305 308 308 307 306 310 313 312 312 311 312 310 311 311 317 317 318 318 318 316 320 321 318 317 318 319 319
300 301 302 300 300 299 300 300 300 300 301 301 301 300 300 301 300 300 300 301 301 299 304 306 305 307 306 305 309 310 309 311 309 311 313 311 309 311 310 313 315 313 317 319 320 320 318 318 319 318 317 316 320 319
302 300 301 300 301 300 300 301 300 300 301 300 301 301 301 302 301 301 300 301 302 304 305 305 305 306 308 308 309 310 309 308 308 307 308 313 312 312 312 314 315 314 315 317 318 318 317 317 318 318 317 318 319 318
300 301 302 300 301 300 301 302 299 300 300 300 301 301 301 302 301 301 302 302 302 304 305 305 306 306 307 306 307 308 308 308 307 308 308 313 312 315 308 313 315 313 313 313 314 317 320 318 316 316 317 315 317 318
301 302 301 301 302 301 300 299 298 298 301 301 302 301 302 301 300 301 301 303 302 304 305 304 304 306 306 306 305 306 306 306 307 309 308 311 311 313 304 311 313 313 313 313 318 317 319 318 315 313 312 313 312 312
301 302 301 300 301 302 302 302 302 302 302 302 302 301 301 300 302 303 303 303 304 304 305 301 303 305 301 305 305 304 305 306 306 309 310 312 311 313 313 313 312 312 312 313 319 316 315 313 311 311 310 309 309 308
301 301 301 301 302 301 301 302 302 302 301 302 301 301 301 301 302 302 303 303 303 303 299 300 302 304 300 303 304 306 304 301 305 305 308 310 311 314 314 312 312 312 313 312 312 314 313 312 311 310 308 307 306 304
300 300 300 300 301 300 300 301 300 300 301 300 300 299 297 301 302 301 300 301 302 301 300 298 301 301 301 301 302 302 302 303 310 308 310 309 311 313 314 316 316 316 315 315 314 314 312 311 307 303 300 297 295 292
298 299 299 299 299 300 300 301 301 301 301 301 301 300 300 301 302 301 301 301 301 302 300 302 303 301 301 302 303 301 305 304 310 310 310 312 310 314 314 312 310 310 307 304 303 303 306 303 298 294 291 290 288 287
297 298 298 299 300 301 300 300 301 302 302 301 300 300 301 302 302 303 302 301 300 302 301 302 301 303 301 301 301 298 307 306 305 307 306 309 307 303 302 301 299 299 299 298 297 296 294 293 291 290 288 287 286 284
297 296 299 300 300 300 300 300 300 299 300 301 301 301 303 299 302 298 304 299 303 300 302 301 304 302 300 302 302 303 307 308 306 303 306 304 301 298 297 296 294 293 292 291 291 290 289 288 287 287 286 285 284 283
297 297 297 298 299 300 301 301 303 303 302 300 300 303 304 304 304 302 304 303 301 303 301 302 303 303 299 301 303 306 307 307 309 312 306 299 295 293 292 292 291 290 289 289 288 287 287 286 285 285 284 284 283 282
297 298 298 298 298 300 300 300 300 300 298 298 299 301 299 299 297 294 295 298 295 296 301 302 301 301 302 304 303 306 307 310 304 300 296 293 291 290 289 289 288 288 287 287 286 285 284 284 283 283 283 282 282 281
299 299 297 298 299 300 301 299 297 298 296 292 293 297 295 297 293 291 290 293 292 292 296 300 303 305 306 306 306 302 305 299 297 293 290 289 289 288 288 288 287 286 286 285 285 284 284 283 283 282 282 281 281 281
299 297 297 297 300 300 299 299 296 295 296 296 292 290 292 293 290 289 290 290 290 293 303 302 303 301 302 303 297 294 294 293 291 290 289 289 288 288 287 287 286 286 285 284 284 283 283 282 282 281 282 281 281 280
298 297 297 298 299 300 297 298 293 295 293 293 293 290 289 289 288 289 288 289 292 295 297 297 297 296 295 297 294 292 291 290 290 289 289 289 289 288 287 287 286 286 285 285 284 284 283 282 282 282 281 280 279 279
296 297 297 297 298 297 295 294 295 293 292 292 291 291 290 289 287 286 287 288 290 290 292 291 289 289 289 293 291 291 291 290 289 288 288 287 287 286 286 285 285 284 284 284 283 282 282 282 282 281 280 279 279 278
297 297 296 297 298 296 295 294 295 294 294 292 290 288 288 287 286 285 285 286 288 288 288 287 287 287 288 291 290 289 289 288 287 287 286 286 285 285 284 284 283 282 281 280 280 279 279 278 277 277 276 275 276 276
297 296 296 296 296 294 294 295 294 295 294 293 292 291 290 286 284 283 283 284 284 284 285 285 285 285 286 289 290 289 288 287 287 286 285 284 283 283 282 281 280 280 279 279 278 277 276 275 274 274 274 274 273 273
295 295 295 296 295 295 295 294 295 294 294 293 292 291 288 287 286 283 283 282 283 283 284 283 283 283 283 284 285 285 285 285 284 283 283 282 281 281 280 279 278 277 277 276 276 276 276 275 273 273 273 273 272 272
294 294 294 294 296 296 296 293 297 296 296 294 294 292 290 287 287 285 282 282 282 282 282 282 282 281 282 281 281 281 281 281 281 280 280 279 279 278 277 277 276 275 274 274 274 273 273 274 274 273 272 271 271 270
290 288 290 293 294 295 294 294 296 295 294 293 292 291 290 289 287 283 281 281 281 281 282 282 281 281 280 280 280 279 279 279 278 278 277 277 276 276 275 275 275 274 274 273 272 272 272 272 272 272 271 271 270 269
283 282 286 289 287 293 293 292 290 292 289 290 289 288 289 289 286 284 282 281 278 280 279 279 279 279 278 277 276 276 278 277 277 276 276 275 275 274 274 274 273 273 273 272 271 270 270 270 270 270 270 270 269 269
283 283 284 284 285 287 288 288 289 288 288 288 288 288 286 282 281 280 280 277 276 277 278 277 276 274 273 273 274 274 274 274 273 272 271 275 274 273 272 272 271 271 272 271 270 270 270 269 268 268 268 268 268 268
282 283 283 283 284 286 284 282 283 280 280 281 283 281 283 279 278 279 277 276 275 275 274 274 274 273 272 272 271 271 271 271 270 270 269 271 271 271 270 270 269 269 270 270 270 270 269 269 268 267 267 266 266 266
281 279 277 280 277 279 278 278 277 277 278 279 281 276 274 276 276 276 275 274 273 273 273 273 273 273 272 271 271 270 270 270 269 269 269 268 268 268 268 268 268 268 268 268 269 269 268 268 267 267 266 265 265 265
282 280 277 273 275 275 276 277 277 278 276 278 277 275 274 276 276 275 275 274 274 273 273 272 272 272 271 271 271 270 271 272 272 270 269 268 267 267 268 268 268 267 267 266 266 267 267 266 266 266 266 266 265 265
281 280 275 273 273 274 274 277 275 273 273 273 274 273 273 273 273 273 273 273 273 274 274 273 272 271 270 269 268 268 269 270 272 270 269 267 267 267 267 266 267 267 267 266 266 266 266 266 265 265 265 265 264 264
282 279 276 276 275 275 274 274 276 276 274 272 270 270 270 270 272 272 272 273 273 272 271 270 269 270 269 269 269 267 266 267 268 268 267 267 266 266 266 266 266 266 266 266 265 265 266 266 266 265 264 264 263 263
279 277 273 274 274 274 276 278 277 275 274 271 272 270 272 271 270 271 271 272 272 271 270 269 268 268 267 267 267 267 266 266 266 266 266 265 265 265 265 265 265 265 265 264 264 264 264 264 264 264 264 263 262 262
279 277 276 274 275 277 275 279 277 277 277 275 271 271 270 270 269 270 270 271 270 269 268 268 268 267 267 267 266 266 265 265 264 264 264 264 264 264 264 264 264 263 264 264 264 264 263 263 263 263 262 262 262 261

GFSWCAN_925_thetae_084.txt.gz
Theta_e
298 299 299 298 297 297 298 298 298 298 299 299 299 299 299 300 300 300 300 299 299 299 301 301 303 305 305 305 305 304 305 304 305 304 304 306 305 311 316 316 316 317 314 310 314 315 319 317 319 319 317 318 318 318
297 296 297 298 298 299 299 299 299 300 299 299 299 299 299 299 299 300 300 299 298 299 301 302 302 304 305 305 306 306 305 304 306 306 304 307 308 307 313 315 312 318 315 315 314 315 315 318 321 319 319 319 319 319
298 299 300 300 300 301 301 301 301 301 301 300 299 299 300 299 299 300 300 300 299 300 299 299 303 303 305 305 306 308 305 305 308 306 308 308 308 310 310 311 313 315 316 316 317 318 318 318 320 319 316 317 317 317
299 300 301 301 300 301 301 302 300 300 300 301 300 300 300 300 299 299 300 299 299 299 300 303 301 305 305 306 305 306 308 307 306 307 307 306 305 311 310 311 311 310 316 315 315 316 317 317 316 316 316 317 317 317
301 301 301 302 301 300 301 301 301 301 299 302 301 301 300 301 299 299 299 299 298 299 302 302 303 305 305 305 305 306 308 307 306 305 304 310 310 311 310 311 311 310 314 316 316 316 317 315 316 315 316 316 316 318
300 302 301 302 301 300 301 301 301 300 300 300 300 300 300 301 300 300 300 299 299 299 303 304 304 306 306 305 306 307 308 307 306 305 305 309 311 312 311 310 311 310 310 312 314 313 315 317 315 316 316 315 314 316
302 300 301 301 300 300 301 301 300 299 300 300 301 301 300 301 300 298 301 300 300 300 300 304 305 305 307 306 306 305 304 306 305 304 304 306 308 311 308 310 311 311 311 313 314 316 318 316 315 312 312 309 308 307
301 300 301 301 301 298 299 299 300 301 300 300 301 300 300 301 299 300 301 301 300 301 299 303 305 304 302 304 304 302 303 303 303 304 303 305 306 307 308 310 310 311 311 311 316 315 314 310 310 309 307 306 302 298
301 301 301 301 302 301 300 300 301 301 301 301 300 301 300 300 301 302 302 301 302 299 300 296 300 306 299 302 303 302 301 302 301 301 303 306 306 308 310 311 312 311 312 311 313 311 310 310 308 306 303 298 296 293
300 300 300 301 301 301 301 301 301 302 301 299 299 298 297 302 302 302 301 298 301 302 297 294 297 302 301 300 303 304 299 299 304 306 305 302 305 307 311 309 307 305 307 310 311 310 308 303 300 297 294 293 291 289
300 300 300 300 300 300 300 300 300 300 300 300 300 297 302 301 300 299 300 301 300 301 298 300 299 302 299 301 302 296 303 298 305 303 307 309 309 309 307 305 301 299 299 299 301 300 300 297 294 291 289 288 287 285
300 300 300 301 301 301 301 301 301 301 300 300 300 300 300 301 300 300 300 300 299 300 299 301 300 298 297 298 297 299 302 304 306 303 303 311 306 302 300 299 298 296 296 296 294 293 292 291 289 288 287 286 285 284
299 300 300 300 300 300 300 301 301 301 303 301 299 299 300 296 297 294 299 302 297 300 298 300 303 300 300 301 300 302 304 306 304 304 305 304 300 298 296 294 293 293 291 290 290 289 287 287 286 286 285 284 283 283
297 298 299 300 301 301 301 301 302 302 301 299 295 300 298 300 300 299 303 303 298 299 296 299 302 302 300 301 302 304 301 306 308 310 307 299 295 293 292 291 290 289 289 288 287 286 286 285 284 283 283 282 282 281
299 297 298 299 300 300 298 299 300 298 294 294 295 297 296 295 293 292 293 296 293 294 299 301 301 301 301 303 302 304 307 308 303 302 296 293 291 290 289 289 288 287 286 286 285 284 284 283 283 282 282 281 281 280
299 298 297 298 300 299 299 297 296 297 293 291 289 292 292 291 290 290 290 292 291 292 295 299 302 303 304 303 302 297 300 297 294 290 290 290 289 288 288 287 286 285 285 284 284 283 283 282 282 281 281 280 280 279
297 296 296 298 300 297 297 296 294 291 290 289 288 288 288 287 286 289 288 290 290 293 302 301 299 298 298 298 294 293 291 290 290 289 289 288 287 287 286 285 284 284 283 283 283 282 282 282 281 281 281 280 279 278
296 296 296 298 300 298 296 295 290 290 290 289 287 285 287 286 286 286 286 288 291 294 294 294 294 294 294 294 291 291 290 289 289 289 288 288 287 286 286 285 285 284 284 283 283 282 282 281 281 280 279 278 278 277
296 296 296 298 297 295 292 292 291 290 289 286 288 288 286 286 284 284 285 287 289 289 290 289 288 289 288 291 290 290 289 288 287 286 285 285 285 285 285 284 283 283 283 282 282 281 281 281 280 279 278 277 276 275
297 296 296 296 297 292 292 293 292 290 290 288 287 285 284 283 282 282 284 285 287 287 286 286 285 285 286 288 288 287 287 286 286 285 284 284 283 282 282 282 281 281 280 279 279 278 278 277 276 276 276 275 273 272
296 296 296 296 295 293 294 293 293 292 293 291 288 289 285 284 282 282 283 284 284 284 284 283 283 285 286 287 286 286 286 285 285 284 283 282 281 281 280 280 279 279 278 277 276 275 274 274 274 273 273 272 271 270
294 294 295 296 293 293 294 292 294 294 291 291 291 289 286 284 282 281 282 282 283 282 282 282 282 282 282 283 284 283 283 282 282 281 281 280 280 279 278 277 277 276 276 276 275 274 273 272 272 272 271 270 270 269
293 293 293 292 294 294 295 293 294 294 293 293 291 289 286 285 284 283 281 281 281 282 281 281 280 280 280 280 280 280 280 280 279 279 278 278 277 276 276 275 275 275 274 274 273 273 272 272 271 271 270 269 268 267
289 285 288 289 291 293 291 292 294 294 292 292 291 289 289 285 284 281 280 279 278 279 279 279 279 279 279 279 278 278 278 278 277 277 276 276 276 275 274 274 273 273 272 272 271 271 271 271 271 270 270 269 268 267
282 280 281 282 284 288 289 288 287 289 288 288 287 286 289 287 284 281 279 277 277 277 277 275 274 276 277 276 275 275 276 276 276 276 275 275 274 274 273 273 272 272 272 271 270 270 270 271 270 269 269 268 267 267
280 280 280 280 281 284 284 281 282 281 281 284 284 285 281 277 277 278 277 276 275 275 275 275 274 274 273 272 273 273 273 273 273 272 272 274 273 273 272 272 271 270 271 270 269 269 269 269 269 269 268 268 267 266
276 276 280 280 280 282 278 276 278 275 275 276 278 275 275 274 275 276 275 274 274 273 273 273 273 272 272 271 271 270 271 272 270 269 269 271 271 270 270 269 268 269 270 270 270 269 268 268 268 267 267 267 266 266
277 277 273 272 273 276 271 272 274 275 275 277 276 272 270 271 273 274 274 273 273 273 272 272 272 271 271 270 270 270 269 269 269 269 268 268 268 268 269 269 269 270 270 269 269 269 268 268 267 266 266 265 265 264
275 275 273 269 269 271 274 272 271 274 274 275 268 270 271 273 273 274 273 273 273 272 272 271 270 270 270 270 270 270 271 271 269 268 267 266 266 267 267 267 267 267 268 268 268 267 267 267 266 265 265 265 264 264
274 272 270 266 268 271 272 270 270 265 270 271 272 273 272 271 271 273 273 273 272 272 272 271 270 270 269 268 268 268 270 271 270 268 266 265 266 266 267 267 266 266 266 266 266 266 265 265 265 265 265 264 264 263
274 270 269 269 271 271 269 267 273 272 266 265 262 266 266 269 272 271 271 272 271 271 270 269 269 269 269 268 267 267 266 267 268 268 267 267 266 266 266 266 266 266 266 265 265 265 265 265 265 265 264 263 263 262
268 266 268 268 270 269 270 273 267 268 265 266 269 262 266 265 266 269 270 271 270 269 268 268 268 267 267 267 267 267 266 266 266 266 265 265 265 265 265 265 265 265 265 264 264 265 265 264 264 264 263 263 262 262
269 267 264 266 268 271 269 273 270 272 269 265 267 265 264 264 266 268 270 270 270 269 268 268 267 267 267 266 266 265 265 265 265 265 265 264 264 264 264 264 264 264 264 264 264 263 263 263 263 262 262 262 261 261

GFSWCAN_925_thetae_087.txt.gz
Theta_e
296 296 297 298 298 297 298 298 299 299 299 299 299 299 299 299 300 301 301 300 300 300 301 301 302 303 303 303 304 303 304 303 302 301 299 303 303 306 308 312 314 316 317 316 315 315 316 314 320 320 316 319 318 318
296 297 297 296 297 298 298 298 298 298 298 298 299 299 299 299 299 299 299 299 300 299 301 301 301 302 303 303 304 304 305 304 304 303 301 302 302 301 308 309 312 314 313 317 315 313 311 313 320 319 318 318 319 317
298 297 297 298 299 300 300 300 300 300 299 299 299 299 299 300 299 300 300 298 298 297 298 298 299 301 301 302 304 305 304 305 307 305 304 305 304 303 304 309 310 312 313 316 316 314 313 313 314 318 317 317 316 316
297 298 299 300 301 300 300 300 300 301 301 300 300 299 300 299 299 300 300 299 298 299 299 297 298 298 301 302 305 305 306 307 306 306 306 302 303 306 306 307 311 310 315 316 314 313 312 313 314 316 317 316 316 315
299 300 300 301 301 301 301 301 301 301 301 301 301 300 300 299 298 299 300 299 299 298 296 295 300 299 299 300 303 306 306 307 307 306 305 308 305 308 307 308 310 309 311 312 312 312 312 313 312 315 315 315 316 316
301 302 301 301 301 299 300 300 300 301 300 302 301 301 300 299 298 299 296 299 299 298 299 301 299 302 304 304 305 305 306 307 307 307 306 305 307 308 305 308 308 309 308 310 312 311 312 313 314 313 316 313 314 315
301 301 301 300 299 300 300 300 301 301 301 300 300 300 301 299 300 297 299 299 299 299 300 300 304 303 304 304 305 305 305 307 307 306 305 306 307 308 305 306 308 308 307 307 308 312 315 315 315 309 308 304 303 301
301 301 301 298 299 299 299 299 300 301 301 300 300 301 299 300 298 299 301 299 298 299 299 300 305 305 302 305 306 304 305 304 305 306 304 305 304 303 305 306 307 307 307 307 308 308 312 311 308 306 301 298 295 294
300 301 300 299 299 300 299 300 300 300 299 301 301 300 299 298 299 301 300 299 299 300 299 300 303 305 301 303 304 302 303 305 300 302 303 303 302 305 306 306 310 308 309 308 311 310 309 307 305 301 298 295 292 290
301 301 301 301 300 301 300 300 301 301 301 300 298 298 297 301 300 300 300 300 300 301 298 298 299 303 302 301 301 302 295 298 304 304 303 303 303 304 308 308 305 302 301 301 309 308 304 300 297 295 292 290 289 287
300 300 300 300 300 300 300 300 299 300 300 299 298 301 301 300 299 297 299 300 300 301 299 300 299 303 299 301 303 295 302 297 303 302 304 306 306 305 305 302 299 298 297 296 297 302 300 296 292 290 288 287 286 285
300 300 300 301 300 300 300 301 300 300 299 300 300 301 300 300 298 300 299 300 299 302 297 301 298 299 299 295 299 300 299 302 304 301 306 306 305 302 300 298 296 296 294 293 292 291 290 289 288 287 286 285 284 283
300 300 300 300 301 300 301 301 302 302 302 300 300 298 299 296 296 296 300 302 299 294 296 300 300 300 299 297 297 299 302 302 301 307 305 304 300 297 296 294 293 291 290 290 289 288 287 287 286 285 284 283 282 282
299 300 300 300 300 300 301 302 302 301 300 297 295 294 291 292 296 296 299 301 296 298 298 299 300 300 299 299 300 302 298 304 307 304 304 299 295 293 292 291 291 289 288 287 287 286 285 284 284 283 282 282 281 280
298 299 300 300 298 299 298 298 297 295 293 292 293 294 293 293 292 291 292 294 292 293 299 300 300 301 301 299 300 301 304 304 304 302 295 293 291 290 289 288 287 287 286 285 284 284 283 283 282 282 281 280 279 278
298 297 297 299 297 298 296 296 296 295 290 289 288 290 289 290 289 289 289 290 290 291 295 300 302 302 300 299 301 298 298 295 292 291 290 290 289 288 287 286 285 285 284 284 283 283 282 281 281 280 280 279 279 278
297 296 296 298 299 296 296 295 292 290 290 288 287 286 286 284 286 287 286 288 288 292 301 299 298 296 297 296 294 293 291 290 288 289 288 287 286 285 285 284 284 284 283 282 282 282 281 281 280 280 279 278 277 276
296 295 297 298 298 296 295 293 290 290 290 288 286 285 284 282 282 282 284 286 289 293 293 292 292 292 292 293 291 290 290 289 288 287 286 285 285 284 284 284 283 283 283 282 282 281 280 280 279 279 278 277 276 275
296 295 296 298 295 295 291 291 289 288 286 285 285 283 282 281 282 283 284 286 288 288 289 288 287 288 287 290 289 288 287 286 285 284 283 284 284 284 284 283 283 282 282 282 281 280 280 279 278 278 277 276 275 274
296 296 296 295 295 290 291 291 290 288 286 283 281 282 282 282 282 282 284 285 286 286 285 284 284 284 285 287 287 286 286 285 284 283 282 282 282 281 281 281 280 280 279 279 278 277 277 276 276 275 274 274 273 272
296 295 296 296 294 293 294 289 292 289 287 287 284 286 284 284 282 282 283 284 283 283 283 282 282 284 284 284 284 284 284 284 283 282 281 280 280 280 279 279 278 278 277 277 276 275 274 274 273 272 271 270 269 269
293 294 295 295 293 293 293 292 292 292 290 290 289 288 286 283 281 281 282 281 282 281 281 280 280 281 281 281 282 281 281 280 280 280 279 279 279 278 278 277 277 276 275 275 274 273 273 272 270 270 269 268 269 269
292 292 291 290 292 293 294 292 294 293 293 292 289 287 284 282 282 281 279 279 279 278 278 279 279 279 279 279 279 278 279 279 278 278 277 276 276 276 276 275 275 275 274 273 272 271 270 270 270 269 269 269 268 268
287 283 286 286 289 291 291 291 292 291 290 291 290 289 286 283 282 280 279 278 277 277 276 276 277 278 277 277 276 277 277 277 277 276 276 275 275 274 274 273 272 272 272 271 271 270 270 269 269 268 268 267 267 266
282 280 280 281 283 285 284 283 283 287 286 286 285 286 286 284 281 279 277 276 275 275 275 275 274 275 275 275 275 274 275 276 275 275 274 274 273 273 272 271 271 271 272 271 269 269 269 269 269 268 267 266 265 265
279 278 279 280 281 282 282 278 278 278 277 279 280 280 277 275 275 276 276 274 274 274 274 274 274 274 272 272 272 272 272 273 272 271 271 273 273 273 272 271 270 270 271 272 271 269 269 269 268 268 267 266 266 265
275 274 278 277 279 280 275 275 277 274 274 274 274 271 270 270 273 275 275 273 274 273 272 272 272 272 272 271 270 270 270 271 270 269 269 271 271 271 271 269 269 269 270 271 271 270 269 269 268 267 267 266 266 266
276 276 273 270 272 274 270 271 272 273 273 275 273 270 270 269 273 274 273 273 272 271 270 270 270 270 270 270 269 269 269 269 269 269 269 269 269 269 270 270 270 270 270 269 269 269 269 268 268 267 267 266 265 265
272 271 271 267 268 270 273 269 271 273 273 272 265 267 270 272 271 272 273 272 272 271 271 270 270 270 270 270 270 270 270 270 269 267 267 266 266 266 267 268 268 269 269 269 268 268 267 267 266 266 265 265 264 264
272 269 268 265 268 271 268 265 266 265 268 270 272 272 271 270 270 272 272 272 271 270 270 270 270 270 269 268 268 268 269 269 269 268 265 265 266 266 266 266 266 267 267 267 266 266 266 265 265 265 264 264 264 263
269 268 268 268 270 269 265 264 270 269 262 263 259 263 266 267 270 270 270 270 270 270 270 268 268 269 268 268 267 267 266 267 268 268 267 266 266 266 266 266 266 266 266 266 265 265 265 265 265 264 264 263 263 262
265 263 266 268 270 269 268 265 263 264 261 263 264 258 262 261 262 266 269 270 270 268 268 268 267 266 267 267 267 267 266 266 266 266 266 266 266 265 265 265 265 265 265 265 265 265 265 265 264 264 264 263 262 262
265 263 261 264 268 269 268 270 270 269 266 265 266 263 262 261 264 267 268 269 269 268 267 267 267 266 266 266 266 265 265 265 265 265 264 264 264 264 264 264 264 264 264 264 263 263 264 263 263 263 262 262 261 261

GFSWCAN_925_thetae_090.txt.gz
Theta_e
294 294 294 295 296 296 297 298 299 299 298 298 298 298 298 298 298 299 299 299 299 298 301 300 300 302 301 302 303 303 304 302 303 305 303 303 303 305 305 304 308 310 316 317 317 319 319 313 316 321 315 316 317 316
295 295 296 296 297 297 298 297 297 297 297 298 299 298 298 299 299 299 299 299 299 299 301 301 301 301 301 301 302 303 304 303 303 304 300 300 301 299 305 308 307 311 312 314 315 316 314 311 313 313 317 317 317 316
295 295 297 297 297 297 297 298 298 299 299 298 298 298 299 299 299 299 300 299 299 296 297 299 300 301 301 302 302 303 301 303 305 306 306 304 302 301 302 304 307 307 310 312 313 312 312 311 312 312 314 316 317 316
297 298 298 298 298 298 299 299 299 299 300 300 299 298 298 298 299 299 300 298 298 298 300 299 299 299 301 301 301 302 303 304 305 306 305 306 303 303 303 303 305 306 309 311 312 313 313 311 312 311 314 316 315 316
298 298 299 300 300 301 300 301 301 301 301 300 300 300 299 298 298 299 299 298 298 298 299 296 298 298 300 299 301 302 304 305 305 306 305 307 306 307 304 305 305 306 307 308 309 311 310 309 310 313 313 314 311 313
300 300 301 301 301 300 299 299 299 300 301 301 301 301 300 298 299 300 299 299 298 298 299 299 296 299 299 298 300 301 302 305 306 305 303 303 305 307 305 304 304 304 305 306 308 309 308 308 311 310 313 307 302 300
301 301 301 300 298 299 299 299 299 300 300 301 301 300 301 299 299 297 298 299 299 298 299 297 295 300 300 299 299 302 302 304 305 306 306 306 304 308 299 307 305 306 306 306 305 306 306 309 312 304 303 301 299 297
301 300 298 298 299 299 299 300 301 301 300 300 300 301 301 300 298 298 300 298 299 298 299 295 294 304 301 301 303 302 303 304 305 304 304 306 305 303 306 304 305 305 305 305 305 305 306 306 302 300 298 297 295 293
301 301 299 299 300 300 299 300 301 301 301 300 301 301 299 296 297 300 299 299 299 299 299 297 294 304 301 304 304 304 304 303 301 303 303 305 305 307 305 304 304 304 307 308 308 309 307 304 301 299 297 295 293 291
300 300 300 300 300 300 297 299 300 301 301 298 295 295 297 300 299 299 299 299 298 300 299 295 299 303 302 302 303 302 302 304 306 305 302 305 305 302 303 303 303 305 304 303 306 307 303 300 295 292 291 290 289 287
300 300 300 299 300 300 300 299 299 298 298 298 300 300 300 299 298 298 298 298 299 299 298 298 299 302 298 303 303 299 303 301 301 300 303 305 304 302 302 302 298 297 297 296 297 295 299 295 290 289 288 287 286 285
300 300 299 300 300 301 300 300 301 300 300 300 300 300 300 299 299 298 295 299 300 300 299 299 300 301 298 298 301 299 301 302 303 299 305 304 301 301 300 298 296 294 292 291 291 290 289 288 288 287 286 285 284 283
300 300 300 300 299 301 301 301 300 300 300 300 297 296 298 295 298 300 294 300 299 297 299 299 300 299 298 295 298 300 301 302 299 306 306 302 299 297 296 294 292 291 290 289 288 287 286 286 286 285 284 283 281 280
300 300 299 299 300 301 300 301 299 299 298 295 294 295 291 286 291 294 297 299 295 297 299 295 298 300 298 299 299 300 295 301 307 305 305 299 295 293 292 292 290 289 288 287 287 286 285 284 283 282 281 280 280 279
298 299 300 299 298 297 299 299 295 295 290 290 291 291 292 291 290 290 291 293 291 293 298 298 300 299 299 300 300 300 303 304 303 295 292 292 291 290 289 288 287 286 285 285 284 283 282 282 281 280 279 279 278 277
298 298 298 298 296 298 296 294 294 292 288 287 285 288 287 289 287 287 287 289 290 290 294 299 300 300 299 297 302 298 299 296 288 288 288 289 288 287 287 286 285 284 284 283 283 282 281 280 279 279 278 278 278 277
297 296 296 297 296 293 294 293 291 289 287 286 285 284 285 284 284 284 284 286 287 291 299 297 297 295 295 294 293 292 289 289 286 286 286 286 286 285 284 284 283 283 282 281 281 280 280 279 278 278 277 276 275 275
295 295 296 296 297 296 293 291 289 289 289 287 285 283 282 281 282 281 283 284 288 292 292 291 291 291 291 292 291 290 288 286 286 286 285 285 284 284 284 283 283 282 282 281 281 280 280 279 278 277 276 275 274 273
295 295 295 295 295 294 291 290 288 286 284 283 281 281 281 281 282 283 284 285 287 287 288 288 286 287 287 288 287 286 285 285 283 283 282 283 283 283 283 282 282 282 281 281 280 279 278 278 277 276 275 274 273 272
296 295 295 295 295 290 291 289 288 286 282 282 281 282 282 282 282 282 283 284 285 284 283 283 282 282 284 286 286 285 284 283 282 282 281 281 281 281 281 280 279 279 278 278 277 277 276 275 275 274 274 273 272 270
295 295 295 295 293 292 292 289 289 285 284 285 284 285 283 283 281 281 281 282 281 281 281 280 280 281 282 282 282 282 282 282 282 281 281 280 279 279 279 278 278 277 277 276 275 274 273 272 272 271 270 269 269 268
292 293 293 294 290 292 292 290 290 288 287 286 287 287 283 282 281 281 280 279 279 278 278 279 279 280 279 279 280 280 279 279 279 278 279 279 278 278 278 277 276 275 275 274 274 272 271 270 269 269 268 268 268 267
291 290 289 289 290 289 293 292 290 292 292 290 289 286 283 281 281 280 279 278 277 276 276 276 278 277 277 278 278 277 278 278 277 277 276 276 276 276 275 275 275 274 273 272 271 270 268 268 268 268 267 267 267 266
286 282 285 285 288 288 289 289 290 290 289 290 289 286 284 282 281 279 278 276 276 275 275 275 276 277 276 276 275 276 276 276 276 275 275 275 274 273 273 272 272 272 272 271 269 268 268 268 268 268 267 266 266 265
281 278 279 279 282 283 283 281 281 284 285 284 285 283 282 282 279 278 276 275 274 273 273 274 274 274 275 274 274 273 274 275 275 275 274 274 273 272 271 270 270 270 271 270 268 268 267 268 268 267 267 266 265 265
276 276 277 278 278 279 279 277 277 277 276 277 277 277 274 274 274 275 275 273 273 273 272 273 273 273 271 271 271 271 270 272 272 271 270 272 273 273 272 272 271 269 271 271 270 268 267 267 267 266 265 265 265 264
275 275 277 275 277 278 274 274 275 273 273 274 273 269 270 270 272 274 274 272 273 271 271 271 271 271 271 270 269 269 269 270 269 268 268 270 271 271 271 270 268 269 270 271 270 270 268 267 267 266 266 265 265 265
276 274 271 268 270 273 268 269 270 271 272 274 271 269 269 268 272 273 272 272 271 270 270 270 270 270 269 270 269 269 269 269 269 269 269 269 269 269 269 269 269 269 270 270 270 270 269 268 268 267 266 266 265 264
269 269 270 267 268 269 270 269 270 271 271 270 263 266 269 271 270 271 272 271 271 271 270 269 269 270 270 270 270 269 269 270 269 268 268 267 266 266 268 269 269 269 269 268 268 268 268 268 267 267 266 265 265 264
270 268 267 264 266 268 266 265 266 264 268 269 271 271 270 269 269 270 271 271 270 269 269 269 269 269 268 268 267 267 268 268 268 268 267 266 265 265 266 267 268 268 268 267 267 266 266 265 265 265 264 264 264 263
267 266 266 267 268 266 263 262 267 267 262 262 259 263 265 264 269 269 269 269 269 269 269 268 268 268 268 267 267 266 265 266 267 267 267 267 266 266 266 266 266 266 266 266 266 266 265 265 265 264 264 264 263 263
263 260 265 268 270 266 263 259 259 260 258 261 262 257 259 261 261 265 268 269 269 267 267 267 266 265 266 266 266 266 266 266 266 266 266 266 266 265 265 265 265 265 265 265 265 265 265 264 264 264 263 263 262 262
262 260 260 263 266 266 265 268 268 266 263 263 262 259 257 259 263 266 267 267 267 267 267 266 266 266 266 266 265 265 265 265 265 264 264 264 264 264 264 264 264 264 264 264 264 264 264 264 264 263 263 262 262 261

GFSWCAN_925_thetae_093.txt.gz
Theta_e
293 293 293 294 294 294 295 295 295 296 296 297 297 297 298 297 297 297 298 298 296 298 299 300 300 300 301 302 302 303 304 304 305 306 306 305 305 305 304 304 304 312 311 310 310 314 313 314 317 318 317 316 316 318
293 294 294 295 295 295 295 296 296 296 297 297 298 298 297 298 298 297 298 297 298 298 299 299 300 300 300 301 301 302 304 303 304 305 304 304 305 304 306 305 305 307 310 315 314 311 315 313 313 313 316 315 317 319
294 295 295 296 296 297 297 297 297 298 298 297 296 297 298 298 298 298 298 298 298 298 296 300 300 300 300 300 301 302 302 303 303 304 305 304 304 304 308 307 307 306 308 312 312 311 312 312 312 312 312 314 315 317
295 295 296 296 297 297 298 298 298 298 298 298 298 298 297 298 298 298 299 298 298 297 300 301 299 299 300 300 301 301 302 303 304 305 306 306 306 305 306 305 306 306 308 310 310 309 311 312 311 310 312 314 315 315
295 297 298 299 299 299 299 299 299 299 299 299 299 299 298 298 299 299 299 298 298 299 300 299 297 299 300 300 301 301 302 303 304 305 304 306 306 307 306 306 308 306 307 309 309 308 310 311 309 309 313 310 308 312
300 300 301 301 301 301 301 301 300 301 299 300 300 299 300 298 298 299 299 298 298 298 299 300 297 298 299 299 300 301 302 303 304 305 305 305 305 308 307 308 306 306 306 306 307 306 309 308 308 309 311 305 303 303
300 301 301 300 299 299 299 299 299 299 300 301 300 300 300 299 298 298 299 299 298 298 299 299 298 297 299 299 300 300 301 303 303 303 303 305 306 307 305 307 305 306 306 306 306 306 308 306 307 306 304 301 298 297
301 300 298 298 300 300 300 299 299 299 299 299 300 301 300 298 298 298 299 299 298 298 299 297 296 300 299 300 300 300 302 303 303 304 304 306 306 306 308 306 306 306 306 306 306 305 306 306 304 301 300 300 298 296
300 300 300 299 299 299 299 300 300 300 300 299 300 301 300 295 294 298 299 299 298 298 300 298 297 301 300 301 302 302 303 304 303 303 305 305 306 307 307 306 306 306 306 306 307 307 309 307 304 301 299 296 294 291
300 300 300 299 298 300 300 300 300 301 300 300 300 293 296 297 299 298 300 297 298 300 298 297 296 300 301 302 301 301 302 304 304 303 304 305 306 305 304 305 305 303 304 306 307 309 306 303 298 295 295 293 291 289
300 300 299 300 299 298 297 298 298 299 298 296 295 299 299 299 299 298 299 299 299 300 298 298 299 301 300 303 303 301 304 303 305 305 306 307 306 304 302 301 298 297 297 296 297 297 298 301 294 291 289 289 288 286
299 299 300 300 300 300 299 299 299 299 300 300 299 299 299 299 298 299 299 299 298 299 299 300 300 300 299 299 302 300 302 302 304 302 306 305 303 300 299 298 296 294 293 292 292 291 291 291 290 289 287 286 285 282
299 299 299 299 300 300 299 299 299 299 299 299 296 296 298 292 294 293 299 300 300 298 300 300 301 299 298 298 299 301 303 304 301 306 305 303 297 297 295 294 292 291 290 289 288 288 287 287 286 286 285 283 281 280
299 300 300 297 299 299 299 299 300 299 297 294 291 289 288 288 291 292 296 297 294 296 299 299 299 300 299 300 300 301 299 302 305 307 305 296 294 293 291 291 290 289 289 288 287 286 285 284 283 281 281 280 278 277
299 300 299 297 297 295 295 296 295 294 290 289 289 289 288 289 288 289 289 293 291 292 298 299 300 300 299 300 300 300 302 304 304 300 292 291 290 290 289 288 287 286 285 285 284 283 282 281 281 280 279 278 277 276
297 299 298 294 297 297 295 294 293 289 287 285 283 286 285 287 286 286 286 289 288 289 293 299 300 298 299 300 301 298 301 300 292 289 288 288 287 287 286 285 284 284 283 282 281 280 280 279 278 278 276 276 275 274
297 296 297 297 293 293 293 291 289 288 287 285 284 283 284 283 282 283 284 286 286 290 298 296 295 294 295 295 292 291 290 290 288 287 286 285 285 285 284 283 282 282 281 280 280 279 278 278 277 277 276 275 274 273
295 295 295 296 297 294 290 289 289 288 285 284 284 283 283 282 283 283 284 285 288 292 291 291 291 290 290 291 290 290 287 285 285 285 285 284 284 284 283 283 282 281 281 280 279 279 278 277 277 276 275 274 273 272
294 294 295 295 295 293 291 289 287 284 283 282 282 282 282 282 282 283 283 285 286 286 287 287 286 286 286 288 288 287 285 285 283 282 282 283 283 283 282 282 281 281 280 280 279 278 277 277 276 275 274 273 272 271
295 295 294 294 294 290 290 289 286 285 282 282 282 283 282 282 281 281 281 282 283 283 281 281 281 281 283 284 285 284 283 283 282 281 281 281 281 280 280 279 279 278 277 277 276 276 275 275 274 273 273 272 271 270
295 294 295 294 292 291 290 289 286 284 283 285 284 285 284 283 281 280 280 280 279 279 280 279 279 280 279 280 281 282 282 282 281 281 280 280 279 279 278 278 277 277 276 276 275 273 273 272 272 271 270 269 268 267
291 292 293 293 290 290 290 288 289 286 286 286 287 284 283 282 281 280 279 277 277 276 276 277 277 278 279 278 279 279 279 278 278 278 278 278 278 278 277 276 276 275 274 274 273 272 271 270 269 269 268 267 267 266
290 290 288 287 288 287 292 290 289 291 289 289 287 284 282 281 281 280 278 277 276 275 275 276 276 276 276 276 277 277 277 277 277 276 276 275 275 275 275 275 274 274 273 271 271 270 268 268 267 267 267 266 266 265
285 281 282 283 285 284 285 285 288 289 287 289 287 284 283 282 280 278 277 276 275 274 274 275 275 276 276 275 275 275 276 276 275 275 275 274 274 273 272 272 272 271 271 270 269 268 268 267 267 267 266 265 265 264
280 276 278 278 280 281 280 279 281 283 283 282 283 281 280 281 279 277 276 274 274 273 273 274 274 273 274 274 273 273 273 274 274 274 274 273 273 272 271 270 270 270 270 269 268 267 266 266 266 266 265 265 264 263
276 275 277 277 277 278 278 277 277 277 277 277 277 275 275 275 275 275 274 273 273 272 272 272 273 272 271 270 271 270 270 272 272 271 270 271 273 273 273 273 271 269 270 270 269 267 267 267 266 266 265 265 265 264
272 272 275 274 276 276 273 273 274 274 274 274 273 271 272 271 273 274 273 272 272 271 270 270 271 271 270 270 269 269 269 270 269 268 268 269 271 271 271 270 270 269 270 270 270 269 268 267 266 266 265 264 264 264
275 274 271 269 271 271 268 268 270 271 272 273 271 269 270 269 272 272 272 271 270 270 270 269 269 269 269 269 269 269 269 269 269 269 269 269 269 269 269 270 270 270 270 270 270 269 268 267 266 266 265 265 264 264
268 269 270 266 267 268 269 268 269 270 270 269 265 268 270 270 269 270 271 270 270 270 269 269 269 269 269 269 269 269 269 269 270 270 269 269 268 266 268 268 269 269 269 269 268 268 268 267 267 266 266 265 264 264
268 267 266 263 266 268 267 265 266 264 267 269 271 270 269 268 267 268 269 269 268 267 268 268 268 268 268 268 267 266 267 268 268 268 268 267 265 266 267 268 268 267 267 267 267 266 267 266 266 265 265 264 264 263
265 266 266 267 268 268 264 260 264 264 262 263 261 264 265 264 267 267 267 268 268 268 268 266 266 266 266 265 265 266 265 266 267 267 267 266 266 266 266 266 266 266 266 266 266 265 265 265 264 264 264 263 263 263
263 260 266 268 269 265 262 260 259 262 262 264 264 259 261 263 264 265 266 268 267 266 265 266 265 263 265 265 265 265 265 265 266 266 266 265 265 265 265 265 265 265 265 265 265 265 265 264 264 264 263 263 263 262
260 259 260 264 266 266 266 266 266 264 263 264 264 258 257 261 263 265 266 266 266 266 265 265 265 265 265 265 264 264 264 264 264 264 264 264 264 264 264 264 264 264 264 264 264 264 264 264 264 263 263 263 262 262

GFSWCAN_925_thetae_096.txt.gz
Theta_e
292 292 293 293 293 294 294 294 295 295 295 295 295 295 295 296 295 295 296 296 296 297 297 297 297 298 301 302 303 303 303 304 306 306 307 306 306 305 305 305 310 311 312 311 310 312 312 311 316 318 316 315 316 316
292 293 293 294 294 295 295 295 295 295 295 295 295 296 296 296 296 296 296 296 296 297 297 297 296 298 299 299 302 301 303 304 304 306 307 306 307 306 305 307 306 307 307 309 311 311 309 310 313 312 312 314 313 316
293 294 294 295 295 295 296 296 296 296 296 296 297 297 297 297 297 297 297 297 296 297 296 298 298 300 299 300 300 303 303 302 304 305 306 307 307 306 307 307 306 306 307 310 311 308 311 311 309 311 311 313 315 316
294 294 295 295 295 295 296 296 296 297 297 297 297 297 298 298 298 297 298 297 297 296 299 301 298 299 300 300 301 301 302 302 303 305 306 307 308 307 307 307 308 307 307 307 308 308 308 308 310 309 310 313 313 313
294 295 296 297 297 298 298 298 297 297 298 298 297 297 297 297 297 298 298 297 297 299 302 301 300 300 300 300 301 301 302 303 305 305 306 306 306 306 307 307 308 308 308 308 309 308 308 307 307 309 310 313 311 312
295 297 299 300 300 300 300 299 299 299 298 298 298 298 298 297 297 299 295 298 298 298 300 302 301 300 301 301 301 302 303 304 305 304 307 306 306 307 309 308 306 307 307 308 309 308 308 308 308 309 311 310 307 309
298 300 301 299 300 300 300 301 301 300 300 299 299 299 298 299 298 297 300 298 298 297 300 302 302 301 301 302 302 303 302 303 304 303 305 306 306 307 307 308 306 306 306 307 307 307 308 308 308 309 308 305 303 302
300 300 299 299 299 299 300 300 299 299 299 299 299 300 298 299 299 298 300 298 297 298 300 303 302 303 301 303 304 303 303 303 303 305 305 307 305 306 310 306 306 306 306 307 307 308 308 308 307 307 307 306 303 300
300 300 299 298 299 299 299 299 300 300 299 300 299 300 300 297 297 298 299 298 298 300 301 301 303 304 303 303 302 303 303 304 303 304 304 304 305 306 304 304 304 306 307 308 308 308 308 308 311 307 305 304 302 296
299 299 298 298 299 299 299 300 299 299 299 299 299 293 296 294 298 298 299 297 299 300 300 302 302 303 302 302 304 304 304 303 303 303 304 306 306 304 304 304 305 306 306 307 308 308 308 310 308 304 303 301 298 292
299 300 299 299 297 298 299 300 300 299 299 296 294 299 298 299 298 298 300 302 302 302 301 302 302 304 302 304 305 303 304 304 304 305 305 305 305 305 305 305 304 302 302 302 303 304 304 305 306 300 298 296 293 289
298 300 300 300 299 299 298 300 300 299 298 297 299 299 298 298 300 303 302 301 300 301 299 300 301 303 300 302 305 303 305 304 308 305 306 306 305 300 301 300 298 297 296 297 297 298 298 298 299 297 294 291 288 284
299 299 298 297 298 299 299 299 299 299 299 299 299 297 301 298 303 302 300 301 301 301 300 301 302 300 300 302 305 304 306 307 305 307 307 304 297 296 295 295 294 292 291 291 292 293 293 293 292 291 288 284 282 281
299 299 299 295 295 297 299 299 299 299 296 296 299 295 298 298 297 299 301 301 298 299 300 301 301 303 302 303 305 304 304 305 307 308 306 296 293 293 293 291 291 290 289 289 289 288 288 287 286 284 282 281 279 279
300 297 296 296 297 295 294 295 296 293 292 293 294 294 293 291 291 292 292 295 293 293 300 302 302 301 302 304 303 303 304 306 306 303 295 293 291 290 290 290 288 287 286 285 284 283 283 282 281 280 279 279 277 277
299 301 297 293 294 293 292 291 291 290 289 288 287 291 290 293 291 291 291 293 291 291 295 301 303 301 302 303 303 302 305 303 296 293 291 290 289 288 287 286 285 284 283 282 281 280 280 279 278 277 276 275 275 275
297 297 297 294 291 292 292 290 290 288 288 287 287 286 287 288 288 288 288 289 289 292 302 301 302 299 298 299 296 294 294 292 291 290 288 287 287 286 285 284 283 283 282 281 281 279 278 277 277 277 277 275 274 273
295 295 295 296 295 292 289 289 289 288 286 286 287 286 286 285 286 287 287 288 291 294 295 294 293 293 293 294 293 291 290 288 287 287 287 286 286 285 285 284 282 282 281 280 279 279 278 277 277 276 275 274 273 272
294 294 295 295 294 293 292 289 288 286 286 285 285 285 285 285 284 284 285 286 287 287 289 288 287 288 288 288 288 290 288 287 286 285 284 284 284 283 283 282 281 281 280 280 279 279 277 277 276 275 274 273 272 272
294 294 293 293 293 293 291 289 287 287 286 285 285 284 284 284 283 283 282 283 284 283 282 282 282 282 282 283 284 286 286 285 285 284 283 283 282 281 281 280 279 279 278 277 277 276 276 275 274 274 273 273 272 271
294 293 294 293 292 292 292 290 288 287 286 287 286 285 285 283 282 281 280 280 280 279 280 279 280 280 280 280 281 283 283 284 284 284 283 282 281 280 280 279 278 278 277 277 276 275 275 274 273 272 271 270 270 269
291 292 292 293 293 292 292 290 290 289 289 288 288 286 285 284 283 281 279 278 277 277 277 277 278 278 279 279 279 280 280 280 280 280 280 280 281 280 279 279 278 277 277 276 275 274 273 273 272 271 270 270 269 268
289 289 289 290 292 293 293 291 293 291 291 289 287 286 284 283 282 280 278 277 276 276 276 277 277 277 277 277 278 278 278 279 279 279 278 278 278 277 277 276 276 275 275 273 273 273 272 271 271 270 270 269 268 267
284 282 284 286 289 289 288 288 289 290 289 289 287 285 284 283 281 280 278 276 276 275 275 276 276 278 278 277 277 276 277 277 277 276 276 276 276 275 274 274 274 273 273 273 272 272 271 271 270 270 270 269 269 268
284 278 282 282 282 284 284 284 283 286 285 285 284 283 282 282 281 279 278 276 276 275 274 275 275 275 276 276 275 274 274 275 276 276 275 274 274 273 273 273 272 272 272 272 272 271 271 270 270 269 269 268 268 267
278 277 279 279 280 281 281 281 280 280 281 281 279 278 279 279 278 277 276 274 275 274 274 274 275 275 274 273 274 273 272 273 274 273 271 273 275 276 275 275 273 271 271 271 271 270 270 269 269 268 267 266 266 266
278 277 277 275 277 278 277 277 277 278 278 278 277 276 277 276 276 275 275 273 274 272 272 272 273 273 273 272 271 270 270 270 270 269 269 269 270 271 273 273 271 270 270 270 270 270 269 269 268 268 267 266 266 265
276 276 274 273 273 274 273 274 274 275 275 275 275 274 274 274 274 274 274 272 272 272 272 271 271 271 271 270 270 271 271 270 270 270 270 269 268 268 268 268 269 269 269 269 269 269 268 268 267 266 266 265 264 264
274 274 273 270 272 272 272 273 273 273 272 273 274 273 272 272 271 272 272 272 272 272 272 272 271 271 270 269 268 268 269 271 273 273 273 272 271 268 267 268 268 268 268 268 268 267 267 267 267 266 265 265 263 263
274 273 273 271 271 273 272 272 272 271 272 273 272 272 271 270 269 269 270 270 270 270 269 269 269 270 270 270 269 268 267 267 268 271 272 271 268 266 267 267 267 267 268 268 267 265 266 267 266 265 264 263 264 263
273 275 274 274 273 273 272 269 271 272 272 272 272 272 271 271 269 268 267 268 269 269 269 268 267 267 267 267 269 269 268 266 265 266 266 266 266 266 266 266 266 266 266 266 265 265 265 265 265 265 265 264 263 264
274 273 274 273 273 273 272 274 274 274 274 274 273 271 270 272 271 269 266 268 268 268 266 267 267 265 264 264 264 264 264 264 264 264 265 264 264 265 265 265 265 265 265 265 265 264 265 265 265 265 264 264 263 262
274 275 275 275 274 275 274 274 274 274 273 273 271 269 269 271 270 268 265 265 265 266 265 264 263 263 264 264 263 263 263 264 264 264 264 264 264 264 264 264 264 264 264 264 264 264 263 263 263 263 262 262 261 261

GFSWCAN_925_thetae_099.txt.gz
Theta_e
292 292 292 292 292 292 293 293 293 294 294 294 295 295 295 295 294 295 296 296 297 297 298 298 298 300 300 303 303 303 305 305 308 307 306 306 308 307 307 307 312 313 314 313 311 314 315 309 311 314 316 315 315 315
292 292 292 292 293 293 293 294 294 294 295 294 295 295 295 295 295 295 296 296 296 298 298 297 297 297 298 299 302 302 303 303 305 307 306 308 309 308 307 310 307 312 311 313 312 312 309 309 313 313 312 312 315 314
291 292 292 293 293 294 295 295 295 295 295 295 295 295 295 295 295 296 296 296 296 298 298 299 299 298 299 298 298 302 302 303 303 305 307 307 310 307 310 308 308 309 308 309 310 310 310 310 311 308 309 310 312 313
292 292 292 293 294 295 295 295 296 296 296 296 296 296 296 296 296 296 297 297 297 297 298 299 298 298 297 299 300 299 301 301 303 305 306 308 306 306 308 309 309 308 309 311 310 309 309 308 309 310 310 310 310 312
292 293 293 294 295 296 296 297 297 296 296 296 297 296 297 297 296 297 297 298 297 298 302 301 300 300 300 299 298 300 302 303 304 305 306 308 306 307 307 308 308 307 308 310 310 309 309 309 309 309 309 310 312 312
293 294 294 295 296 298 300 300 299 299 297 297 296 297 297 297 297 298 298 298 297 297 300 301 301 302 302 301 301 303 304 304 304 304 306 305 304 307 308 308 307 307 308 308 308 308 308 308 308 309 309 311 309 311
295 296 298 300 301 299 300 300 300 299 299 298 297 297 297 297 298 295 300 298 296 297 298 302 301 303 302 302 303 303 303 304 304 303 305 305 305 306 309 309 307 307 306 307 307 307 308 308 309 309 309 309 306 305
299 300 300 299 299 299 298 299 300 300 299 298 298 298 298 298 297 297 300 298 297 297 298 304 304 304 302 304 304 303 304 304 304 305 305 305 306 306 307 305 305 306 307 307 307 308 309 309 308 308 308 309 307 304
299 299 299 299 298 298 299 299 299 299 299 299 299 298 299 297 296 298 298 298 298 299 303 304 305 305 303 305 304 304 304 304 304 305 304 305 306 306 305 305 304 305 306 306 308 308 309 309 309 310 309 309 308 301
299 299 299 298 298 298 299 299 299 299 299 300 299 293 296 295 298 298 297 297 299 301 302 302 303 305 305 305 305 305 304 304 305 305 304 305 306 305 305 305 305 305 306 307 307 307 308 311 310 309 308 307 305 299
299 300 300 299 299 299 298 299 299 299 299 295 294 298 297 298 299 299 300 302 303 303 302 302 303 305 303 305 305 304 307 305 305 305 305 306 305 306 305 305 305 304 305 305 305 304 306 306 307 307 305 302 297 292
298 299 299 298 300 300 300 300 300 299 296 296 299 299 298 298 300 303 303 303 302 302 303 303 304 304 304 304 306 305 304 307 306 306 307 306 303 299 300 300 299 299 299 299 299 299 301 301 303 305 302 298 291 286
297 297 298 298 300 300 300 299 299 299 299 299 300 299 302 301 305 304 303 302 303 303 301 302 305 303 303 303 308 305 307 305 307 306 306 303 298 296 296 295 295 294 294 294 293 293 295 296 296 297 293 288 285 283
297 297 298 298 298 299 299 299 299 299 298 299 301 299 303 302 302 303 303 304 301 303 302 303 303 303 304 304 306 303 306 306 306 306 306 297 294 293 293 293 293 292 290 290 290 289 289 288 287 286 285 284 282 280
295 296 296 297 298 299 299 299 298 292 294 296 298 298 295 294 294 295 296 299 296 297 301 302 303 303 304 305 304 307 306 307 308 304 298 293 292 291 290 290 289 289 287 287 286 285 284 283 282 282 281 280 279 277
298 298 293 293 293 294 294 293 293 292 291 291 291 294 294 296 296 295 296 296 293 294 298 301 304 305 305 305 306 305 306 305 298 294 292 291 290 289 288 287 286 286 285 284 283 282 280 279 278 278 277 276 276 276
298 299 294 291 291 292 292 293 291 290 291 291 290 290 292 292 292 292 292 292 292 295 304 304 307 304 302 304 300 297 297 294 291 291 290 288 288 287 286 286 285 284 284 282 281 280 278 278 277 277 277 276 275 274
298 297 295 295 295 292 290 290 291 290 289 290 289 290 288 288 290 289 290 290 294 297 298 297 297 298 298 298 296 294 292 291 289 288 287 286 286 286 286 285 284 283 282 281 281 280 279 278 277 277 275 275 274 273
294 295 296 295 294 294 292 290 290 289 288 288 288 288 288 287 286 286 288 289 289 290 292 291 291 292 291 289 288 289 289 289 288 287 286 285 284 284 284 283 282 282 281 281 281 280 279 278 277 276 276 275 274 273
293 293 293 293 295 294 292 291 290 290 289 288 287 287 286 286 286 285 285 285 286 286 284 285 284 284 284 284 284 286 287 287 287 287 286 285 283 283 283 283 281 280 280 279 279 278 277 277 276 275 275 274 274 273
296 294 294 295 293 293 292 292 290 289 289 288 288 287 287 285 284 283 283 282 281 280 282 280 281 281 281 281 282 283 284 285 286 286 285 285 283 282 281 280 280 280 280 279 278 277 276 275 274 273 273 272 272 271
293 294 296 295 295 294 293 291 291 291 290 289 289 288 287 286 284 282 280 279 278 278 278 279 279 280 280 280 281 280 281 283 283 283 283 283 283 283 282 280 279 279 279 278 277 276 275 274 273 272 271 270 269 269
292 292 291 293 296 294 292 293 294 293 292 290 289 288 287 285 283 281 280 279 278 278 278 279 279 279 279 279 279 279 280 281 282 281 281 281 280 280 279 279 279 278 277 276 276 275 274 274 273 273 272 271 270 270
285 285 287 289 292 291 291 290 291 291 291 290 288 287 286 285 284 282 280 279 279 277 277 278 278 281 281 279 279 277 278 280 279 279 279 279 278 278 277 276 276 275 275 275 275 275 274 273 273 273 272 272 272 271
286 280 286 286 286 288 289 288 288 288 287 287 286 285 284 285 284 282 281 278 278 278 277 277 278 278 279 279 278 277 276 277 277 278 277 277 277 276 275 275 275 275 275 275 275 274 274 274 273 273 272 272 271 270
282 280 282 284 284 285 285 286 285 285 285 284 283 282 283 283 281 280 278 277 277 276 276 276 277 278 277 275 276 275 274 276 276 275 273 275 277 277 277 276 275 273 274 274 274 273 273 272 271 271 270 269 269 269
282 281 279 278 280 281 282 281 282 282 282 282 281 280 281 281 279 277 277 276 276 275 274 274 275 275 275 275 274 273 272 272 272 272 272 272 272 273 274 274 273 272 273 273 273 273 272 271 271 270 269 269 269 269
278 278 277 277 277 278 278 278 279 278 279 278 279 278 278 278 277 276 276 274 274 274 274 274 273 273 273 273 273 273 274 273 272 272 272 271 271 271 271 270 269 270 271 272 272 272 271 271 270 270 269 269 268 268
278 277 276 274 277 276 276 277 277 275 275 277 278 277 275 274 274 274 273 274 274 274 274 274 274 274 273 272 271 271 272 273 276 276 275 274 272 271 271 271 271 271 270 269 269 270 269 269 269 268 267 267 267 267
278 279 277 276 276 276 275 276 275 276 275 275 274 274 274 272 272 272 273 273 273 273 272 272 272 273 273 273 272 270 269 269 270 273 274 272 270 270 270 270 270 271 271 270 269 267 267 267 266 266 267 267 267 266
279 279 278 277 276 276 275 275 275 275 276 276 276 275 275 273 272 270 270 271 272 272 272 271 270 269 270 269 271 272 270 268 267 268 269 269 269 269 268 269 269 269 269 269 269 269 269 269 269 268 268 268 266 267
279 279 277 276 276 276 276 278 278 277 278 277 276 276 275 276 274 272 269 271 271 270 269 269 269 267 267 267 267 266 266 266 266 265 266 267 266 266 267 267 267 268 268 268 267 267 267 268 268 268 267 267 266 266
280 279 279 278 277 278 277 279 278 278 278 277 275 275 274 275 273 271 268 268 268 268 268 267 266 266 265 265 266 266 265 263 264 263 264 264 264 264 266 266 266 266 267 267 267 267 267 266 267 266 266 265 264 264

GFSWCAN_925_thetae_102.txt.gz
Theta_e
292 292 292 292 292 293 293 293 293 293 294 294 294 294 294 295 294 294 295 296 298 298 298 298 298 299 300 301 302 303 304 304 306 306 306 305 306 307 308 307 313 311 312 312 311 312 312 311 312 314 316 312 313 314
293 292 292 293 292 292 292 293 293 293 293 294 294 294 294 295 295 294 295 296 297 298 298 298 298 298 298 299 301 301 302 302 303 307 307 308 308 309 309 311 309 313 310 312 311 311 311 311 312 313 312 312 312 312
292 291 291 292 292 292 292 292 293 294 294 294 295 295 295 295 295 295 295 296 297 298 298 298 298 297 298 299 299 302 301 300 301 303 305 308 307 308 312 311 311 310 310 311 312 312 313 311 310 310 309 309 309 309
292 292 291 291 292 292 292 293 294 295 295 295 295 295 295 295 295 295 296 296 297 298 298 298 297 299 298 298 299 300 301 300 302 303 304 307 306 305 308 309 310 310 308 310 311 312 311 311 310 310 309 308 310 310
292 292 292 292 292 293 294 294 295 295 295 296 296 296 295 295 295 296 297 297 296 297 299 299 299 299 299 300 299 299 301 303 304 304 304 307 304 306 307 307 308 307 307 309 312 311 310 311 310 309 309 309 311 311
292 293 293 294 294 294 295 295 296 296 297 296 296 296 296 296 296 297 297 297 297 297 299 298 300 302 302 300 301 302 301 302 304 302 305 304 305 306 307 306 306 307 308 308 309 308 308 308 308 308 309 310 309 309
295 295 295 295 295 296 298 299 300 300 299 297 296 296 297 296 297 297 299 299 297 297 296 300 299 301 301 303 304 303 302 304 303 303 304 304 304 306 308 307 305 306 306 306 307 308 308 308 310 310 309 308 306 301
297 297 298 298 299 300 299 298 300 300 300 299 297 296 297 297 297 296 297 299 298 296 296 302 303 303 303 304 304 303 304 304 303 304 304 305 305 306 307 305 305 304 305 306 307 307 308 309 310 308 309 309 308 300
299 299 299 299 299 299 299 299 299 300 300 299 298 297 297 298 294 297 298 298 297 298 301 300 303 303 304 305 304 304 304 305 305 305 305 304 305 306 305 304 305 305 305 305 306 307 308 307 310 310 310 309 306 299
299 299 299 299 299 298 299 299 299 300 299 299 298 292 295 294 298 297 297 298 297 298 301 303 303 305 305 306 306 307 305 305 305 305 304 306 306 304 304 305 305 305 305 306 307 307 307 307 307 309 309 307 305 296
298 299 299 300 299 298 299 299 299 299 298 293 293 298 297 298 298 297 299 301 301 302 302 303 304 305 304 307 306 305 305 305 305 305 306 306 306 305 303 302 301 301 302 303 303 303 303 304 305 305 306 300 296 292
298 298 299 299 299 299 298 298 299 298 295 297 299 299 298 299 300 303 303 302 302 302 304 304 305 305 305 305 304 303 304 304 305 307 309 306 301 298 298 298 298 297 297 298 298 298 299 300 300 302 299 294 289 285
297 299 300 300 300 299 298 299 299 298 299 299 300 299 301 300 303 302 302 303 304 305 304 304 305 303 304 304 304 305 303 304 306 308 306 301 296 295 295 295 295 295 291 292 293 292 292 291 290 290 288 286 284 282
297 298 298 300 300 299 299 299 299 299 298 300 301 303 303 302 303 303 304 305 304 306 305 306 305 305 305 304 303 302 305 306 305 306 303 295 293 292 292 291 291 291 289 288 288 287 286 286 285 284 284 282 280 280
298 297 296 296 297 298 299 298 294 294 295 298 301 300 298 296 297 298 299 300 298 300 304 304 304 303 305 304 304 304 305 305 305 300 296 293 291 290 289 289 288 288 287 286 285 284 283 282 282 281 281 280 279 278
297 296 295 298 298 297 296 295 294 292 293 291 294 296 297 298 297 296 298 296 294 296 300 302 302 302 304 304 304 304 305 302 296 294 292 290 289 289 288 287 286 285 285 284 282 281 279 279 278 278 277 277 276 276
299 295 293 296 296 292 293 294 291 292 292 292 292 292 295 294 294 293 293 293 293 296 303 302 305 305 304 304 302 297 296 294 292 291 289 288 288 287 287 286 285 285 283 282 280 279 279 278 278 277 277 276 276 275
298 294 291 292 293 293 292 293 292 291 290 292 291 290 290 290 291 290 291 291 294 298 300 298 299 301 298 300 296 293 292 292 290 289 287 286 286 286 285 285 284 283 282 281 281 280 278 278 277 276 275 274 274 273
297 296 295 295 296 293 292 292 292 290 290 290 290 290 289 288 287 288 288 290 290 291 293 294 291 291 290 288 287 288 289 289 289 288 287 284 284 284 284 283 283 282 281 281 281 281 279 278 277 277 276 276 274 273
294 294 294 294 295 293 292 292 291 291 291 289 288 288 288 287 287 286 286 286 287 287 285 285 285 284 283 283 284 284 286 286 288 289 288 286 284 283 283 283 282 281 280 279 279 279 278 278 277 276 275 274 273 272
296 295 295 295 294 293 294 292 291 290 290 290 289 288 287 286 285 284 283 283 281 281 282 281 281 281 281 281 282 282 284 284 285 285 286 286 284 282 282 282 282 282 280 280 279 278 277 276 275 275 273 273 272 271
294 296 297 295 295 294 293 292 292 292 291 290 290 289 289 286 284 282 281 280 279 279 279 280 280 280 282 281 281 281 281 283 283 284 284 283 285 283 282 281 280 280 279 278 277 276 275 273 272 271 271 270 270 270
293 293 293 295 295 294 293 293 294 294 293 291 290 289 288 286 284 282 280 280 279 279 279 280 280 280 281 280 279 279 280 281 282 282 281 281 281 281 281 280 279 278 277 276 275 274 274 273 272 272 271 270 270 270
286 287 289 291 293 292 291 291 292 292 292 291 289 288 287 286 284 283 280 280 279 279 279 280 279 281 281 280 279 278 279 281 280 279 280 280 279 278 277 277 277 276 276 275 275 275 274 273 273 272 272 272 272 271
287 282 287 288 289 291 291 290 290 289 289 288 287 286 286 287 285 283 281 279 279 278 278 278 280 278 279 279 278 277 277 277 277 277 278 278 277 276 276 276 276 276 276 276 276 276 275 274 274 274 273 273 272 271
283 281 284 286 286 288 288 288 288 288 287 285 285 285 286 285 283 281 279 278 278 277 277 277 278 278 277 276 276 275 275 276 276 275 274 274 278 278 277 277 276 275 275 276 275 275 275 274 273 273 272 271 271 271
284 283 281 281 283 284 285 284 284 284 284 284 283 283 284 283 280 279 278 276 277 276 275 275 276 276 276 276 275 274 273 273 273 273 273 272 272 273 274 274 274 274 274 274 274 273 273 272 271 271 270 270 270 270
280 280 280 280 280 281 281 281 280 280 280 280 281 280 280 279 278 277 277 276 276 276 276 275 275 274 274 274 274 274 275 274 273 273 273 273 273 272 271 271 271 272 273 273 273 273 272 272 271 271 271 270 270 269
280 279 278 278 279 278 278 278 278 277 276 280 280 278 276 275 275 275 275 275 275 275 275 275 276 276 274 273 272 272 272 272 277 276 274 274 273 272 272 272 272 271 270 270 271 271 271 271 270 270 269 269 269 268
281 281 279 278 277 277 277 279 278 277 276 275 275 274 274 273 273 273 274 274 274 274 273 273 273 273 273 273 272 270 269 269 270 273 273 272 272 271 271 271 272 272 271 270 269 269 269 268 268 268 268 269 268 267
282 281 280 278 277 277 277 277 278 278 278 278 277 276 274 274 272 271 272 273 273 273 272 271 270 270 270 269 270 271 269 268 268 268 269 269 269 269 269 270 270 270 270 270 270 270 270 270 269 269 269 269 268 268
282 280 279 277 277 277 278 280 280 279 279 278 278 277 277 278 275 272 270 272 272 271 270 270 269 268 268 268 268 267 266 265 265 265 266 267 268 268 268 268 269 269 269 269 269 269 269 269 270 269 268 267 267 267
282 281 280 279 279 280 278 281 280 279 280 279 277 277 276 276 274 272 269 269 270 269 269 268 268 267 266 266 267 266 265 264 263 263 264 264 265 266 267 267 267 268 268 269 268 268 268 268 268 267 267 266 265 265

GFSWCAN_925_thetae_105.txt.gz
Theta_e
291 292 293 292 292 292 293 293 293 294 294 295 295 294 294 294 294 294 294 294 296 297 297 297 297 297 298 299 299 302 301 302 303 303 300 303 304 306 307 307 309 309 305 305 306 305 307 309 311 312 313 311 312 312
292 292 292 292 292 292 293 293 293 293 292 292 293 294 294 294 295 295 295 294 295 297 296 297 297 297 298 297 298 300 301 302 302 304 306 305 305 305 308 309 308 310 308 309 305 306 311 311 311 312 310 310 310 309
291 292 292 292 292 292 292 292 292 292 292 293 294 294 294 295 295 296 295 294 296 296 294 295 296 296 296 296 298 298 299 300 300 300 301 304 306 307 307 309 307 308 308 310 311 311 311 312 311 310 307 307 307 307
292 292 292 292 292 292 292 292 292 292 292 293 294 294 294 295 295 296 296 295 296 297 296 296 297 298 297 298 298 299 299 299 299 298 299 301 303 303 304 305 306 306 308 309 311 311 312 311 310 309 308 306 307 311
292 292 292 291 292 292 292 292 292 292 293 294 294 295 295 295 295 296 296 296 295 296 297 297 298 298 299 298 299 298 298 299 300 302 301 304 304 304 304 305 306 307 309 310 312 310 310 310 308 309 308 310 311 312
292 292 292 292 292 292 293 293 293 294 294 294 295 295 296 295 295 296 296 296 296 296 297 297 298 300 300 301 300 300 299 298 300 303 303 303 303 304 304 306 304 305 305 305 307 308 308 307 307 308 310 307 304 301
291 292 292 293 294 294 294 294 295 295 295 296 296 295 296 296 296 296 297 298 296 296 296 297 298 298 298 299 301 301 301 301 300 302 302 303 302 304 304 304 303 304 304 304 304 305 307 308 309 309 305 301 298 295
292 294 295 296 297 296 296 296 297 298 298 299 297 296 296 296 296 296 297 299 297 296 296 298 298 301 302 302 302 301 302 302 302 303 302 303 303 303 305 305 305 305 304 304 304 307 308 307 308 309 305 301 298 294
294 295 297 298 298 298 299 299 299 299 300 299 298 296 297 297 293 296 296 298 298 297 298 299 299 300 302 303 303 302 302 303 302 302 303 302 302 303 304 305 303 304 305 306 306 306 306 306 305 307 307 300 296 292
295 299 299 299 299 299 299 299 299 300 300 298 297 294 293 293 297 297 296 297 294 295 299 299 298 297 302 302 303 301 301 301 298 301 302 300 302 302 301 299 299 299 300 301 302 303 303 303 303 303 304 301 295 290
299 299 299 299 299 299 299 299 299 300 297 295 293 296 296 298 297 295 297 298 298 299 298 300 300 300 301 301 301 299 299 299 301 301 302 303 305 300 298 298 297 294 294 296 296 297 297 297 298 300 297 292 289 287
298 298 298 298 299 299 299 299 299 296 295 296 298 298 298 298 297 300 299 298 299 299 300 300 301 301 300 302 301 299 298 300 300 302 304 304 298 295 294 294 294 291 290 291 292 293 292 291 293 291 289 286 284 282
297 298 300 300 299 299 299 299 297 298 298 299 299 298 299 298 300 300 300 300 297 299 300 299 301 299 299 300 300 299 300 298 300 296 301 297 294 292 291 291 291 290 288 287 287 287 287 287 287 287 285 283 282 280
296 299 299 300 299 299 299 298 298 299 298 298 299 301 301 298 298 299 299 300 299 299 298 299 297 298 295 298 300 300 296 302 303 302 298 294 291 290 289 288 288 287 286 286 285 284 284 284 283 282 281 280 279 279
296 297 300 299 299 299 298 298 295 295 296 296 297 298 297 296 297 298 298 298 296 295 297 297 298 297 297 298 299 298 302 301 300 294 293 290 289 288 288 287 286 285 285 283 281 278 279 280 279 279 279 279 278 277
296 295 295 295 294 294 295 294 292 292 292 292 292 296 296 297 296 296 296 295 293 295 296 295 300 300 295 296 300 300 299 295 291 291 288 287 288 287 286 285 284 283 280 279 279 278 277 277 277 277 276 276 276 276
297 295 293 297 296 295 294 292 291 292 292 291 291 289 293 292 292 292 292 292 291 297 300 300 299 297 297 297 297 295 291 289 287 286 285 284 285 284 286 283 283 283 281 279 279 278 278 277 277 276 276 275 274 273
295 295 296 293 293 292 292 292 291 291 291 291 289 288 287 288 288 289 290 290 293 295 298 297 296 295 290 293 288 289 288 289 285 283 280 280 281 282 284 280 282 282 281 280 279 277 277 276 275 274 274 273 273 272
293 292 293 294 294 293 291 292 290 290 290 289 289 286 285 284 285 285 285 287 289 287 288 288 284 285 284 284 283 283 284 284 285 284 279 282 283 284 283 283 282 281 281 280 279 278 277 276 275 275 275 273 272 271
294 294 295 294 294 293 292 291 291 290 289 287 285 285 285 286 284 282 282 283 284 284 282 283 281 279 280 280 281 282 283 283 284 285 285 281 283 283 282 282 281 279 279 278 278 278 277 276 275 274 273 272 271 271
295 294 294 294 292 293 292 290 290 290 290 289 287 286 284 283 282 280 280 281 280 279 279 279 279 278 281 281 281 281 282 282 283 283 283 284 283 282 281 281 281 280 279 278 277 276 275 274 274 273 272 271 270 270
295 296 296 294 293 292 291 291 290 290 290 290 289 289 286 283 281 280 280 279 278 278 279 279 279 280 281 279 279 279 280 282 282 282 282 281 281 281 280 280 279 278 278 276 275 273 272 272 271 271 270 270 270 270
293 292 292 294 291 290 292 292 293 292 291 289 290 288 286 283 282 282 280 279 279 278 278 280 280 280 280 279 278 278 279 280 280 281 280 278 278 278 279 278 277 276 275 274 273 272 272 271 271 271 270 270 270 269
288 286 289 290 291 290 289 290 291 291 290 289 288 287 286 285 283 281 279 279 278 278 278 278 278 280 279 278 277 277 277 278 278 278 278 277 277 277 277 276 276 275 275 274 274 273 273 272 271 271 270 270 270 270
283 280 284 284 286 288 288 289 290 288 289 288 287 286 286 287 284 282 279 279 277 276 277 277 277 276 277 276 275 275 275 277 276 275 274 276 276 275 275 276 276 276 275 274 274 274 273 272 272 272 272 271 271 270
281 281 282 284 284 285 287 286 286 285 284 282 284 284 284 281 279 278 278 277 275 276 275 276 277 276 275 275 274 274 273 275 274 273 273 273 276 277 276 275 275 275 276 275 275 275 274 274 273 272 272 271 270 270
280 280 281 282 283 285 283 282 283 280 280 281 281 279 281 278 277 278 276 276 276 276 275 275 275 275 275 275 275 273 273 273 273 272 272 273 273 273 273 273 273 274 274 274 274 273 272 272 271 271 271 270 270 269
279 280 277 278 279 280 278 278 277 277 278 278 279 276 275 276 276 276 275 276 276 276 276 275 273 273 272 272 272 272 273 273 273 273 272 272 272 272 272 272 272 273 273 273 272 272 271 271 270 270 270 270 269 269
277 278 277 275 276 277 277 276 277 277 277 278 277 275 273 275 275 275 275 274 274 273 273 273 273 273 272 270 270 270 270 272 274 272 272 272 271 271 272 271 271 271 271 271 272 272 271 271 271 270 269 269 269 268
280 279 276 273 273 275 278 274 273 271 273 273 273 273 272 272 272 273 273 274 273 272 271 271 271 270 270 270 269 268 268 269 269 270 270 270 270 270 271 271 271 270 270 270 270 270 269 269 269 269 269 269 268 268
280 278 276 275 275 275 274 276 276 276 274 272 271 270 270 269 271 271 271 271 271 271 270 269 269 268 268 267 267 268 267 266 268 268 269 269 268 269 269 269 270 270 270 270 270 269 269 269 268 268 269 268 268 267
278 275 272 273 276 277 277 278 276 274 275 273 271 270 272 272 269 270 269 271 270 269 268 268 267 267 267 266 266 265 265 264 265 266 267 267 267 268 268 268 269 269 269 269 269 269 269 269 269 268 268 267 267 267
277 276 275 274 273 275 275 277 276 276 274 272 270 270 268 268 268 270 269 269 269 268 268 267 267 267 267 267 266 266 265 264 264 264 264 265 266 266 267 267 267 268 268 268 268 268 268 268 267 267 266 266 265 265

GFSWCAN_925_thetae_108.txt.gz
Theta_e
292 292 292 291 291 291 292 293 293 293 294 293 294 294 294 294 294 294 294 294 295 297 294 295 295 295 295 296 298 299 298 301 301 298 300 301 302 304 306 306 307 309 307 304 305 302 305 310 311 311 310 310 311 310
291 291 291 291 292 292 293 293 293 293 293 294 293 293 293 293 294 294 295 294 293 295 294 296 296 296 297 296 296 298 298 301 301 299 300 300 305 304 306 308 306 309 309 306 302 304 307 310 310 310 309 308 309 308
291 291 291 292 292 292 292 292 292 292 292 292 292 294 294 294 294 295 295 294 294 295 294 294 295 295 295 295 296 296 296 300 300 299 299 298 301 303 304 306 306 306 306 309 309 309 308 310 310 309 308 306 306 306
291 291 292 292 292 292 292 291 291 291 292 292 292 292 294 294 294 295 295 295 294 294 297 292 296 296 297 297 296 296 296 297 297 296 297 299 299 301 303 303 305 306 305 308 309 306 307 309 310 309 307 306 306 307
291 292 291 291 292 292 292 292 291 292 292 292 293 293 293 293 294 295 295 295 294 294 294 294 295 295 296 297 297 297 297 297 297 299 301 301 301 301 301 304 306 307 308 306 307 307 308 308 308 308 307 308 309 304
291 291 291 292 291 291 292 292 292 292 292 292 293 294 294 295 295 296 296 295 295 295 297 295 295 297 298 299 298 298 297 297 297 299 301 301 301 302 304 306 305 304 303 302 304 306 306 306 307 308 305 302 300 298
292 292 292 292 292 291 292 292 292 293 293 293 294 294 294 296 296 296 295 295 295 295 295 294 295 297 297 297 299 298 299 300 299 299 300 300 301 303 301 302 302 302 303 304 304 305 308 307 308 303 300 296 294 292
291 291 291 291 291 292 293 294 294 295 295 294 294 294 294 296 296 295 296 298 295 295 296 296 296 298 299 299 301 300 302 301 300 300 302 302 302 302 304 303 302 301 304 305 305 306 306 305 306 303 300 297 294 291
291 291 291 292 293 294 295 296 297 296 296 296 296 295 296 296 295 296 296 297 296 296 295 295 297 297 300 302 302 302 302 302 301 301 303 303 302 305 302 299 298 297 298 299 302 301 301 302 303 305 302 297 293 290
291 292 293 294 294 295 298 298 298 298 298 298 297 292 293 293 296 295 295 297 294 294 297 297 296 296 300 298 303 301 301 300 304 301 301 302 303 301 298 296 293 292 293 294 297 297 297 297 298 300 297 295 291 288
292 293 293 294 297 298 298 299 299 298 297 294 293 296 295 297 296 296 296 297 294 297 297 297 296 296 297 298 298 300 297 298 300 300 302 303 303 298 295 294 291 290 290 291 291 292 291 292 293 295 291 288 287 285
293 295 298 298 298 298 299 299 298 296 295 295 297 297 298 297 297 298 297 297 298 298 295 297 297 297 295 298 297 297 296 296 298 300 304 304 296 292 292 291 291 288 288 288 288 288 288 288 290 289 288 286 285 283
298 298 298 298 299 299 299 298 297 296 298 298 298 297 299 297 299 298 299 295 296 294 294 295 298 297 297 297 299 298 295 295 296 291 300 295 292 290 289 288 288 287 286 285 285 284 284 284 284 286 285 283 282 281
297 297 298 298 298 299 298 297 297 298 298 297 299 300 298 296 298 295 297 297 295 293 296 296 297 299 294 296 295 293 294 299 301 296 296 291 289 288 287 287 286 285 285 281 281 281 281 281 281 281 280 280 279 279
299 299 299 299 299 299 298 297 298 297 295 296 294 293 292 295 296 297 297 297 295 291 294 296 296 295 299 296 298 296 300 300 297 290 288 288 287 286 286 286 284 283 279 278 276 274 275 277 278 278 278 278 277 277
298 300 299 299 299 298 297 295 293 292 291 290 288 292 296 296 295 295 295 295 292 293 295 294 298 295 292 291 298 299 299 294 287 285 284 284 284 283 284 283 282 279 277 276 276 276 276 276 276 276 276 276 275 275
294 294 295 295 295 295 295 293 291 292 291 288 289 288 291 290 290 291 291 291 291 296 298 299 298 294 293 298 294 292 286 285 285 282 281 280 282 280 280 280 281 280 278 277 277 276 275 275 275 274 273 273 272 272
294 294 294 294 295 295 291 290 290 290 290 289 287 286 285 284 285 286 286 288 291 295 295 294 292 288 284 287 282 282 284 286 284 282 278 277 277 279 281 277 280 280 279 278 276 276 275 274 273 273 273 272 272 271
294 293 294 294 294 292 292 291 290 289 289 287 286 285 283 281 281 280 282 283 286 285 287 283 279 279 279 280 279 279 280 281 282 282 279 279 282 282 281 281 280 279 279 278 277 277 275 275 274 274 273 272 271 270
293 294 294 293 293 291 291 290 289 289 287 286 285 283 282 282 278 277 279 280 282 281 279 278 276 275 276 276 278 279 280 280 282 282 281 277 281 282 281 280 279 278 278 277 277 276 275 274 273 272 271 271 270 270
293 293 293 293 292 292 288 287 288 288 288 285 284 283 280 280 279 278 278 279 278 278 278 276 276 275 279 279 279 279 280 280 282 283 282 283 281 280 280 280 279 278 278 276 275 274 273 273 272 271 271 270 270 269
294 294 295 293 292 291 290 289 287 286 287 286 287 285 279 278 277 277 279 277 277 277 277 277 277 278 279 278 278 278 279 280 280 279 279 279 279 279 278 278 277 276 275 274 273 272 272 271 271 270 270 269 269 269
292 292 292 291 290 288 289 292 291 289 287 286 287 285 281 280 280 281 277 278 277 277 278 278 279 279 278 277 277 276 278 278 278 278 277 277 276 277 277 276 276 275 274 273 272 272 271 271 270 270 270 270 270 270
288 284 287 287 288 286 287 289 290 290 289 286 285 284 283 281 281 279 278 277 277 277 277 277 277 278 277 276 276 275 275 276 275 276 276 276 276 276 276 275 275 274 273 273 272 272 271 270 270 270 270 269 269 269
282 280 281 281 283 283 284 285 286 287 286 287 285 284 286 285 281 279 278 277 275 275 275 276 275 275 275 275 274 274 275 275 275 274 274 276 275 275 275 276 275 275 274 273 272 272 271 271 271 271 270 270 270 269
279 277 279 278 279 282 285 284 283 281 280 279 281 281 280 276 275 276 276 274 272 274 273 274 274 275 274 274 273 273 273 274 273 273 272 274 275 275 275 275 275 275 275 274 274 273 272 272 272 271 271 270 269 269
275 274 279 280 282 282 278 278 279 276 275 277 276 276 275 272 273 275 276 275 275 275 274 274 274 274 273 272 273 273 273 272 272 272 272 272 273 273 273 272 272 273 274 275 274 274 273 272 272 271 270 270 269 269
278 276 273 273 276 277 275 274 273 273 274 277 275 271 270 270 273 274 273 274 275 275 274 273 272 272 271 271 271 272 273 272 272 272 272 272 271 272 272 272 273 273 273 272 273 272 272 272 271 271 270 270 269 269
271 274 273 270 272 274 274 271 273 274 274 275 268 268 271 273 272 274 273 273 273 273 271 270 271 270 270 270 269 269 271 272 272 270 270 270 270 270 271 271 271 272 272 272 272 271 271 271 270 270 270 269 269 269
274 273 272 269 271 274 272 267 267 263 269 270 272 272 271 269 270 272 272 271 270 269 269 269 269 270 269 268 267 267 268 269 270 269 268 268 268 269 270 270 270 270 270 271 271 271 270 270 269 269 269 268 268 268
275 271 272 272 274 272 268 271 273 271 265 265 262 264 265 266 270 270 270 270 269 269 268 267 267 267 267 267 267 266 265 267 267 268 268 268 268 269 269 269 270 270 270 269 269 269 268 268 269 268 268 268 267 267
267 266 268 271 273 271 269 269 266 269 266 265 266 261 265 264 264 267 269 269 268 267 267 267 266 266 266 265 265 264 264 264 265 266 267 267 267 268 268 268 268 269 269 269 269 269 269 268 268 268 268 267 267 267
272 273 266 268 270 271 270 270 268 271 266 264 267 264 263 263 265 267 268 268 268 267 267 266 266 266 266 266 265 265 264 264 263 264 264 265 266 266 267 267 268 268 268 267 268 268 268 268 267 267 266 266 265 265

GFSWCAN_925_thetae_111.txt.gz
Theta_e
294 294 292 292 292 291 292 292 292 293 294 293 293 293 294 294 294 294 294 294 294 295 293 293 294 295 294 294 296 295 293 296 297 301 297 300 302 304 306 304 306 307 307 306 305 300 302 307 309 311 311 310 310 311
293 293 292 291 291 291 291 292 292 293 293 293 292 292 293 294 294 294 294 294 294 294 292 294 294 295 295 295 295 295 295 299 298 298 299 299 301 303 303 306 306 306 306 307 303 302 305 307 309 310 311 308 307 307
292 292 292 292 291 291 292 293 292 292 292 293 293 293 293 293 293 294 294 294 293 294 291 291 292 294 294 295 296 297 295 297 299 298 299 298 298 300 302 305 304 305 304 308 307 307 306 308 308 309 310 308 304 307
293 292 290 290 290 290 292 292 292 292 292 291 292 292 291 294 294 293 294 293 294 292 294 292 294 295 296 296 295 295 295 296 296 297 297 297 299 299 303 303 303 304 306 306 309 306 306 307 306 306 306 307 306 302
292 291 290 290 291 292 291 292 292 291 291 291 292 293 293 293 292 294 294 294 294 293 292 292 293 294 294 294 295 295 295 294 294 299 300 300 299 301 300 302 305 306 305 305 306 305 305 305 306 306 306 303 303 301
291 290 290 290 291 291 291 291 291 291 291 291 292 293 293 293 293 294 295 294 294 294 296 294 293 294 296 297 296 295 295 295 295 296 297 300 300 301 303 304 303 302 303 303 304 306 306 308 304 302 300 298 296 294
291 290 290 290 290 291 291 291 290 291 291 291 292 293 293 293 293 293 294 295 294 294 295 294 293 294 297 297 297 297 297 297 297 299 299 298 299 301 301 300 300 299 300 302 302 305 307 306 304 299 297 294 292 290
291 291 291 291 291 292 291 291 291 291 292 292 293 293 293 294 294 295 295 297 295 295 294 295 294 297 297 298 300 298 299 299 300 301 301 302 301 302 303 301 298 296 297 298 299 300 300 301 303 302 298 295 292 289
291 291 291 291 291 291 291 291 291 292 294 294 294 293 294 294 292 295 296 296 295 295 294 294 296 296 298 301 301 302 302 301 300 300 301 302 302 304 300 297 295 293 294 294 295 295 295 296 296 299 298 295 292 288
290 291 291 291 291 291 291 293 293 294 295 296 294 292 293 293 295 295 297 294 294 294 296 296 293 294 299 299 303 300 299 300 302 302 301 303 302 298 296 293 292 291 291 291 293 294 293 292 292 294 293 290 289 287
291 291 290 290 291 292 293 294 294 296 298 293 292 295 295 296 295 295 294 294 295 296 295 296 296 294 296 299 299 299 298 299 300 299 302 303 302 296 292 292 290 288 288 289 289 288 289 289 290 290 289 288 287 286
291 292 293 293 292 293 293 294 296 297 294 295 296 296 296 297 296 296 294 294 296 296 294 296 297 295 292 295 296 299 299 294 297 299 303 303 294 290 290 289 288 287 286 285 285 285 285 286 286 288 287 286 284 282
292 292 292 292 293 293 296 298 297 296 296 297 297 295 297 296 298 295 295 297 297 293 292 295 299 294 297 297 296 299 300 295 294 297 301 294 290 288 288 288 286 285 284 282 282 281 282 283 282 282 283 282 281 280
293 295 297 298 298 298 298 297 297 297 298 297 298 299 297 295 296 294 296 296 293 293 293 293 298 296 293 295 295 297 294 298 300 298 296 289 288 287 286 285 285 284 282 278 278 279 278 278 278 279 279 280 279 278
297 297 297 298 299 299 298 297 297 296 294 295 295 296 295 289 292 296 297 297 295 293 292 295 296 295 297 295 298 294 299 299 295 289 284 287 287 285 285 285 283 281 278 276 274 273 273 274 275 275 277 277 277 276
297 297 298 298 299 298 297 297 294 292 291 289 286 293 294 296 295 294 295 295 292 294 295 296 294 290 297 291 298 298 298 294 283 282 282 282 283 282 282 281 279 277 276 275 275 274 275 274 274 273 274 274 274 274
298 299 298 298 298 296 294 294 292 291 291 286 285 287 289 290 289 289 290 289 290 296 298 296 298 291 292 297 292 288 281 281 284 281 280 279 280 281 276 277 278 278 276 276 275 275 274 274 274 273 271 272 272 272
298 298 295 295 294 293 290 290 290 290 289 287 286 285 283 281 285 284 284 285 290 294 294 293 289 289 284 286 281 278 280 281 282 280 279 276 276 278 279 277 279 278 277 276 275 275 274 273 272 272 272 271 270 270
295 295 295 296 296 292 291 289 289 288 287 286 285 285 283 281 280 279 280 282 283 283 284 281 278 277 276 277 277 277 277 278 279 278 276 278 279 278 280 280 279 278 277 276 276 275 274 273 273 272 271 271 270 269
294 293 293 293 292 291 291 289 289 288 285 284 283 281 281 280 277 276 278 279 281 279 278 278 275 273 274 276 277 278 277 278 279 277 276 276 280 280 280 279 278 277 277 276 275 275 273 272 272 272 271 270 270 269
293 293 292 292 291 290 288 287 288 287 286 283 283 282 279 279 277 277 277 278 277 276 276 274 274 274 277 278 278 278 279 280 280 280 279 278 279 279 279 279 278 277 275 274 273 273 273 272 271 271 270 270 269 269
293 294 293 292 290 289 287 286 287 285 285 284 284 282 276 275 274 274 278 275 275 275 274 274 275 275 276 275 276 277 278 279 278 277 277 277 275 276 275 276 276 274 274 273 273 272 271 271 270 270 270 269 269 269
292 291 291 290 290 288 288 290 287 286 283 284 284 281 278 278 277 279 275 276 274 275 276 276 277 277 276 276 276 276 276 276 276 276 276 276 276 276 276 275 275 274 273 272 272 271 271 270 270 270 270 269 269 269
288 284 286 287 287 287 288 287 290 289 287 284 283 282 280 278 280 277 276 274 274 276 276 276 277 275 275 275 274 274 274 275 275 275 275 275 275 275 275 274 274 274 273 272 271 271 270 270 270 270 269 269 269 269
284 279 281 281 282 282 282 282 283 284 283 283 282 282 282 282 278 277 277 276 275 274 274 274 274 274 274 273 273 273 273 274 273 272 273 275 275 275 275 275 274 273 273 272 271 271 270 270 270 270 270 269 269 269
280 278 279 278 280 282 283 282 282 282 282 282 282 280 278 276 274 275 276 272 270 273 270 271 270 271 272 273 271 272 272 273 273 272 272 273 274 274 274 274 274 274 274 273 272 271 271 271 271 270 270 269 269 269
276 275 279 278 281 280 277 276 277 276 275 276 277 275 273 271 271 274 274 274 272 274 273 273 273 272 271 271 272 272 272 272 272 271 272 272 272 272 272 272 272 273 274 274 273 273 272 272 271 271 270 269 269 269
278 276 275 273 275 276 272 272 270 271 273 277 272 268 267 267 271 272 270 273 274 273 272 271 271 271 270 270 271 272 272 272 272 272 271 271 271 271 272 272 272 272 272 273 273 273 273 272 271 271 270 269 269 269
271 271 272 269 272 272 271 268 270 273 273 271 265 265 269 270 268 271 271 272 273 272 271 270 269 269 269 269 269 270 271 272 271 269 268 267 268 269 270 270 271 272 272 272 271 271 271 271 271 270 270 269 269 269
272 271 271 268 270 271 268 266 265 262 268 269 271 271 269 268 269 270 271 271 270 268 268 269 269 269 268 268 267 267 268 269 269 269 266 266 267 268 270 270 269 270 270 271 271 271 270 270 270 269 269 269 268 268
271 269 270 271 272 268 266 265 270 269 261 262 259 262 265 265 269 269 269 268 268 268 268 267 266 266 267 266 266 266 266 266 267 267 267 268 268 268 269 269 270 270 269 269 269 269 269 269 269 268 268 268 268 268
265 263 267 270 270 267 265 262 263 263 260 261 262 257 260 260 261 266 268 268 268 267 266 266 266 265 265 265 264 264 264 264 265 265 266 267 267 267 268 268 268 268 269 269 269 269 268 268 268 268 267 267 267 266
265 265 262 266 269 269 267 269 267 268 262 263 265 261 260 260 262 265 267 268 267 267 266 266 266 266 265 265 264 264 264 263 263 264 264 264 265 266 266 267 267 267 267 267 268 268 268 268 268 267 266 266 266 266

GFSWCAN_925_thetae_114.txt.gz
Theta_e
294 292 293 295 293 292 295 294 293 292 293 293 293 292 293 293 294 294 294 293 293 290 291 292 293 294 293 294 294 293 292 293 293 298 298 300 302 303 305 303 305 305 305 305 305 303 300 306 307 307 310 309 309 309
293 293 294 294 292 291 292 292 291 291 292 293 292 292 293 294 294 294 294 293 293 293 290 293 294 295 295 294 294 294 294 297 293 291 293 298 299 301 302 303 305 304 305 305 304 302 304 304 308 308 308 308 308 305
292 293 293 292 292 291 291 290 292 291 292 292 292 292 292 293 293 294 293 293 293 294 294 291 292 293 293 293 294 294 294 296 297 296 299 299 298 299 301 303 304 303 303 306 306 306 305 304 306 307 305 305 307 306
292 292 293 292 291 291 291 291 291 292 292 292 293 293 293 293 294 293 294 293 293 293 293 291 292 293 294 295 294 294 294 295 295 297 298 298 298 298 301 301 302 304 305 304 306 306 305 307 306 304 305 306 299 298
292 292 292 292 291 290 290 290 291 292 292 292 292 291 292 291 293 294 293 293 293 294 291 291 292 293 293 293 294 294 294 293 293 295 296 299 298 299 300 300 304 303 304 305 305 304 304 306 305 302 301 299 300 297
291 291 292 291 291 290 290 291 291 291 292 291 291 292 293 293 293 293 294 293 294 293 295 293 291 292 294 295 293 293 293 293 295 295 296 296 298 300 302 303 301 298 298 299 303 302 306 303 301 299 297 295 294 293
291 291 292 291 290 290 290 291 291 291 292 292 291 292 293 293 293 293 294 294 294 294 294 293 292 292 296 295 294 294 295 295 295 297 298 297 297 300 299 299 300 297 296 299 296 299 301 300 302 300 296 293 290 289
291 291 291 291 290 290 290 291 291 290 290 290 291 291 293 293 294 294 293 295 294 294 294 293 292 293 296 296 298 296 297 297 298 299 300 300 300 300 302 299 296 294 294 294 293 295 294 295 295 297 297 294 290 289
290 290 290 290 290 290 291 290 291 291 291 291 292 293 293 293 293 294 294 295 294 294 293 293 293 293 296 300 300 301 300 300 300 300 301 301 301 303 299 296 293 292 292 291 291 293 292 292 292 293 292 291 290 288
291 291 290 290 291 290 291 291 291 291 291 293 293 292 292 292 295 295 294 294 293 294 296 295 292 294 297 299 301 300 299 302 303 302 301 302 300 296 294 292 290 289 288 289 290 290 289 289 290 291 291 289 288 287
291 291 290 291 291 291 291 290 290 291 293 294 292 294 294 295 294 293 293 295 295 296 294 294 294 295 294 296 299 298 300 299 301 301 302 303 300 294 291 290 288 287 286 286 285 286 286 286 287 288 289 288 286 285
291 291 291 291 291 291 291 290 291 293 292 293 295 295 296 295 295 295 294 292 293 295 294 296 296 296 294 295 297 298 300 296 300 298 302 302 292 289 288 288 286 285 284 283 282 282 283 284 283 284 285 284 283 282
291 291 291 291 291 291 291 292 294 294 293 296 296 295 296 295 296 292 293 294 295 294 292 295 297 292 294 297 296 299 300 296 295 298 301 293 290 288 287 286 285 284 282 280 280 280 280 280 280 279 280 280 280 279
291 291 291 292 292 293 293 293 293 292 295 296 297 298 294 294 295 294 295 294 293 291 292 292 297 295 295 294 297 297 295 297 301 299 295 289 287 286 285 285 284 283 280 277 276 277 276 276 276 276 276 278 278 277
292 292 292 292 292 292 293 292 295 295 293 296 296 294 296 289 292 292 293 292 294 293 292 293 293 296 295 296 297 293 298 299 294 289 284 287 286 285 284 284 282 280 277 275 273 272 272 273 273 273 274 275 275 275
292 292 293 295 295 295 296 295 295 291 290 289 287 291 292 296 295 294 295 294 292 294 294 294 293 293 297 294 298 296 297 291 284 283 283 282 282 281 281 281 278 277 275 274 274 274 273 273 272 271 273 273 273 273
296 297 296 298 297 296 294 295 291 291 290 285 283 285 289 289 289 288 288 288 288 294 295 293 291 293 292 294 290 285 281 281 283 283 280 278 280 280 276 276 277 277 276 275 275 274 273 273 273 272 270 270 271 271
298 297 298 295 293 293 291 290 290 289 287 285 284 285 282 281 284 283 282 283 287 294 293 291 289 293 291 293 281 277 279 279 279 277 276 276 276 277 278 277 279 277 276 276 275 274 273 272 271 271 270 270 270 270
296 295 296 295 295 291 290 289 288 286 285 283 284 284 282 280 280 279 280 282 282 282 283 281 280 278 274 276 274 275 276 278 277 276 275 277 278 277 279 278 278 277 277 276 275 274 273 273 272 271 271 271 269 269
294 293 293 294 294 290 290 288 288 286 285 284 283 281 280 279 278 275 278 279 280 280 279 278 275 272 271 273 277 278 277 278 279 277 274 273 278 279 279 278 278 277 276 275 274 273 273 272 271 271 271 270 269 269
293 292 292 291 290 289 286 285 287 286 285 282 282 280 277 279 277 277 277 278 276 275 275 273 273 272 274 276 277 277 278 279 277 278 276 274 277 278 277 277 277 276 275 273 273 272 272 271 271 270 270 269 269 269
293 292 292 291 289 287 287 285 286 284 284 284 282 280 274 274 272 273 277 275 274 273 272 274 273 273 274 274 275 275 276 277 276 276 276 276 274 275 274 274 275 273 273 273 272 271 271 270 270 270 269 269 269 269
293 291 290 290 288 285 286 288 286 284 282 283 282 279 275 274 274 277 272 273 272 273 275 275 276 276 275 275 275 275 275 275 274 274 275 275 274 274 274 274 274 273 272 272 272 271 270 270 270 269 269 269 269 269
289 284 286 287 286 284 287 286 288 286 285 281 280 278 276 274 277 274 272 270 271 275 275 275 276 274 275 274 273 273 273 274 274 273 274 274 274 274 274 273 273 272 272 272 271 271 270 270 270 269 269 269 269 269
284 280 281 278 280 280 278 278 280 282 281 280 280 279 279 278 275 274 272 274 273 273 273 274 274 274 274 273 273 273 273 273 273 272 272 274 275 275 274 274 273 273 272 272 271 270 270 270 270 269 269 269 269 269
279 277 278 277 278 281 281 279 278 279 280 279 280 279 277 276 275 275 275 273 272 273 270 269 270 270 271 272 272 271 272 273 273 271 271 272 272 273 273 271 272 272 273 273 272 271 270 270 270 270 269 269 269 269
277 276 279 277 280 279 277 276 278 278 278 279 277 273 272 270 270 274 274 273 272 272 272 272 272 271 270 271 271 271 271 272 272 271 271 271 271 271 271 271 271 272 273 273 273 272 271 271 270 270 269 269 269 269
276 276 274 272 273 274 271 272 271 271 274 276 271 267 267 267 271 271 269 272 272 271 271 270 270 270 270 270 271 272 272 271 271 271 271 270 270 270 271 271 272 272 272 272 272 272 272 272 271 270 270 269 269 268
271 271 273 269 271 271 271 269 270 272 272 270 266 266 268 268 266 268 270 271 271 271 270 269 268 269 269 269 269 270 270 271 271 265 264 264 267 269 269 270 271 271 271 271 271 271 271 271 271 270 270 269 269 268
271 269 269 266 268 269 266 265 265 263 267 268 270 270 268 266 268 269 270 270 270 269 268 268 268 269 268 268 266 267 267 268 269 268 263 263 267 268 269 269 269 269 270 270 271 270 270 270 270 269 269 269 268 268
269 268 269 268 267 267 265 262 267 266 259 261 259 261 263 263 268 268 268 268 268 267 267 266 266 266 267 267 266 266 265 266 266 267 267 267 267 268 268 269 269 269 269 269 269 269 269 269 269 268 268 268 267 267
263 262 267 268 268 264 262 260 259 260 256 260 260 254 257 258 260 264 267 267 267 266 266 266 265 264 264 264 264 264 264 264 264 265 265 266 266 267 267 267 268 268 268 269 269 268 268 268 268 268 267 267 267 266
262 263 262 264 266 266 265 265 264 264 260 261 261 257 257 259 262 264 266 267 267 266 266 266 265 265 264 264 264 264 263 263 263 264 264 264 264 265 266 266 267 267 267 267 268 268 268 268 267 267 266 266 266 265

GFSWCAN_925_thetae_117.txt.gz
Theta_e
294 294 293 292 292 295 293 292 293 294 294 292 292 293 292 293 294 293 293 293 293 293 291 292 293 293 293 294 295 295 295 295 296 297 299 299 300 299 300 301 302 305 306 307 305 306 304 306 306 307 308 306 306 308
294 294 293 292 292 294 293 293 294 294 292 291 293 292 292 293 293 294 293 293 293 293 292 292 293 293 292 293 295 295 296 296 297 298 296 298 299 300 300 302 304 304 303 304 306 303 303 305 305 307 308 307 306 308
293 293 294 293 293 293 292 292 293 292 291 291 292 292 292 293 294 294 293 293 293 294 293 293 293 293 293 293 294 294 294 295 297 297 300 299 299 298 300 301 302 302 303 306 305 307 307 304 305 306 306 306 305 301
293 293 292 293 293 293 292 291 291 291 291 291 292 292 292 292 293 294 293 293 293 292 293 292 291 291 293 293 293 293 293 294 295 297 297 298 298 298 300 300 301 303 304 304 305 304 303 305 302 303 301 301 298 297
293 292 293 293 293 292 292 290 290 291 291 292 292 291 291 292 293 293 293 293 292 293 293 293 292 293 292 292 293 293 293 294 295 296 297 297 299 300 300 301 303 301 302 303 304 300 301 300 296 297 298 298 296 296
292 292 292 292 293 292 291 290 290 290 291 292 291 292 291 292 292 293 293 293 293 293 293 294 292 292 293 293 292 293 293 294 295 296 297 298 298 299 300 302 300 298 297 296 298 297 299 298 300 297 296 294 293 292
292 291 292 292 292 292 291 290 290 290 291 292 292 290 291 291 293 292 293 294 294 293 294 293 292 292 294 294 292 293 293 295 296 297 298 298 298 300 299 299 299 295 294 294 293 295 296 296 297 296 294 292 291 290
292 291 291 292 292 292 290 290 290 290 291 292 291 291 291 292 293 292 292 294 293 293 294 293 293 293 294 297 298 295 296 296 298 299 299 299 300 299 301 298 294 292 292 292 291 292 292 293 293 293 292 292 291 290
291 290 291 291 291 291 290 290 291 292 291 291 290 290 293 293 292 293 293 293 293 294 292 293 293 294 295 300 300 300 299 300 299 299 300 301 301 303 297 294 292 290 289 289 289 290 289 290 290 291 291 290 291 289
291 290 290 291 291 290 291 291 291 292 290 290 291 292 293 292 293 294 295 294 292 294 295 293 293 294 296 298 301 301 300 302 302 302 301 302 299 294 293 290 289 287 286 286 287 287 287 287 287 288 289 289 288 288
290 290 290 290 290 290 290 291 291 291 291 292 291 294 293 294 294 295 295 296 294 295 293 294 293 295 294 298 299 298 301 301 303 302 304 303 299 293 290 289 287 286 284 284 283 283 284 285 285 285 286 286 285 284
291 291 290 290 290 291 290 291 291 291 291 291 293 295 294 294 295 296 293 294 293 295 294 294 295 295 296 296 299 299 302 298 301 299 303 303 292 289 288 287 286 284 282 282 281 281 281 282 281 282 282 282 282 281
291 291 291 290 291 291 291 291 291 291 293 294 295 294 296 295 296 294 294 293 294 294 293 295 296 295 294 297 298 299 300 300 296 299 301 293 290 287 287 286 285 283 281 280 279 279 278 279 278 277 278 278 279 279
291 291 291 290 291 291 291 290 290 292 293 293 296 297 296 294 295 294 295 296 294 292 294 295 297 297 297 299 298 299 298 297 301 301 297 290 287 286 285 285 284 282 279 276 276 276 275 275 275 274 274 275 276 276
291 291 291 292 291 291 290 290 291 293 292 295 297 296 294 291 292 292 292 294 292 291 295 296 297 298 297 297 297 296 298 299 297 294 288 288 286 284 284 284 282 281 278 276 274 272 271 272 272 272 272 273 274 274
291 291 291 291 291 291 291 292 293 292 290 289 287 292 292 296 295 295 295 294 292 293 293 294 295 297 297 297 299 298 298 296 288 286 285 285 284 282 281 281 280 277 276 274 274 273 273 272 271 271 271 272 272 273
292 292 292 292 292 293 293 292 291 290 289 286 285 285 289 289 289 288 288 288 287 295 300 294 294 297 294 297 294 287 289 284 285 284 283 282 282 281 280 278 277 277 276 275 274 274 273 272 272 271 271 270 271 271
291 292 294 293 292 292 290 290 289 289 286 285 284 284 281 280 284 283 283 283 287 294 295 294 291 294 292 297 287 281 281 281 281 281 281 279 279 278 278 278 278 276 275 275 274 273 272 272 272 272 270 270 270 270
296 296 295 293 292 291 289 289 288 286 285 284 284 283 281 280 279 279 280 282 282 283 285 285 285 283 280 278 279 279 279 280 281 280 279 276 276 277 277 277 277 276 275 275 274 274 272 272 272 271 271 271 271 270
294 294 294 293 293 290 289 288 286 286 285 284 283 281 280 279 279 277 278 280 281 281 280 280 278 277 277 278 278 279 279 279 280 281 280 278 277 277 276 276 276 275 275 274 274 273 272 272 271 271 270 270 270 270
292 292 293 293 289 288 287 286 285 285 284 282 282 281 279 279 278 279 278 278 277 276 278 276 276 276 275 275 276 278 278 278 278 278 278 277 276 276 276 275 275 275 275 274 274 272 271 271 270 270 269 269 269 269
291 291 291 289 288 287 286 284 285 284 284 284 282 280 278 278 277 276 277 276 276 275 275 276 276 275 276 275 274 274 276 276 275 275 275 275 275 275 274 273 274 273 272 272 272 271 271 270 270 269 269 269 269 269
293 291 290 289 287 285 286 287 285 285 283 283 281 279 276 276 276 277 274 275 274 274 274 275 274 275 275 274 274 274 274 275 274 274 274 274 273 273 273 273 272 272 272 271 271 270 270 270 270 269 269 269 269 269
288 283 283 282 284 283 286 285 287 286 283 281 280 278 277 276 276 274 273 273 274 274 275 275 275 275 275 274 274 273 273 274 274 273 273 274 275 274 273 273 272 272 272 271 270 270 270 269 269 269 269 269 269 269
285 281 282 279 279 279 278 276 279 281 278 278 278 277 277 276 274 273 272 274 274 273 274 274 274 274 275 274 273 273 272 273 273 273 272 272 273 274 274 273 273 272 272 271 270 270 270 270 269 269 269 269 269 269
280 276 276 275 277 279 279 277 276 277 279 277 278 278 276 275 275 275 275 274 274 274 272 272 272 272 272 271 272 271 271 272 272 272 271 271 271 272 273 273 273 272 272 272 271 270 270 270 270 269 269 269 269 269
277 276 278 277 279 279 276 276 278 278 277 278 278 276 276 274 273 274 274 273 273 271 271 272 272 271 271 270 270 271 271 272 271 270 270 270 270 270 270 270 270 271 272 272 272 272 271 270 270 270 269 269 269 268
277 277 277 273 273 274 273 273 274 275 276 275 273 270 271 271 273 272 271 270 271 270 270 270 270 270 270 270 270 271 271 271 270 270 270 270 270 270 270 270 271 271 271 271 272 272 272 271 270 270 269 269 268 268
271 272 273 269 270 270 270 270 271 272 271 271 269 269 270 268 266 267 269 270 270 270 269 268 267 268 268 268 269 269 270 271 271 266 267 267 267 268 269 269 270 270 271 271 271 271 271 271 270 270 269 269 268 268
271 270 269 266 267 269 267 266 268 265 266 267 269 269 268 266 266 267 269 269 269 268 268 268 268 268 267 267 266 266 267 268 269 268 266 266 266 267 268 269 269 269 269 270 270 270 270 270 269 269 269 268 268 267
268 267 267 266 267 267 264 260 263 263 260 261 261 262 265 265 267 267 267 267 267 267 267 266 266 266 266 266 266 265 264 265 266 266 266 266 266 267 267 268 268 268 269 269 268 269 269 269 268 268 268 267 267 267
262 262 266 267 268 264 263 260 259 261 259 263 261 257 259 261 262 264 266 266 266 266 265 265 265 264 264 264 264 264 264 264 264 264 264 265 265 266 266 267 267 267 267 268 268 268 268 268 267 267 267 266 266 266
262 261 262 265 265 265 263 265 265 264 262 262 261 258 257 262 264 264 266 267 266 266 266 265 265 264 264 264 263 263 263 263 264 264 264 264 264 265 266 266 266 266 266 267 267 267 267 267 267 266 266 266 265 265

GFSWCAN_925_thetae_120.txt.gz
Theta_e
297 295 296 296 295 294 295 294 294 293 296 293 292 292 292 293 294 294 294 294 295 295 296 295 295 296 296 296 297 297 298 298 299 300 300 300 301 300 301 300 303 305 307 308 307 308 307 305 305 307 309 309 306 305
295 296 295 294 295 295 295 294 293 292 293 293 292 292 292 292 294 294 295 294 294 294 296 294 295 294 294 295 296 296 297 296 298 300 300 301 301 300 300 303 303 305 304 305 307 307 307 305 307 307 307 308 306 306
295 294 294 293 292 292 294 294 293 293 294 292 291 292 292 292 294 294 295 293 293 295 295 295 296 295 295 294 295 296 296 296 297 299 300 300 299 299 301 301 302 302 302 307 305 304 302 302 300 302 304 302 300 300
294 294 294 293 293 293 292 293 294 294 292 291 291 292 292 292 294 294 295 294 293 294 296 296 293 294 294 294 295 295 296 296 297 299 298 299 299 298 300 299 301 303 304 303 305 301 301 301 299 297 298 298 298 299
293 293 294 294 293 293 293 293 292 292 291 291 291 292 292 292 294 294 293 293 293 295 296 296 294 295 294 294 294 295 295 297 298 297 299 299 298 299 300 300 304 302 301 302 303 299 299 300 297 297 298 298 297 298
292 293 293 293 293 293 293 292 292 291 291 290 291 292 292 291 293 294 294 293 293 294 295 296 295 295 295 295 295 295 296 297 297 297 298 299 298 300 301 302 301 298 299 295 297 296 299 297 298 296 297 296 295 295
291 292 293 293 293 293 293 292 290 290 291 291 292 291 291 292 293 294 295 294 293 293 295 295 296 296 295 297 296 297 296 296 297 297 299 298 299 300 301 301 298 296 296 294 294 295 297 295 295 295 295 295 294 292
290 292 293 292 292 293 292 291 291 290 290 292 292 292 291 292 293 293 294 294 293 293 294 294 296 297 297 300 300 298 298 296 297 299 300 300 301 301 302 299 296 294 294 293 293 293 292 292 293 293 293 293 295 293
290 291 292 292 292 292 292 291 291 290 291 292 292 291 292 293 293 293 292 292 292 294 295 294 297 298 298 301 300 300 299 300 300 300 301 302 302 303 298 296 294 291 291 290 291 291 291 291 290 290 291 291 291 291
290 291 291 291 292 292 291 291 290 290 292 292 292 292 294 292 293 293 294 294 293 295 296 295 295 298 298 300 301 300 301 303 303 301 302 302 302 295 293 292 291 289 288 288 289 290 289 289 289 288 289 288 288 288
290 291 291 291 291 292 291 291 291 291 291 292 292 293 294 292 294 295 295 295 295 296 296 296 296 298 297 298 298 301 303 303 305 304 304 305 302 294 291 290 289 288 286 286 285 286 285 286 286 286 287 286 286 285
291 290 290 291 291 291 291 291 291 292 291 292 293 293 294 295 297 296 297 297 296 296 297 295 296 296 297 299 300 301 302 302 304 302 305 304 294 291 290 288 287 286 284 284 283 283 283 283 282 283 283 283 282 282
290 290 290 291 291 290 290 291 291 292 291 292 294 296 296 297 298 297 296 296 297 297 298 297 297 297 298 299 301 301 303 302 300 302 302 296 291 290 289 288 287 284 282 282 282 281 280 280 279 278 279 278 278 280
290 290 290 290 290 290 291 291 291 291 292 295 296 298 297 298 298 297 297 297 297 298 299 298 298 299 299 299 301 302 301 300 302 302 301 293 290 288 287 286 286 284 281 279 279 279 278 277 277 276 275 275 277 277
291 290 290 290 291 291 291 291 292 292 292 294 297 299 298 299 296 297 297 298 296 298 299 299 299 300 301 302 300 300 300 301 301 301 294 290 288 287 286 285 284 283 281 280 278 276 275 274 275 275 274 274 275 275
291 291 291 291 291 291 291 291 291 291 291 293 293 296 296 298 298 298 298 296 295 298 299 301 301 301 302 301 301 301 300 301 297 292 289 288 286 285 284 283 282 281 280 279 278 277 276 274 274 274 273 273 273 274
290 291 291 290 290 291 291 291 291 292 293 291 292 289 291 295 297 293 294 294 291 298 301 301 301 302 299 301 300 296 299 292 290 288 287 286 286 284 283 282 281 280 280 279 277 277 276 274 273 275 275 274 273 274
291 291 290 290 291 291 291 290 291 291 289 288 291 288 285 285 289 288 288 288 291 296 299 300 297 300 301 301 299 289 288 287 286 286 286 284 283 282 282 282 281 279 280 278 276 276 275 275 277 277 275 274 274 274
291 291 290 291 291 291 291 290 290 289 288 286 285 285 285 284 283 283 285 286 285 286 290 292 295 296 292 286 287 286 285 285 285 284 284 281 280 280 280 280 279 279 278 278 278 278 276 274 274 275 275 274 275 274
292 292 292 292 292 291 290 289 288 288 289 287 285 285 284 284 283 283 284 284 285 286 286 287 286 283 284 282 282 283 283 283 284 285 284 282 281 280 280 280 280 279 279 277 277 275 276 276 274 274 273 273 274 274
291 292 292 291 289 288 289 288 287 287 286 286 285 285 284 283 284 284 283 281 283 282 283 282 282 280 279 279 280 281 281 281 282 282 282 282 279 279 279 278 278 278 278 277 277 276 275 275 274 273 273 273 272 272
290 291 290 289 289 288 288 287 287 287 287 286 285 284 285 285 284 282 280 281 280 279 280 281 280 280 279 279 278 278 278 278 278 278 277 278 279 279 278 277 277 277 276 276 275 275 274 273 273 272 272 272 272 272
292 291 290 289 289 289 288 288 289 288 288 286 285 285 284 283 281 279 280 279 278 277 278 279 277 277 277 276 276 276 276 277 278 278 277 277 276 276 276 276 275 276 276 275 274 274 273 271 271 272 272 272 272 272
289 286 287 288 290 290 290 289 289 288 287 286 285 284 282 282 280 280 279 278 278 277 278 277 278 278 277 277 277 276 276 277 276 276 276 277 277 276 276 275 275 274 274 274 273 273 273 272 271 272 272 272 272 272
290 283 285 286 286 288 288 288 287 287 286 285 284 283 282 281 281 279 278 278 278 278 278 277 277 278 278 277 276 275 274 276 276 276 275 275 276 276 276 275 275 274 274 274 274 273 272 272 272 272 272 272 272 272
283 280 284 283 285 287 286 286 286 285 285 284 283 282 281 281 280 279 278 277 277 277 276 276 276 276 275 275 276 275 274 274 274 275 273 273 274 275 275 276 276 275 273 273 273 273 273 272 272 272 272 271 270 271
282 281 280 278 281 282 283 282 282 284 283 283 282 281 281 281 279 277 276 275 276 274 274 274 275 275 274 273 273 272 273 273 273 273 272 271 271 271 272 273 273 272 272 272 273 273 273 272 272 272 271 271 271 271
279 279 280 277 277 277 278 279 279 279 280 278 279 278 279 278 277 275 275 273 272 272 271 270 270 272 272 271 270 271 271 271 271 271 271 271 270 269 269 270 270 270 271 271 272 272 273 273 272 271 271 271 270 270
277 276 276 273 274 274 273 275 276 275 274 275 276 275 273 271 270 272 272 272 271 272 272 271 269 268 268 267 267 267 268 269 273 272 272 273 272 270 268 268 269 269 270 272 271 271 271 271 271 271 271 270 270 269
275 274 273 272 272 273 272 270 272 271 271 272 272 271 271 270 268 267 270 271 272 271 269 268 268 270 270 270 269 267 265 266 267 270 272 271 269 266 266 267 267 268 268 270 270 270 270 270 269 269 269 269 269 269
274 274 273 273 272 272 271 268 268 269 270 271 271 272 271 271 269 266 266 266 266 266 268 268 267 266 268 268 269 269 268 265 266 266 266 266 266 265 266 267 267 268 268 269 269 269 269 269 269 269 269 268 267 268
273 273 273 272 272 271 270 272 273 273 273 274 272 270 269 272 272 270 266 266 267 268 266 266 267 265 264 264 265 265 265 264 264 264 264 264 264 265 266 266 267 267 267 267 268 267 268 268 268 268 267 267 266 266
272 272 274 274 273 273 272 273 274 274 273 274 272 270 271 273 273 270 266 266 266 268 266 266 265 264 264 264 263 263 263 264 264 264 264 264 264 265 265 266 266 266 266 266 266 266 266 266 266 265 265 264 264 264